<?xml version='1.0' encoding='UTF-8'?><gpx version="1.1" creator="JPX - https://github.com/jenetics/jpx" xmlns="http://www.topografix.com/GPX/1/1"><trk><trkseg><trkpt lat="44.7717681" lon="11.9901137"><ele>-3.9999999999999996</ele><time>2026-04-12T13:46:44.013Z</time></trkpt><trkpt lat="44.7717134" lon="11.9902382"><ele>-4.0</ele><time>2026-04-12T13:46:46.013Z</time></trkpt><trkpt lat="44.771683" lon="11.9903412"><ele>-4.0</ele><time>2026-04-12T13:46:48.012Z</time></trkpt><trkpt lat="44.7717011" lon="11.9904361"><ele>-4.0</ele><time>2026-04-12T13:46:50.013Z</time></trkpt><trkpt lat="44.7717474" lon="11.9905188"><ele>-3.9999999999999996</ele><time>2026-04-12T13:46:52.012Z</time></trkpt><trkpt lat="44.7717779" lon="11.9906201"><ele>-4.0</ele><time>2026-04-12T13:46:55.013Z</time></trkpt><trkpt lat="44.7717268" lon="11.9906999"><ele>-4.0</ele><time>2026-04-12T13:46:58.012Z</time></trkpt><trkpt lat="44.7716671" lon="11.9908099"><ele>-4.0</ele><time>2026-04-12T13:47:00.013Z</time></trkpt><trkpt lat="44.771607" lon="11.9909317"><ele>-4.0</ele><time>2026-04-12T13:47:02.012Z</time></trkpt><trkpt lat="44.7715461" lon="11.9910472"><ele>-4.0</ele><time>2026-04-12T13:47:04.012Z</time></trkpt><trkpt lat="44.7714901" lon="11.9911588"><ele>-4.0</ele><time>2026-04-12T13:47:06.012Z</time></trkpt><trkpt lat="44.7714428" lon="11.9912662"><ele>-3.8000000000000003</ele><time>2026-04-12T13:47:08.012Z</time></trkpt><trkpt lat="44.7714271" lon="11.991383"><ele>-3.6000000000000005</ele><time>2026-04-12T13:47:10.012Z</time></trkpt><trkpt lat="44.7714589" lon="11.991498"><ele>-3.4</ele><time>2026-04-12T13:47:12.013Z</time></trkpt><trkpt lat="44.7714949" lon="11.9916334"><ele>-3.2</ele><time>2026-04-12T13:47:14.013Z</time></trkpt><trkpt lat="44.7714826" lon="11.9917668"><ele>-3.0</ele><time>2026-04-12T13:47:16.013Z</time></trkpt><trkpt lat="44.7714346" lon="11.9919076"><ele>-2.8333333333333335</ele><time>2026-04-12T13:47:18.013Z</time></trkpt><trkpt lat="44.7713988" lon="11.9919971"><ele>-2.6666666666666665</ele><time>2026-04-12T13:47:19.012Z</time></trkpt><trkpt lat="44.7713633" lon="11.9920919"><ele>-2.5</ele><time>2026-04-12T13:47:20.012Z</time></trkpt><trkpt lat="44.7713312" lon="11.9921797"><ele>-2.333333333333333</ele><time>2026-04-12T13:47:21.014Z</time></trkpt><trkpt lat="44.7712811" lon="11.9923213"><ele>-2.1666666666666665</ele><time>2026-04-12T13:47:23.012Z</time></trkpt><trkpt lat="44.7712506" lon="11.9924154"><ele>-2.0</ele><time>2026-04-12T13:47:25.012Z</time></trkpt><trkpt lat="44.7712943" lon="11.9925178"><ele>-2.0</ele><time>2026-04-12T13:47:29.012Z</time></trkpt><trkpt lat="44.7713592" lon="11.9925471"><ele>-2.0</ele><time>2026-04-12T13:47:30.013Z</time></trkpt><trkpt lat="44.7714371" lon="11.9925819"><ele>-2.0</ele><time>2026-04-12T13:47:31.013Z</time></trkpt><trkpt lat="44.7715245" lon="11.9926257"><ele>-2.0</ele><time>2026-04-12T13:47:32.012Z</time></trkpt><trkpt lat="44.7716233" lon="11.9926754"><ele>-2.0</ele><time>2026-04-12T13:47:33.012Z</time></trkpt><trkpt lat="44.7717348" lon="11.9927311"><ele>-2.0</ele><time>2026-04-12T13:47:34.012Z</time></trkpt><trkpt lat="44.7718527" lon="11.9927888"><ele>-2.0</ele><time>2026-04-12T13:47:35.012Z</time></trkpt><trkpt lat="44.7719751" lon="11.9928487"><ele>-2.0</ele><time>2026-04-12T13:47:36.013Z</time></trkpt><trkpt lat="44.772093" lon="11.9929086"><ele>-2.0</ele><time>2026-04-12T13:47:37.013Z</time></trkpt><trkpt lat="44.7722061" lon="11.9929605"><ele>-2.0</ele><time>2026-04-12T13:47:38.014Z</time></trkpt><trkpt lat="44.7723069" lon="11.9930107"><ele>-2.0</ele><time>2026-04-12T13:47:39.012Z</time></trkpt><trkpt lat="44.7724008" lon="11.9930552"><ele>-2.0</ele><time>2026-04-12T13:47:40.012Z</time></trkpt><trkpt lat="44.7724776" lon="11.9930955"><ele>-2.0</ele><time>2026-04-12T13:47:41.012Z</time></trkpt><trkpt lat="44.7725542" lon="11.9931692"><ele>-2.0</ele><time>2026-04-12T13:47:43.012Z</time></trkpt><trkpt lat="44.7725566" lon="11.9932896"><ele>-2.0</ele><time>2026-04-12T13:47:45.012Z</time></trkpt><trkpt lat="44.7725385" lon="11.9934828"><ele>-2.0</ele><time>2026-04-12T13:47:47.012Z</time></trkpt><trkpt lat="44.7725326" lon="11.9936078"><ele>-2.0</ele><time>2026-04-12T13:47:48.013Z</time></trkpt><trkpt lat="44.7725252" lon="11.9937506"><ele>-2.0</ele><time>2026-04-12T13:47:49.013Z</time></trkpt><trkpt lat="44.7725197" lon="11.9938987"><ele>-2.0</ele><time>2026-04-12T13:47:50.012Z</time></trkpt><trkpt lat="44.7725143" lon="11.9940445"><ele>-2.2</ele><time>2026-04-12T13:47:51.013Z</time></trkpt><trkpt lat="44.7725079" lon="11.9941949"><ele>-2.4000000000000004</ele><time>2026-04-12T13:47:52.013Z</time></trkpt><trkpt lat="44.7725019" lon="11.9943417"><ele>-2.5999999999999996</ele><time>2026-04-12T13:47:53.012Z</time></trkpt><trkpt lat="44.772495" lon="11.9944809"><ele>-2.8</ele><time>2026-04-12T13:47:54.012Z</time></trkpt><trkpt lat="44.7724876" lon="11.9946226"><ele>-3.0</ele><time>2026-04-12T13:47:55.012Z</time></trkpt><trkpt lat="44.7724835" lon="11.9947667"><ele>-3.0</ele><time>2026-04-12T13:47:56.012Z</time></trkpt><trkpt lat="44.7724773" lon="11.9949091"><ele>-3.0</ele><time>2026-04-12T13:47:57.012Z</time></trkpt><trkpt lat="44.7724702" lon="11.9950479"><ele>-3.0</ele><time>2026-04-12T13:47:58.013Z</time></trkpt><trkpt lat="44.772464" lon="11.9951887"><ele>-3.0</ele><time>2026-04-12T13:47:59.012Z</time></trkpt><trkpt lat="44.7724574" lon="11.9953216"><ele>-3.0</ele><time>2026-04-12T13:48:00.013Z</time></trkpt><trkpt lat="44.7724499" lon="11.9954481"><ele>-2.6666666666666665</ele><time>2026-04-12T13:48:01.013Z</time></trkpt><trkpt lat="44.7724436" lon="11.9955734"><ele>-2.3333333333333335</ele><time>2026-04-12T13:48:02.012Z</time></trkpt><trkpt lat="44.772437" lon="11.9957024"><ele>-2.0</ele><time>2026-04-12T13:48:03.014Z</time></trkpt><trkpt lat="44.7724319" lon="11.9958293"><ele>-1.6666666666666665</ele><time>2026-04-12T13:48:04.013Z</time></trkpt><trkpt lat="44.7724261" lon="11.9959464"><ele>-1.3333333333333333</ele><time>2026-04-12T13:48:05.013Z</time></trkpt><trkpt lat="44.77242" lon="11.9960567"><ele>-1.0</ele><time>2026-04-12T13:48:06.013Z</time></trkpt><trkpt lat="44.7724151" lon="11.9961665"><ele>-0.9999999999999999</ele><time>2026-04-12T13:48:07.013Z</time></trkpt><trkpt lat="44.7724091" lon="11.9962732"><ele>-1.0</ele><time>2026-04-12T13:48:08.012Z</time></trkpt><trkpt lat="44.7724029" lon="11.9963788"><ele>-1.0</ele><time>2026-04-12T13:48:09.013Z</time></trkpt><trkpt lat="44.7723999" lon="11.9964829"><ele>-1.0</ele><time>2026-04-12T13:48:10.012Z</time></trkpt><trkpt lat="44.7723995" lon="11.9965823"><ele>-0.9999999999999999</ele><time>2026-04-12T13:48:11.012Z</time></trkpt><trkpt lat="44.7724089" lon="11.9967457"><ele>-1.0</ele><time>2026-04-12T13:48:13.012Z</time></trkpt><trkpt lat="44.7724576" lon="11.9968298"><ele>-0.9999999999999999</ele><time>2026-04-12T13:48:15.013Z</time></trkpt><trkpt lat="44.7725223" lon="11.9968687"><ele>-1.0</ele><time>2026-04-12T13:48:17.013Z</time></trkpt><trkpt lat="44.7725965" lon="11.9968544"><ele>-1.0</ele><time>2026-04-12T13:48:45.012Z</time></trkpt><trkpt lat="44.7726661" lon="11.9968491"><ele>-1.0</ele><time>2026-04-12T13:48:47.012Z</time></trkpt><trkpt lat="44.7727725" lon="11.9968586"><ele>-0.9999999999999999</ele><time>2026-04-12T13:48:49.013Z</time></trkpt><trkpt lat="44.7728688" lon="11.9969134"><ele>-1.0</ele><time>2026-04-12T13:48:51.012Z</time></trkpt><trkpt lat="44.7729276" lon="11.9970759"><ele>-1.0</ele><time>2026-04-12T13:48:53.013Z</time></trkpt><trkpt lat="44.7729433" lon="11.9971795"><ele>-1.0</ele><time>2026-04-12T13:48:54.012Z</time></trkpt><trkpt lat="44.7729551" lon="11.997295"><ele>-1.0</ele><time>2026-04-12T13:48:55.013Z</time></trkpt><trkpt lat="44.7729668" lon="11.9974254"><ele>-1.0</ele><time>2026-04-12T13:48:56.013Z</time></trkpt><trkpt lat="44.7729821" lon="11.9975625"><ele>-1.0</ele><time>2026-04-12T13:48:57.012Z</time></trkpt><trkpt lat="44.7729979" lon="11.997702"><ele>-1.1666666666666665</ele><time>2026-04-12T13:48:58.012Z</time></trkpt><trkpt lat="44.7730122" lon="11.9978246"><ele>-1.3333333333333333</ele><time>2026-04-12T13:48:59.013Z</time></trkpt><trkpt lat="44.7730236" lon="11.9979348"><ele>-1.5</ele><time>2026-04-12T13:49:00.012Z</time></trkpt><trkpt lat="44.7730332" lon="11.9980291"><ele>-1.6666666666666665</ele><time>2026-04-12T13:49:01.014Z</time></trkpt><trkpt lat="44.7730416" lon="11.9981674"><ele>-1.8333333333333333</ele><time>2026-04-12T13:49:03.012Z</time></trkpt><trkpt lat="44.7729837" lon="11.9982878"><ele>-2.0</ele><time>2026-04-12T13:49:05.013Z</time></trkpt><trkpt lat="44.772918" lon="11.9983581"><ele>-2.25</ele><time>2026-04-12T13:49:06.012Z</time></trkpt><trkpt lat="44.7728325" lon="11.9984507"><ele>-2.5</ele><time>2026-04-12T13:49:07.012Z</time></trkpt><trkpt lat="44.7727337" lon="11.9985547"><ele>-2.75</ele><time>2026-04-12T13:49:08.012Z</time></trkpt><trkpt lat="44.7726269" lon="11.9986679"><ele>-3.0</ele><time>2026-04-12T13:49:09.013Z</time></trkpt><trkpt lat="44.7725138" lon="11.998788"><ele>-3.0</ele><time>2026-04-12T13:49:10.012Z</time></trkpt><trkpt lat="44.772396" lon="11.9989157"><ele>-3.0</ele><time>2026-04-12T13:49:11.013Z</time></trkpt><trkpt lat="44.7722738" lon="11.9990478"><ele>-3.0</ele><time>2026-04-12T13:49:12.012Z</time></trkpt><trkpt lat="44.7721461" lon="11.999184"><ele>-3.0</ele><time>2026-04-12T13:49:13.012Z</time></trkpt><trkpt lat="44.7720141" lon="11.999324"><ele>-3.0</ele><time>2026-04-12T13:49:14.014Z</time></trkpt><trkpt lat="44.7718792" lon="11.9994687"><ele>-3.0</ele><time>2026-04-12T13:49:15.012Z</time></trkpt><trkpt lat="44.7717426" lon="11.999617"><ele>-2.3333333333333335</ele><time>2026-04-12T13:49:16.012Z</time></trkpt><trkpt lat="44.7716077" lon="11.9997648"><ele>-1.6666666666666665</ele><time>2026-04-12T13:49:17.013Z</time></trkpt><trkpt lat="44.7714786" lon="11.9999017"><ele>-1.0</ele><time>2026-04-12T13:49:18.012Z</time></trkpt><trkpt lat="44.7713628" lon="12.0000239"><ele>-1.0</ele><time>2026-04-12T13:49:19.012Z</time></trkpt><trkpt lat="44.7712598" lon="12.0001326"><ele>-1.0</ele><time>2026-04-12T13:49:20.013Z</time></trkpt><trkpt lat="44.771174" lon="12.0002268"><ele>-1.0</ele><time>2026-04-12T13:49:21.013Z</time></trkpt><trkpt lat="44.7711122" lon="12.0003115"><ele>-1.0</ele><time>2026-04-12T13:49:22.012Z</time></trkpt><trkpt lat="44.7710756" lon="12.0003991"><ele>-1.0</ele><time>2026-04-12T13:49:23.012Z</time></trkpt><trkpt lat="44.7710615" lon="12.0005001"><ele>-1.0</ele><time>2026-04-12T13:49:24.013Z</time></trkpt><trkpt lat="44.7710638" lon="12.0006319"><ele>-1.0</ele><time>2026-04-12T13:49:25.012Z</time></trkpt><trkpt lat="44.771079" lon="12.0007875"><ele>-1.0</ele><time>2026-04-12T13:49:26.013Z</time></trkpt><trkpt lat="44.771101" lon="12.000956"><ele>-1.0</ele><time>2026-04-12T13:49:27.012Z</time></trkpt><trkpt lat="44.771123" lon="12.0011322"><ele>-0.8</ele><time>2026-04-12T13:49:28.012Z</time></trkpt><trkpt lat="44.7711465" lon="12.0013097"><ele>-0.6000000000000001</ele><time>2026-04-12T13:49:29.012Z</time></trkpt><trkpt lat="44.77117" lon="12.0014759"><ele>-0.4</ele><time>2026-04-12T13:49:30.013Z</time></trkpt><trkpt lat="44.7711889" lon="12.0016234"><ele>-0.2</ele><time>2026-04-12T13:49:31.013Z</time></trkpt><trkpt lat="44.7712034" lon="12.001741"><ele>0.0</ele><time>2026-04-12T13:49:32.012Z</time></trkpt><trkpt lat="44.7712143" lon="12.001829"><ele>0.16666666666666666</ele><time>2026-04-12T13:49:33.012Z</time></trkpt><trkpt lat="44.7711974" lon="12.0019281"><ele>0.3333333333333333</ele><time>2026-04-12T13:49:35.014Z</time></trkpt><trkpt lat="44.7711173" lon="12.0019412"><ele>0.5</ele><time>2026-04-12T13:49:38.012Z</time></trkpt><trkpt lat="44.7710571" lon="12.0019067"><ele>0.6666666666666666</ele><time>2026-04-12T13:49:39.014Z</time></trkpt><trkpt lat="44.7709791" lon="12.0018576"><ele>0.8333333333333333</ele><time>2026-04-12T13:49:40.013Z</time></trkpt><trkpt lat="44.7708897" lon="12.0018018"><ele>1.0</ele><time>2026-04-12T13:49:41.013Z</time></trkpt><trkpt lat="44.7707905" lon="12.0017396"><ele>0.0</ele><time>2026-04-12T13:49:42.013Z</time></trkpt><trkpt lat="44.7706816" lon="12.0016696"><ele>-1.0</ele><time>2026-04-12T13:49:43.014Z</time></trkpt><trkpt lat="44.7705645" lon="12.0015948"><ele>-2.0</ele><time>2026-04-12T13:49:44.012Z</time></trkpt><trkpt lat="44.7704386" lon="12.0015144"><ele>-3.0</ele><time>2026-04-12T13:49:45.012Z</time></trkpt><trkpt lat="44.7703054" lon="12.0014303"><ele>-3.333333333333333</ele><time>2026-04-12T13:49:46.012Z</time></trkpt><trkpt lat="44.7701658" lon="12.0013436"><ele>-3.6666666666666665</ele><time>2026-04-12T13:49:47.012Z</time></trkpt><trkpt lat="44.7700216" lon="12.0012535"><ele>-4.0</ele><time>2026-04-12T13:49:48.012Z</time></trkpt><trkpt lat="44.769875" lon="12.0011595"><ele>-4.0</ele><time>2026-04-12T13:49:49.013Z</time></trkpt><trkpt lat="44.7697275" lon="12.0010649"><ele>-4.0</ele><time>2026-04-12T13:49:50.012Z</time></trkpt><trkpt lat="44.7695782" lon="12.0009681"><ele>-4.0</ele><time>2026-04-12T13:49:51.012Z</time></trkpt><trkpt lat="44.7694277" lon="12.0008725"><ele>-4.0</ele><time>2026-04-12T13:49:52.013Z</time></trkpt><trkpt lat="44.769276" lon="12.0007781"><ele>-4.0</ele><time>2026-04-12T13:49:53.013Z</time></trkpt><trkpt lat="44.7691257" lon="12.0006853"><ele>-4.0</ele><time>2026-04-12T13:49:54.012Z</time></trkpt><trkpt lat="44.7689842" lon="12.0005967"><ele>-4.0</ele><time>2026-04-12T13:49:55.013Z</time></trkpt><trkpt lat="44.7688583" lon="12.0005165"><ele>-4.0</ele><time>2026-04-12T13:49:56.012Z</time></trkpt><trkpt lat="44.7687538" lon="12.0004502"><ele>-4.0</ele><time>2026-04-12T13:49:57.013Z</time></trkpt><trkpt lat="44.7686684" lon="12.0003965"><ele>-4.0</ele><time>2026-04-12T13:49:58.014Z</time></trkpt><trkpt lat="44.7685971" lon="12.0003497"><ele>-4.0</ele><time>2026-04-12T13:49:59.013Z</time></trkpt><trkpt lat="44.7685339" lon="12.0003149"><ele>-4.0</ele><time>2026-04-12T13:50:00.013Z</time></trkpt><trkpt lat="44.7684446" lon="12.0003257"><ele>-4.0</ele><time>2026-04-12T13:50:02.012Z</time></trkpt><trkpt lat="44.768387" lon="12.0004776"><ele>-4.0</ele><time>2026-04-12T13:50:04.012Z</time></trkpt><trkpt lat="44.7683562" lon="12.0006094"><ele>-4.0</ele><time>2026-04-12T13:50:05.012Z</time></trkpt><trkpt lat="44.7683245" lon="12.0007646"><ele>-4.0</ele><time>2026-04-12T13:50:06.012Z</time></trkpt><trkpt lat="44.7682909" lon="12.0009327"><ele>-4.0</ele><time>2026-04-12T13:50:07.012Z</time></trkpt><trkpt lat="44.768246" lon="12.0011216"><ele>-4.0</ele><time>2026-04-12T13:50:08.013Z</time></trkpt><trkpt lat="44.7682074" lon="12.0013017"><ele>-4.0</ele><time>2026-04-12T13:50:09.012Z</time></trkpt><trkpt lat="44.7681676" lon="12.0014937"><ele>-4.0</ele><time>2026-04-12T13:50:10.013Z</time></trkpt><trkpt lat="44.7681299" lon="12.0016943"><ele>-3.6666666666666665</ele><time>2026-04-12T13:50:11.013Z</time></trkpt><trkpt lat="44.768091" lon="12.0019026"><ele>-3.333333333333333</ele><time>2026-04-12T13:50:12.012Z</time></trkpt><trkpt lat="44.768048" lon="12.0021153"><ele>-3.0</ele><time>2026-04-12T13:50:13.013Z</time></trkpt><trkpt lat="44.7680032" lon="12.002335"><ele>-3.0</ele><time>2026-04-12T13:50:14.013Z</time></trkpt><trkpt lat="44.7679584" lon="12.0025605"><ele>-3.0</ele><time>2026-04-12T13:50:15.013Z</time></trkpt><trkpt lat="44.7679096" lon="12.0027877"><ele>-3.0</ele><time>2026-04-12T13:50:16.013Z</time></trkpt><trkpt lat="44.7678602" lon="12.003016"><ele>-3.0</ele><time>2026-04-12T13:50:17.013Z</time></trkpt><trkpt lat="44.767815" lon="12.0032415"><ele>-3.0</ele><time>2026-04-12T13:50:18.013Z</time></trkpt><trkpt lat="44.7677694" lon="12.0034732"><ele>-3.0</ele><time>2026-04-12T13:50:19.012Z</time></trkpt><trkpt lat="44.7677223" lon="12.0037046"><ele>-3.0</ele><time>2026-04-12T13:50:20.013Z</time></trkpt><trkpt lat="44.7676747" lon="12.0039386"><ele>-3.0</ele><time>2026-04-12T13:50:21.013Z</time></trkpt><trkpt lat="44.7676263" lon="12.0041732"><ele>-3.0</ele><time>2026-04-12T13:50:22.012Z</time></trkpt><trkpt lat="44.7675779" lon="12.0044091"><ele>-3.0</ele><time>2026-04-12T13:50:23.012Z</time></trkpt><trkpt lat="44.7675289" lon="12.0046467"><ele>-3.0</ele><time>2026-04-12T13:50:24.013Z</time></trkpt><trkpt lat="44.7674785" lon="12.0048868"><ele>-3.0</ele><time>2026-04-12T13:50:25.014Z</time></trkpt><trkpt lat="44.7674297" lon="12.0051268"><ele>-3.0</ele><time>2026-04-12T13:50:26.012Z</time></trkpt><trkpt lat="44.7673803" lon="12.0053727"><ele>-3.0</ele><time>2026-04-12T13:50:27.012Z</time></trkpt><trkpt lat="44.7673305" lon="12.0056211"><ele>-3.0</ele><time>2026-04-12T13:50:28.013Z</time></trkpt><trkpt lat="44.7672791" lon="12.0058737"><ele>-3.0</ele><time>2026-04-12T13:50:29.013Z</time></trkpt><trkpt lat="44.767226" lon="12.0061294"><ele>-3.0</ele><time>2026-04-12T13:50:30.013Z</time></trkpt><trkpt lat="44.7671714" lon="12.0063867"><ele>-3.0</ele><time>2026-04-12T13:50:31.013Z</time></trkpt><trkpt lat="44.7671213" lon="12.0066449"><ele>-3.0</ele><time>2026-04-12T13:50:32.013Z</time></trkpt><trkpt lat="44.7670692" lon="12.0069032"><ele>-3.0</ele><time>2026-04-12T13:50:33.013Z</time></trkpt><trkpt lat="44.7670148" lon="12.007163"><ele>-3.0</ele><time>2026-04-12T13:50:34.013Z</time></trkpt><trkpt lat="44.7669603" lon="12.007429"><ele>-3.0</ele><time>2026-04-12T13:50:35.013Z</time></trkpt><trkpt lat="44.7669062" lon="12.0076941"><ele>-3.0</ele><time>2026-04-12T13:50:36.012Z</time></trkpt><trkpt lat="44.7668504" lon="12.0079584"><ele>-3.0</ele><time>2026-04-12T13:50:37.013Z</time></trkpt><trkpt lat="44.7667954" lon="12.0082233"><ele>-3.0</ele><time>2026-04-12T13:50:38.013Z</time></trkpt><trkpt lat="44.7667425" lon="12.0084883"><ele>-3.0</ele><time>2026-04-12T13:50:39.012Z</time></trkpt><trkpt lat="44.7666903" lon="12.0087515"><ele>-3.0</ele><time>2026-04-12T13:50:40.012Z</time></trkpt><trkpt lat="44.7666393" lon="12.0090132"><ele>-3.333333333333333</ele><time>2026-04-12T13:50:41.014Z</time></trkpt><trkpt lat="44.7665875" lon="12.0092732"><ele>-3.6666666666666665</ele><time>2026-04-12T13:50:42.012Z</time></trkpt><trkpt lat="44.7665331" lon="12.0095323"><ele>-4.0</ele><time>2026-04-12T13:50:43.013Z</time></trkpt><trkpt lat="44.7664796" lon="12.0097905"><ele>-3.6666666666666665</ele><time>2026-04-12T13:50:44.014Z</time></trkpt><trkpt lat="44.7664314" lon="12.0100322"><ele>-3.333333333333333</ele><time>2026-04-12T13:50:45.013Z</time></trkpt><trkpt lat="44.7663855" lon="12.0102596"><ele>-3.0</ele><time>2026-04-12T13:50:46.012Z</time></trkpt><trkpt lat="44.7663403" lon="12.0104732"><ele>-3.0</ele><time>2026-04-12T13:50:47.013Z</time></trkpt><trkpt lat="44.7662967" lon="12.0106729"><ele>-3.0</ele><time>2026-04-12T13:50:48.013Z</time></trkpt><trkpt lat="44.7662577" lon="12.0108591"><ele>-3.0</ele><time>2026-04-12T13:50:49.012Z</time></trkpt><trkpt lat="44.7662239" lon="12.011024"><ele>-3.0</ele><time>2026-04-12T13:50:50.012Z</time></trkpt><trkpt lat="44.7661959" lon="12.0111628"><ele>-3.0</ele><time>2026-04-12T13:50:51.012Z</time></trkpt><trkpt lat="44.766172" lon="12.0112848"><ele>-3.0</ele><time>2026-04-12T13:50:52.012Z</time></trkpt><trkpt lat="44.7661531" lon="12.0113902"><ele>-3.0</ele><time>2026-04-12T13:50:53.013Z</time></trkpt><trkpt lat="44.7661161" lon="12.0115111"><ele>-3.0</ele><time>2026-04-12T13:50:55.013Z</time></trkpt><trkpt lat="44.766045" lon="12.0116473"><ele>-3.0</ele><time>2026-04-12T13:50:58.012Z</time></trkpt><trkpt lat="44.7660089" lon="12.0117339"><ele>-3.0</ele><time>2026-04-12T13:50:59.012Z</time></trkpt><trkpt lat="44.7659765" lon="12.0118425"><ele>-3.0</ele><time>2026-04-12T13:51:00.014Z</time></trkpt><trkpt lat="44.7659524" lon="12.0119806"><ele>-3.0</ele><time>2026-04-12T13:51:01.012Z</time></trkpt><trkpt lat="44.7659249" lon="12.0121532"><ele>-3.0</ele><time>2026-04-12T13:51:02.012Z</time></trkpt><trkpt lat="44.7658937" lon="12.0123371"><ele>-3.0</ele><time>2026-04-12T13:51:03.012Z</time></trkpt><trkpt lat="44.7658605" lon="12.0125395"><ele>-3.0</ele><time>2026-04-12T13:51:04.013Z</time></trkpt><trkpt lat="44.7658249" lon="12.0127548"><ele>-3.0</ele><time>2026-04-12T13:51:05.012Z</time></trkpt><trkpt lat="44.7657878" lon="12.0129772"><ele>-3.0</ele><time>2026-04-12T13:51:06.012Z</time></trkpt><trkpt lat="44.7657497" lon="12.0132101"><ele>-3.333333333333333</ele><time>2026-04-12T13:51:07.012Z</time></trkpt><trkpt lat="44.7657118" lon="12.0134492"><ele>-3.6666666666666665</ele><time>2026-04-12T13:51:08.013Z</time></trkpt><trkpt lat="44.7656721" lon="12.0136969"><ele>-4.0</ele><time>2026-04-12T13:51:09.012Z</time></trkpt><trkpt lat="44.7656304" lon="12.0139581"><ele>-3.6666666666666665</ele><time>2026-04-12T13:51:10.012Z</time></trkpt><trkpt lat="44.7655891" lon="12.0142139"><ele>-3.333333333333333</ele><time>2026-04-12T13:51:11.014Z</time></trkpt><trkpt lat="44.7655454" lon="12.0144842"><ele>-3.0</ele><time>2026-04-12T13:51:12.012Z</time></trkpt><trkpt lat="44.7655012" lon="12.0147654"><ele>-3.333333333333333</ele><time>2026-04-12T13:51:13.013Z</time></trkpt><trkpt lat="44.7654558" lon="12.0150444"><ele>-3.6666666666666665</ele><time>2026-04-12T13:51:14.012Z</time></trkpt><trkpt lat="44.7654083" lon="12.0153281"><ele>-4.0</ele><time>2026-04-12T13:51:15.012Z</time></trkpt><trkpt lat="44.7653579" lon="12.015634"><ele>-4.0</ele><time>2026-04-12T13:51:16.012Z</time></trkpt><trkpt lat="44.7653091" lon="12.0159312"><ele>-4.0</ele><time>2026-04-12T13:51:17.012Z</time></trkpt><trkpt lat="44.7652648" lon="12.0162011"><ele>-4.0</ele><time>2026-04-12T13:51:18.013Z</time></trkpt><trkpt lat="44.765224" lon="12.0164534"><ele>-3.6666666666666665</ele><time>2026-04-12T13:51:19.012Z</time></trkpt><trkpt lat="44.7651853" lon="12.0166907"><ele>-3.333333333333333</ele><time>2026-04-12T13:51:20.012Z</time></trkpt><trkpt lat="44.7651489" lon="12.016919"><ele>-3.0</ele><time>2026-04-12T13:51:21.012Z</time></trkpt><trkpt lat="44.7651114" lon="12.0171439"><ele>-3.0</ele><time>2026-04-12T13:51:22.013Z</time></trkpt><trkpt lat="44.7650769" lon="12.0173479"><ele>-3.0</ele><time>2026-04-12T13:51:23.012Z</time></trkpt><trkpt lat="44.7650476" lon="12.0175261"><ele>-3.0</ele><time>2026-04-12T13:51:24.012Z</time></trkpt><trkpt lat="44.7650222" lon="12.0176829"><ele>-3.0</ele><time>2026-04-12T13:51:25.013Z</time></trkpt><trkpt lat="44.7650012" lon="12.0178165"><ele>-3.2</ele><time>2026-04-12T13:51:26.012Z</time></trkpt><trkpt lat="44.7649862" lon="12.0179274"><ele>-3.4</ele><time>2026-04-12T13:51:27.013Z</time></trkpt><trkpt lat="44.7649369" lon="12.0180676"><ele>-3.6000000000000005</ele><time>2026-04-12T13:51:29.012Z</time></trkpt><trkpt lat="44.764852" lon="12.0180838"><ele>-3.8000000000000003</ele><time>2026-04-12T13:51:31.013Z</time></trkpt><trkpt lat="44.7647426" lon="12.0179645"><ele>-4.0</ele><time>2026-04-12T13:51:33.012Z</time></trkpt><trkpt lat="44.7646538" lon="12.0178405"><ele>-4.0</ele><time>2026-04-12T13:51:34.013Z</time></trkpt><trkpt lat="44.764539" lon="12.0176868"><ele>-4.0</ele><time>2026-04-12T13:51:35.012Z</time></trkpt><trkpt lat="44.7644144" lon="12.0175351"><ele>-4.0</ele><time>2026-04-12T13:51:36.012Z</time></trkpt><trkpt lat="44.764314" lon="12.0174128"><ele>-3.6666666666666665</ele><time>2026-04-12T13:51:37.012Z</time></trkpt><trkpt lat="44.7642344" lon="12.0173179"><ele>-3.333333333333333</ele><time>2026-04-12T13:51:38.012Z</time></trkpt><trkpt lat="44.7641678" lon="12.0172513"><ele>-3.0</ele><time>2026-04-12T13:51:39.013Z</time></trkpt><trkpt lat="44.7641072" lon="12.0172167"><ele>-2.6666666666666665</ele><time>2026-04-12T13:51:40.012Z</time></trkpt><trkpt lat="44.7640386" lon="12.0172108"><ele>-2.333333333333333</ele><time>2026-04-12T13:51:41.013Z</time></trkpt><trkpt lat="44.7639698" lon="12.0172371"><ele>-2.0</ele><time>2026-04-12T13:51:42.012Z</time></trkpt><trkpt lat="44.7639126" lon="12.0173005"><ele>-2.0</ele><time>2026-04-12T13:51:43.012Z</time></trkpt><trkpt lat="44.7638513" lon="12.0174024"><ele>-2.0</ele><time>2026-04-12T13:51:44.012Z</time></trkpt><trkpt lat="44.7637851" lon="12.0175404"><ele>-2.0</ele><time>2026-04-12T13:51:45.013Z</time></trkpt><trkpt lat="44.7637085" lon="12.0176911"><ele>-2.0</ele><time>2026-04-12T13:51:46.012Z</time></trkpt><trkpt lat="44.7636287" lon="12.0178312"><ele>-2.5</ele><time>2026-04-12T13:51:47.013Z</time></trkpt><trkpt lat="44.7635482" lon="12.0179457"><ele>-3.0</ele><time>2026-04-12T13:51:48.012Z</time></trkpt><trkpt lat="44.7634485" lon="12.0180448"><ele>-3.5</ele><time>2026-04-12T13:51:49.012Z</time></trkpt><trkpt lat="44.7633237" lon="12.0181378"><ele>-4.0</ele><time>2026-04-12T13:51:50.014Z</time></trkpt><trkpt lat="44.7631754" lon="12.0182399"><ele>-3.6666666666666665</ele><time>2026-04-12T13:51:51.012Z</time></trkpt><trkpt lat="44.7630083" lon="12.0183557"><ele>-3.333333333333333</ele><time>2026-04-12T13:51:52.013Z</time></trkpt><trkpt lat="44.7628288" lon="12.0184736"><ele>-3.0</ele><time>2026-04-12T13:51:53.013Z</time></trkpt><trkpt lat="44.7626539" lon="12.018586"><ele>-3.0</ele><time>2026-04-12T13:51:54.013Z</time></trkpt><trkpt lat="44.762492" lon="12.0186931"><ele>-3.0</ele><time>2026-04-12T13:51:55.013Z</time></trkpt><trkpt lat="44.762343" lon="12.0187937"><ele>-3.0</ele><time>2026-04-12T13:51:56.013Z</time></trkpt><trkpt lat="44.7622" lon="12.0188889"><ele>-3.0</ele><time>2026-04-12T13:51:57.013Z</time></trkpt><trkpt lat="44.7620616" lon="12.0189824"><ele>-3.0</ele><time>2026-04-12T13:51:58.012Z</time></trkpt><trkpt lat="44.7619295" lon="12.0190721"><ele>-3.0</ele><time>2026-04-12T13:51:59.012Z</time></trkpt><trkpt lat="44.7617956" lon="12.0191614"><ele>-3.0</ele><time>2026-04-12T13:52:00.012Z</time></trkpt><trkpt lat="44.7616587" lon="12.0192513"><ele>-2.6666666666666665</ele><time>2026-04-12T13:52:01.012Z</time></trkpt><trkpt lat="44.7615197" lon="12.0193425"><ele>-2.333333333333333</ele><time>2026-04-12T13:52:02.013Z</time></trkpt><trkpt lat="44.7613793" lon="12.0194332"><ele>-2.0</ele><time>2026-04-12T13:52:03.013Z</time></trkpt><trkpt lat="44.7612387" lon="12.0195268"><ele>-2.0</ele><time>2026-04-12T13:52:04.012Z</time></trkpt><trkpt lat="44.7610973" lon="12.0196234"><ele>-2.0</ele><time>2026-04-12T13:52:05.012Z</time></trkpt><trkpt lat="44.7609602" lon="12.0197165"><ele>-2.0</ele><time>2026-04-12T13:52:06.011Z</time></trkpt><trkpt lat="44.7608309" lon="12.0198039"><ele>-2.0</ele><time>2026-04-12T13:52:07.011Z</time></trkpt><trkpt lat="44.7606996" lon="12.0198901"><ele>-2.0</ele><time>2026-04-12T13:52:08.012Z</time></trkpt><trkpt lat="44.7605636" lon="12.0199782"><ele>-2.0</ele><time>2026-04-12T13:52:09.012Z</time></trkpt><trkpt lat="44.7604274" lon="12.0200689"><ele>-2.0</ele><time>2026-04-12T13:52:10.012Z</time></trkpt><trkpt lat="44.760288" lon="12.0201601"><ele>-2.6666666666666665</ele><time>2026-04-12T13:52:11.012Z</time></trkpt><trkpt lat="44.7601436" lon="12.0202529"><ele>-3.333333333333333</ele><time>2026-04-12T13:52:12.013Z</time></trkpt><trkpt lat="44.7599951" lon="12.0203496"><ele>-4.0</ele><time>2026-04-12T13:52:13.011Z</time></trkpt><trkpt lat="44.7598343" lon="12.0204578"><ele>-4.0</ele><time>2026-04-12T13:52:14.012Z</time></trkpt><trkpt lat="44.7596544" lon="12.0205759"><ele>-4.0</ele><time>2026-04-12T13:52:15.012Z</time></trkpt><trkpt lat="44.7594692" lon="12.0206952"><ele>-4.0</ele><time>2026-04-12T13:52:16.011Z</time></trkpt><trkpt lat="44.7592844" lon="12.0208151"><ele>-3.6666666666666665</ele><time>2026-04-12T13:52:17.012Z</time></trkpt><trkpt lat="44.7590989" lon="12.020937"><ele>-3.333333333333333</ele><time>2026-04-12T13:52:18.011Z</time></trkpt><trkpt lat="44.7589183" lon="12.0210583"><ele>-3.0</ele><time>2026-04-12T13:52:19.011Z</time></trkpt><trkpt lat="44.7587497" lon="12.0211716"><ele>-3.0</ele><time>2026-04-12T13:52:20.012Z</time></trkpt><trkpt lat="44.7585862" lon="12.0212813"><ele>-3.0</ele><time>2026-04-12T13:52:21.012Z</time></trkpt><trkpt lat="44.7584225" lon="12.0213886"><ele>-3.0</ele><time>2026-04-12T13:52:22.012Z</time></trkpt><trkpt lat="44.7582647" lon="12.021491"><ele>-3.25</ele><time>2026-04-12T13:52:23.013Z</time></trkpt><trkpt lat="44.7581262" lon="12.0215841"><ele>-3.5</ele><time>2026-04-12T13:52:24.011Z</time></trkpt><trkpt lat="44.7580124" lon="12.0216609"><ele>-3.75</ele><time>2026-04-12T13:52:25.012Z</time></trkpt><trkpt lat="44.7579214" lon="12.0217233"><ele>-4.0</ele><time>2026-04-12T13:52:26.012Z</time></trkpt><trkpt lat="44.7578406" lon="12.0217809"><ele>-4.0</ele><time>2026-04-12T13:52:27.012Z</time></trkpt><trkpt lat="44.7577678" lon="12.0218315"><ele>-4.0</ele><time>2026-04-12T13:52:28.011Z</time></trkpt><trkpt lat="44.7576631" lon="12.0218582"><ele>-4.0</ele><time>2026-04-12T13:52:30.012Z</time></trkpt><trkpt lat="44.7575971" lon="12.0217563"><ele>-4.0</ele><time>2026-04-12T13:52:32.011Z</time></trkpt><trkpt lat="44.7575661" lon="12.0216582"><ele>-4.0</ele><time>2026-04-12T13:52:33.011Z</time></trkpt><trkpt lat="44.7575303" lon="12.0215294"><ele>-4.5</ele><time>2026-04-12T13:52:34.012Z</time></trkpt><trkpt lat="44.757481" lon="12.0213791"><ele>-5.0</ele><time>2026-04-12T13:52:35.011Z</time></trkpt><trkpt lat="44.7574265" lon="12.0212133"><ele>-5.5</ele><time>2026-04-12T13:52:36.012Z</time></trkpt><trkpt lat="44.7573692" lon="12.0210325"><ele>-6.0</ele><time>2026-04-12T13:52:37.011Z</time></trkpt><trkpt lat="44.7573076" lon="12.0208389"><ele>-5.666666666666667</ele><time>2026-04-12T13:52:38.012Z</time></trkpt><trkpt lat="44.7572414" lon="12.0206351"><ele>-5.333333333333334</ele><time>2026-04-12T13:52:39.013Z</time></trkpt><trkpt lat="44.7571717" lon="12.0204255"><ele>-5.0</ele><time>2026-04-12T13:52:40.011Z</time></trkpt><trkpt lat="44.757101" lon="12.0202123"><ele>-5.0</ele><time>2026-04-12T13:52:41.011Z</time></trkpt><trkpt lat="44.7570327" lon="12.0199953"><ele>-5.0</ele><time>2026-04-12T13:52:42.011Z</time></trkpt><trkpt lat="44.7569605" lon="12.019777"><ele>-5.0</ele><time>2026-04-12T13:52:43.012Z</time></trkpt><trkpt lat="44.756887" lon="12.0195555"><ele>-5.0</ele><time>2026-04-12T13:52:44.013Z</time></trkpt><trkpt lat="44.756814" lon="12.0193341"><ele>-5.0</ele><time>2026-04-12T13:52:45.011Z</time></trkpt><trkpt lat="44.7567401" lon="12.0191202"><ele>-5.0</ele><time>2026-04-12T13:52:46.011Z</time></trkpt><trkpt lat="44.7566669" lon="12.0189086"><ele>-4.333333333333334</ele><time>2026-04-12T13:52:47.012Z</time></trkpt><trkpt lat="44.7565945" lon="12.0186915"><ele>-3.666666666666667</ele><time>2026-04-12T13:52:48.012Z</time></trkpt><trkpt lat="44.7565212" lon="12.0184734"><ele>-3.0</ele><time>2026-04-12T13:52:49.012Z</time></trkpt><trkpt lat="44.7564506" lon="12.0182653"><ele>-3.0</ele><time>2026-04-12T13:52:50.012Z</time></trkpt><trkpt lat="44.7563851" lon="12.0180705"><ele>-3.0</ele><time>2026-04-12T13:52:51.011Z</time></trkpt><trkpt lat="44.7563193" lon="12.0178726"><ele>-3.0</ele><time>2026-04-12T13:52:52.012Z</time></trkpt><trkpt lat="44.7562515" lon="12.0176716"><ele>-3.0</ele><time>2026-04-12T13:52:53.012Z</time></trkpt><trkpt lat="44.7561813" lon="12.0174691"><ele>-3.0</ele><time>2026-04-12T13:52:54.012Z</time></trkpt><trkpt lat="44.756112" lon="12.0172615"><ele>-3.0</ele><time>2026-04-12T13:52:55.012Z</time></trkpt><trkpt lat="44.7560423" lon="12.0170547"><ele>-3.0</ele><time>2026-04-12T13:52:56.012Z</time></trkpt><trkpt lat="44.7559758" lon="12.0168552"><ele>-3.0</ele><time>2026-04-12T13:52:57.012Z</time></trkpt><trkpt lat="44.75591" lon="12.0166569"><ele>-3.0</ele><time>2026-04-12T13:52:58.012Z</time></trkpt><trkpt lat="44.7558425" lon="12.0164598"><ele>-2.6666666666666665</ele><time>2026-04-12T13:52:59.012Z</time></trkpt><trkpt lat="44.7557765" lon="12.0162649"><ele>-2.333333333333333</ele><time>2026-04-12T13:53:00.012Z</time></trkpt><trkpt lat="44.7557094" lon="12.0160637"><ele>-2.0</ele><time>2026-04-12T13:53:01.012Z</time></trkpt><trkpt lat="44.7556404" lon="12.0158579"><ele>-2.0</ele><time>2026-04-12T13:53:02.011Z</time></trkpt><trkpt lat="44.7555705" lon="12.015647"><ele>-2.0</ele><time>2026-04-12T13:53:03.011Z</time></trkpt><trkpt lat="44.7554992" lon="12.0154297"><ele>-2.0</ele><time>2026-04-12T13:53:04.012Z</time></trkpt><trkpt lat="44.7554233" lon="12.0152065"><ele>-2.6666666666666665</ele><time>2026-04-12T13:53:05.011Z</time></trkpt><trkpt lat="44.7553455" lon="12.0149763"><ele>-3.333333333333333</ele><time>2026-04-12T13:53:06.012Z</time></trkpt><trkpt lat="44.7552755" lon="12.0147661"><ele>-4.0</ele><time>2026-04-12T13:53:07.011Z</time></trkpt><trkpt lat="44.7552146" lon="12.0145826"><ele>-4.0</ele><time>2026-04-12T13:53:08.011Z</time></trkpt><trkpt lat="44.7551581" lon="12.0144102"><ele>-4.0</ele><time>2026-04-12T13:53:09.012Z</time></trkpt><trkpt lat="44.7551025" lon="12.0142517"><ele>-4.0</ele><time>2026-04-12T13:53:10.011Z</time></trkpt><trkpt lat="44.7550549" lon="12.0141213"><ele>-4.0</ele><time>2026-04-12T13:53:11.012Z</time></trkpt><trkpt lat="44.7550175" lon="12.0140215"><ele>-4.0</ele><time>2026-04-12T13:53:12.013Z</time></trkpt><trkpt lat="44.7549841" lon="12.0139376"><ele>-4.0</ele><time>2026-04-12T13:53:13.011Z</time></trkpt><trkpt lat="44.7549024" lon="12.0138321"><ele>-4.0</ele><time>2026-04-12T13:53:15.011Z</time></trkpt><trkpt lat="44.7547701" lon="12.0138513"><ele>-4.0</ele><time>2026-04-12T13:53:17.011Z</time></trkpt><trkpt lat="44.754679" lon="12.0139122"><ele>-4.0</ele><time>2026-04-12T13:53:18.012Z</time></trkpt><trkpt lat="44.7545594" lon="12.013991"><ele>-4.0</ele><time>2026-04-12T13:53:19.011Z</time></trkpt><trkpt lat="44.7544006" lon="12.0140955"><ele>-4.0</ele><time>2026-04-12T13:53:20.011Z</time></trkpt><trkpt lat="44.7542045" lon="12.0142251"><ele>-4.0</ele><time>2026-04-12T13:53:21.012Z</time></trkpt><trkpt lat="44.7539885" lon="12.0143674"><ele>-3.6666666666666665</ele><time>2026-04-12T13:53:22.012Z</time></trkpt><trkpt lat="44.7537942" lon="12.0144928"><ele>-3.333333333333333</ele><time>2026-04-12T13:53:23.011Z</time></trkpt><trkpt lat="44.7536218" lon="12.0146053"><ele>-3.0</ele><time>2026-04-12T13:53:24.012Z</time></trkpt><trkpt lat="44.7534606" lon="12.0147096"><ele>-3.0</ele><time>2026-04-12T13:53:25.012Z</time></trkpt><trkpt lat="44.7532988" lon="12.0148128"><ele>-3.0</ele><time>2026-04-12T13:53:26.012Z</time></trkpt><trkpt lat="44.7531293" lon="12.0149255"><ele>-3.0</ele><time>2026-04-12T13:53:27.012Z</time></trkpt><trkpt lat="44.7529597" lon="12.0150387"><ele>-2.6666666666666665</ele><time>2026-04-12T13:53:28.011Z</time></trkpt><trkpt lat="44.7527892" lon="12.0151513"><ele>-2.333333333333333</ele><time>2026-04-12T13:53:29.012Z</time></trkpt><trkpt lat="44.7526214" lon="12.0152642"><ele>-2.0</ele><time>2026-04-12T13:53:30.012Z</time></trkpt><trkpt lat="44.75246" lon="12.0153714"><ele>-2.6666666666666665</ele><time>2026-04-12T13:53:31.011Z</time></trkpt><trkpt lat="44.752299" lon="12.0154779"><ele>-3.333333333333333</ele><time>2026-04-12T13:53:32.011Z</time></trkpt><trkpt lat="44.7521319" lon="12.0155882"><ele>-4.0</ele><time>2026-04-12T13:53:33.012Z</time></trkpt><trkpt lat="44.7519578" lon="12.0157052"><ele>-4.0</ele><time>2026-04-12T13:53:34.011Z</time></trkpt><trkpt lat="44.7517774" lon="12.0158272"><ele>-4.0</ele><time>2026-04-12T13:53:35.011Z</time></trkpt><trkpt lat="44.7515884" lon="12.0159509"><ele>-4.0</ele><time>2026-04-12T13:53:36.011Z</time></trkpt><trkpt lat="44.7513966" lon="12.0160746"><ele>-4.0</ele><time>2026-04-12T13:53:37.012Z</time></trkpt><trkpt lat="44.7512044" lon="12.0162011"><ele>-4.0</ele><time>2026-04-12T13:53:38.011Z</time></trkpt><trkpt lat="44.7510123" lon="12.0163311"><ele>-4.0</ele><time>2026-04-12T13:53:39.012Z</time></trkpt><trkpt lat="44.7508238" lon="12.0164581"><ele>-4.0</ele><time>2026-04-12T13:53:40.012Z</time></trkpt><trkpt lat="44.7506383" lon="12.0165804"><ele>-4.0</ele><time>2026-04-12T13:53:41.011Z</time></trkpt><trkpt lat="44.7504508" lon="12.0167024"><ele>-4.0</ele><time>2026-04-12T13:53:42.011Z</time></trkpt><trkpt lat="44.7502598" lon="12.0168272"><ele>-3.6666666666666665</ele><time>2026-04-12T13:53:43.011Z</time></trkpt><trkpt lat="44.7500671" lon="12.0169545"><ele>-3.333333333333333</ele><time>2026-04-12T13:53:44.012Z</time></trkpt><trkpt lat="44.7498738" lon="12.0170845"><ele>-3.0</ele><time>2026-04-12T13:53:45.012Z</time></trkpt><trkpt lat="44.7496761" lon="12.017216"><ele>-3.0</ele><time>2026-04-12T13:53:46.012Z</time></trkpt><trkpt lat="44.7494744" lon="12.0173486"><ele>-3.0</ele><time>2026-04-12T13:53:47.011Z</time></trkpt><trkpt lat="44.7492707" lon="12.0174795"><ele>-3.0</ele><time>2026-04-12T13:53:48.011Z</time></trkpt><trkpt lat="44.7490662" lon="12.0176127"><ele>-4.0</ele><time>2026-04-12T13:53:49.012Z</time></trkpt><trkpt lat="44.74886" lon="12.0177501"><ele>-5.0</ele><time>2026-04-12T13:53:50.011Z</time></trkpt><trkpt lat="44.7486512" lon="12.0178889"><ele>-5.0</ele><time>2026-04-12T13:53:51.011Z</time></trkpt><trkpt lat="44.7484515" lon="12.0180191"><ele>-5.0</ele><time>2026-04-12T13:53:52.011Z</time></trkpt><trkpt lat="44.7482676" lon="12.0181342"><ele>-5.0</ele><time>2026-04-12T13:53:53.011Z</time></trkpt><trkpt lat="44.7480908" lon="12.0182472"><ele>-5.0</ele><time>2026-04-12T13:53:54.011Z</time></trkpt><trkpt lat="44.7479165" lon="12.0183659"><ele>-5.0</ele><time>2026-04-12T13:53:55.011Z</time></trkpt><trkpt lat="44.7477439" lon="12.0184824"><ele>-5.0</ele><time>2026-04-12T13:53:56.011Z</time></trkpt><trkpt lat="44.747573" lon="12.0186001"><ele>-5.0</ele><time>2026-04-12T13:53:57.013Z</time></trkpt><trkpt lat="44.747408" lon="12.0187149"><ele>-5.0</ele><time>2026-04-12T13:53:58.011Z</time></trkpt><trkpt lat="44.7472557" lon="12.01882"><ele>-5.0</ele><time>2026-04-12T13:53:59.011Z</time></trkpt><trkpt lat="44.7471137" lon="12.0189158"><ele>-5.0</ele><time>2026-04-12T13:54:00.011Z</time></trkpt><trkpt lat="44.7469878" lon="12.0189995"><ele>-5.0</ele><time>2026-04-12T13:54:01.012Z</time></trkpt><trkpt lat="44.7468778" lon="12.019071"><ele>-5.0</ele><time>2026-04-12T13:54:02.012Z</time></trkpt><trkpt lat="44.7467781" lon="12.0191372"><ele>-5.0</ele><time>2026-04-12T13:54:03.011Z</time></trkpt><trkpt lat="44.7467003" lon="12.0191932"><ele>-4.6</ele><time>2026-04-12T13:54:04.012Z</time></trkpt><trkpt lat="44.7466262" lon="12.0193012"><ele>-4.2</ele><time>2026-04-12T13:54:06.011Z</time></trkpt><trkpt lat="44.7466511" lon="12.0194406"><ele>-3.8</ele><time>2026-04-12T13:54:08.011Z</time></trkpt><trkpt lat="44.7466904" lon="12.0195628"><ele>-3.4</ele><time>2026-04-12T13:54:09.012Z</time></trkpt><trkpt lat="44.7467447" lon="12.0197177"><ele>-3.0</ele><time>2026-04-12T13:54:10.011Z</time></trkpt><trkpt lat="44.7468048" lon="12.0198975"><ele>-3.0</ele><time>2026-04-12T13:54:11.012Z</time></trkpt><trkpt lat="44.7468719" lon="12.0201026"><ele>-3.0</ele><time>2026-04-12T13:54:12.013Z</time></trkpt><trkpt lat="44.7469501" lon="12.0203367"><ele>-3.0</ele><time>2026-04-12T13:54:13.011Z</time></trkpt><trkpt lat="44.7470342" lon="12.0205882"><ele>-3.333333333333333</ele><time>2026-04-12T13:54:14.011Z</time></trkpt><trkpt lat="44.7471197" lon="12.0208473"><ele>-3.6666666666666665</ele><time>2026-04-12T13:54:15.011Z</time></trkpt><trkpt lat="44.747209" lon="12.0211105"><ele>-4.0</ele><time>2026-04-12T13:54:16.011Z</time></trkpt><trkpt lat="44.7473004" lon="12.0213803"><ele>-4.333333333333333</ele><time>2026-04-12T13:54:17.012Z</time></trkpt><trkpt lat="44.7473936" lon="12.021656"><ele>-4.666666666666667</ele><time>2026-04-12T13:54:18.012Z</time></trkpt><trkpt lat="44.7474873" lon="12.021936"><ele>-5.0</ele><time>2026-04-12T13:54:19.011Z</time></trkpt><trkpt lat="44.7475814" lon="12.0222161"><ele>-5.0</ele><time>2026-04-12T13:54:20.011Z</time></trkpt><trkpt lat="44.7476756" lon="12.022496"><ele>-5.0</ele><time>2026-04-12T13:54:21.012Z</time></trkpt><trkpt lat="44.7477712" lon="12.0227795"><ele>-5.0</ele><time>2026-04-12T13:54:22.011Z</time></trkpt><trkpt lat="44.7478687" lon="12.0230665"><ele>-4.5</ele><time>2026-04-12T13:54:23.012Z</time></trkpt><trkpt lat="44.7479703" lon="12.0233694"><ele>-4.0</ele><time>2026-04-12T13:54:24.011Z</time></trkpt><trkpt lat="44.7480777" lon="12.0236937"><ele>-4.0</ele><time>2026-04-12T13:54:25.012Z</time></trkpt><trkpt lat="44.748186" lon="12.0240131"><ele>-4.0</ele><time>2026-04-12T13:54:26.011Z</time></trkpt><trkpt lat="44.7482894" lon="12.0243223"><ele>-4.5</ele><time>2026-04-12T13:54:27.011Z</time></trkpt><trkpt lat="44.7483917" lon="12.0246293"><ele>-5.0</ele><time>2026-04-12T13:54:28.012Z</time></trkpt><trkpt lat="44.748493" lon="12.0249364"><ele>-4.0</ele><time>2026-04-12T13:54:29.012Z</time></trkpt><trkpt lat="44.7485965" lon="12.0252428"><ele>-3.0</ele><time>2026-04-12T13:54:30.012Z</time></trkpt><trkpt lat="44.7486994" lon="12.0255476"><ele>-3.0</ele><time>2026-04-12T13:54:31.011Z</time></trkpt><trkpt lat="44.7488006" lon="12.0258489"><ele>-3.0</ele><time>2026-04-12T13:54:32.012Z</time></trkpt><trkpt lat="44.7488982" lon="12.0261483"><ele>-3.0</ele><time>2026-04-12T13:54:33.012Z</time></trkpt><trkpt lat="44.7489957" lon="12.0264433"><ele>-3.0</ele><time>2026-04-12T13:54:34.012Z</time></trkpt><trkpt lat="44.7490898" lon="12.0267179"><ele>-3.0</ele><time>2026-04-12T13:54:35.012Z</time></trkpt><trkpt lat="44.7491778" lon="12.0269788"><ele>-3.0</ele><time>2026-04-12T13:54:36.011Z</time></trkpt><trkpt lat="44.7492674" lon="12.0272462"><ele>-3.0</ele><time>2026-04-12T13:54:37.011Z</time></trkpt><trkpt lat="44.7493628" lon="12.027525"><ele>-3.0</ele><time>2026-04-12T13:54:38.011Z</time></trkpt><trkpt lat="44.7494628" lon="12.0278217"><ele>-4.0</ele><time>2026-04-12T13:54:39.011Z</time></trkpt><trkpt lat="44.7495665" lon="12.0281341"><ele>-5.0</ele><time>2026-04-12T13:54:40.011Z</time></trkpt><trkpt lat="44.7496747" lon="12.0284552"><ele>-5.0</ele><time>2026-04-12T13:54:41.012Z</time></trkpt><trkpt lat="44.74978" lon="12.0287738"><ele>-5.0</ele><time>2026-04-12T13:54:42.012Z</time></trkpt><trkpt lat="44.7498832" lon="12.0290779"><ele>-5.5</ele><time>2026-04-12T13:54:43.011Z</time></trkpt><trkpt lat="44.749984" lon="12.0293785"><ele>-6.0</ele><time>2026-04-12T13:54:44.012Z</time></trkpt><trkpt lat="44.7500842" lon="12.0296724"><ele>-6.0</ele><time>2026-04-12T13:54:45.011Z</time></trkpt><trkpt lat="44.7501831" lon="12.029962"><ele>-6.0</ele><time>2026-04-12T13:54:46.011Z</time></trkpt><trkpt lat="44.7502807" lon="12.0302509"><ele>-5.0</ele><time>2026-04-12T13:54:47.011Z</time></trkpt><trkpt lat="44.7503763" lon="12.0305344"><ele>-4.0</ele><time>2026-04-12T13:54:48.011Z</time></trkpt><trkpt lat="44.7504702" lon="12.0308133"><ele>-3.0</ele><time>2026-04-12T13:54:49.012Z</time></trkpt><trkpt lat="44.7505667" lon="12.0311018"><ele>-3.0</ele><time>2026-04-12T13:54:50.011Z</time></trkpt><trkpt lat="44.7506661" lon="12.0313967"><ele>-3.0</ele><time>2026-04-12T13:54:51.012Z</time></trkpt><trkpt lat="44.7507651" lon="12.0316922"><ele>-3.0</ele><time>2026-04-12T13:54:52.012Z</time></trkpt><trkpt lat="44.7508644" lon="12.0319927"><ele>-3.0</ele><time>2026-04-12T13:54:53.011Z</time></trkpt><trkpt lat="44.7509633" lon="12.0322914"><ele>-4.0</ele><time>2026-04-12T13:54:54.012Z</time></trkpt><trkpt lat="44.7510615" lon="12.0325843"><ele>-5.0</ele><time>2026-04-12T13:54:55.012Z</time></trkpt><trkpt lat="44.7511591" lon="12.032876"><ele>-5.0</ele><time>2026-04-12T13:54:56.012Z</time></trkpt><trkpt lat="44.7512565" lon="12.0331692"><ele>-5.0</ele><time>2026-04-12T13:54:57.012Z</time></trkpt><trkpt lat="44.7513531" lon="12.0334632"><ele>-4.666666666666667</ele><time>2026-04-12T13:54:58.011Z</time></trkpt><trkpt lat="44.7514458" lon="12.0337406"><ele>-4.333333333333333</ele><time>2026-04-12T13:54:59.011Z</time></trkpt><trkpt lat="44.7515326" lon="12.0339935"><ele>-4.0</ele><time>2026-04-12T13:55:00.012Z</time></trkpt><trkpt lat="44.7516095" lon="12.0342192"><ele>-4.0</ele><time>2026-04-12T13:55:01.012Z</time></trkpt><trkpt lat="44.7516751" lon="12.0344117"><ele>-4.0</ele><time>2026-04-12T13:55:02.011Z</time></trkpt><trkpt lat="44.7517298" lon="12.0345804"><ele>-4.0</ele><time>2026-04-12T13:55:03.011Z</time></trkpt><trkpt lat="44.75178" lon="12.0347319"><ele>-4.0</ele><time>2026-04-12T13:55:04.011Z</time></trkpt><trkpt lat="44.7518261" lon="12.0348726"><ele>-4.25</ele><time>2026-04-12T13:55:05.013Z</time></trkpt><trkpt lat="44.7518753" lon="12.0350214"><ele>-4.5</ele><time>2026-04-12T13:55:06.012Z</time></trkpt><trkpt lat="44.7519282" lon="12.0351796"><ele>-4.75</ele><time>2026-04-12T13:55:07.011Z</time></trkpt><trkpt lat="44.7519831" lon="12.0353395"><ele>-5.0</ele><time>2026-04-12T13:55:08.011Z</time></trkpt><trkpt lat="44.752034" lon="12.0354916"><ele>-5.0</ele><time>2026-04-12T13:55:09.011Z</time></trkpt><trkpt lat="44.7520831" lon="12.0356421"><ele>-5.0</ele><time>2026-04-12T13:55:10.012Z</time></trkpt><trkpt lat="44.7521391" lon="12.0358079"><ele>-5.0</ele><time>2026-04-12T13:55:11.011Z</time></trkpt><trkpt lat="44.7522016" lon="12.0359915"><ele>-5.0</ele><time>2026-04-12T13:55:12.011Z</time></trkpt><trkpt lat="44.7522707" lon="12.0361981"><ele>-4.666666666666667</ele><time>2026-04-12T13:55:13.012Z</time></trkpt><trkpt lat="44.7523483" lon="12.0364346"><ele>-4.333333333333333</ele><time>2026-04-12T13:55:14.011Z</time></trkpt><trkpt lat="44.7524304" lon="12.0366803"><ele>-4.0</ele><time>2026-04-12T13:55:15.011Z</time></trkpt><trkpt lat="44.7525148" lon="12.036928"><ele>-4.0</ele><time>2026-04-12T13:55:16.011Z</time></trkpt><trkpt lat="44.7525961" lon="12.0371684"><ele>-4.0</ele><time>2026-04-12T13:55:17.013Z</time></trkpt><trkpt lat="44.7526699" lon="12.0373871"><ele>-4.0</ele><time>2026-04-12T13:55:18.011Z</time></trkpt><trkpt lat="44.752741" lon="12.0376003"><ele>-3.6666666666666665</ele><time>2026-04-12T13:55:19.011Z</time></trkpt><trkpt lat="44.7528131" lon="12.0378197"><ele>-3.333333333333333</ele><time>2026-04-12T13:55:20.011Z</time></trkpt><trkpt lat="44.7528873" lon="12.0380466"><ele>-3.0</ele><time>2026-04-12T13:55:21.012Z</time></trkpt><trkpt lat="44.7529643" lon="12.0382838"><ele>-3.0</ele><time>2026-04-12T13:55:22.013Z</time></trkpt><trkpt lat="44.7530439" lon="12.0385232"><ele>-3.0</ele><time>2026-04-12T13:55:23.012Z</time></trkpt><trkpt lat="44.7531258" lon="12.0387668"><ele>-3.0</ele><time>2026-04-12T13:55:24.011Z</time></trkpt><trkpt lat="44.7532096" lon="12.0390145"><ele>-3.0</ele><time>2026-04-12T13:55:25.011Z</time></trkpt><trkpt lat="44.7532941" lon="12.0392661"><ele>-3.0</ele><time>2026-04-12T13:55:26.011Z</time></trkpt><trkpt lat="44.7533801" lon="12.0395198"><ele>-3.0</ele><time>2026-04-12T13:55:27.013Z</time></trkpt><trkpt lat="44.7534673" lon="12.0397744"><ele>-3.333333333333333</ele><time>2026-04-12T13:55:28.012Z</time></trkpt><trkpt lat="44.7535522" lon="12.0400322"><ele>-3.6666666666666665</ele><time>2026-04-12T13:55:29.011Z</time></trkpt><trkpt lat="44.7536375" lon="12.0402878"><ele>-4.0</ele><time>2026-04-12T13:55:30.013Z</time></trkpt><trkpt lat="44.7537229" lon="12.0405415"><ele>-4.0</ele><time>2026-04-12T13:55:31.012Z</time></trkpt><trkpt lat="44.7538069" lon="12.0407929"><ele>-4.0</ele><time>2026-04-12T13:55:32.011Z</time></trkpt><trkpt lat="44.7538907" lon="12.0410411"><ele>-4.0</ele><time>2026-04-12T13:55:33.012Z</time></trkpt><trkpt lat="44.7539745" lon="12.041287"><ele>-4.0</ele><time>2026-04-12T13:55:34.011Z</time></trkpt><trkpt lat="44.7540564" lon="12.0415322"><ele>-4.0</ele><time>2026-04-12T13:55:35.012Z</time></trkpt><trkpt lat="44.754139" lon="12.0417764"><ele>-4.0</ele><time>2026-04-12T13:55:36.011Z</time></trkpt><trkpt lat="44.7542189" lon="12.0420169"><ele>-4.333333333333333</ele><time>2026-04-12T13:55:37.012Z</time></trkpt><trkpt lat="44.7543003" lon="12.0422589"><ele>-4.666666666666667</ele><time>2026-04-12T13:55:38.011Z</time></trkpt><trkpt lat="44.7543824" lon="12.0425016"><ele>-5.0</ele><time>2026-04-12T13:55:39.013Z</time></trkpt><trkpt lat="44.7544652" lon="12.042746"><ele>-5.333333333333334</ele><time>2026-04-12T13:55:40.012Z</time></trkpt><trkpt lat="44.7545455" lon="12.0429932"><ele>-5.666666666666667</ele><time>2026-04-12T13:55:41.011Z</time></trkpt><trkpt lat="44.7546286" lon="12.0432396"><ele>-6.0</ele><time>2026-04-12T13:55:42.013Z</time></trkpt><trkpt lat="44.7547119" lon="12.0434859"><ele>-6.0</ele><time>2026-04-12T13:55:43.012Z</time></trkpt><trkpt lat="44.7547953" lon="12.0437337"><ele>-6.0</ele><time>2026-04-12T13:55:44.012Z</time></trkpt><trkpt lat="44.7548796" lon="12.0439829"><ele>-6.0</ele><time>2026-04-12T13:55:45.012Z</time></trkpt><trkpt lat="44.7549653" lon="12.0442313"><ele>-6.0</ele><time>2026-04-12T13:55:46.011Z</time></trkpt><trkpt lat="44.7550489" lon="12.0444804"><ele>-6.0</ele><time>2026-04-12T13:55:47.011Z</time></trkpt><trkpt lat="44.7551299" lon="12.0447303"><ele>-6.0</ele><time>2026-04-12T13:55:48.011Z</time></trkpt><trkpt lat="44.7552126" lon="12.0449791"><ele>-5.666666666666667</ele><time>2026-04-12T13:55:49.012Z</time></trkpt><trkpt lat="44.7552957" lon="12.0452261"><ele>-5.333333333333334</ele><time>2026-04-12T13:55:50.011Z</time></trkpt><trkpt lat="44.7553782" lon="12.0454669"><ele>-5.0</ele><time>2026-04-12T13:55:51.011Z</time></trkpt><trkpt lat="44.7554546" lon="12.045691"><ele>-5.0</ele><time>2026-04-12T13:55:52.011Z</time></trkpt><trkpt lat="44.7555258" lon="12.0459004"><ele>-5.0</ele><time>2026-04-12T13:55:53.012Z</time></trkpt><trkpt lat="44.7555901" lon="12.0460867"><ele>-5.0</ele><time>2026-04-12T13:55:54.012Z</time></trkpt><trkpt lat="44.7556472" lon="12.0462539"><ele>-5.0</ele><time>2026-04-12T13:55:55.011Z</time></trkpt><trkpt lat="44.7557019" lon="12.046413"><ele>-5.0</ele><time>2026-04-12T13:55:56.011Z</time></trkpt><trkpt lat="44.7557492" lon="12.0465626"><ele>-5.0</ele><time>2026-04-12T13:55:57.011Z</time></trkpt><trkpt lat="44.7557966" lon="12.0466997"><ele>-5.0</ele><time>2026-04-12T13:55:58.012Z</time></trkpt><trkpt lat="44.7558378" lon="12.0468259"><ele>-5.0</ele><time>2026-04-12T13:55:59.011Z</time></trkpt><trkpt lat="44.7558719" lon="12.0469314"><ele>-5.0</ele><time>2026-04-12T13:56:00.011Z</time></trkpt><trkpt lat="44.7558995" lon="12.0470193"><ele>-4.8</ele><time>2026-04-12T13:56:01.013Z</time></trkpt><trkpt lat="44.7559385" lon="12.0471602"><ele>-4.6</ele><time>2026-04-12T13:56:03.011Z</time></trkpt><trkpt lat="44.7559077" lon="12.0472484"><ele>-4.4</ele><time>2026-04-12T13:56:05.011Z</time></trkpt><trkpt lat="44.7558077" lon="12.0473256"><ele>-4.2</ele><time>2026-04-12T13:56:07.011Z</time></trkpt><trkpt lat="44.7557182" lon="12.04736"><ele>-4.0</ele><time>2026-04-12T13:56:08.011Z</time></trkpt><trkpt lat="44.7556084" lon="12.0474012"><ele>-4.0</ele><time>2026-04-12T13:56:09.011Z</time></trkpt><trkpt lat="44.7554856" lon="12.0474533"><ele>-4.0</ele><time>2026-04-12T13:56:10.013Z</time></trkpt><trkpt lat="44.7553498" lon="12.0475076"><ele>-4.0</ele><time>2026-04-12T13:56:11.011Z</time></trkpt><trkpt lat="44.7552071" lon="12.0475667"><ele>-4.0</ele><time>2026-04-12T13:56:12.011Z</time></trkpt><trkpt lat="44.7550555" lon="12.0476278"><ele>-4.0</ele><time>2026-04-12T13:56:13.012Z</time></trkpt><trkpt lat="44.7548984" lon="12.0476934"><ele>-4.0</ele><time>2026-04-12T13:56:14.011Z</time></trkpt><trkpt lat="44.754738" lon="12.0477606"><ele>-4.0</ele><time>2026-04-12T13:56:15.011Z</time></trkpt><trkpt lat="44.754574" lon="12.0478291"><ele>-4.0</ele><time>2026-04-12T13:56:16.013Z</time></trkpt><trkpt lat="44.7544064" lon="12.0478998"><ele>-4.0</ele><time>2026-04-12T13:56:17.011Z</time></trkpt><trkpt lat="44.754237" lon="12.0479728"><ele>-4.0</ele><time>2026-04-12T13:56:18.011Z</time></trkpt><trkpt lat="44.7540635" lon="12.0480481"><ele>-4.666666666666666</ele><time>2026-04-12T13:56:19.011Z</time></trkpt><trkpt lat="44.7538873" lon="12.0481245"><ele>-5.333333333333333</ele><time>2026-04-12T13:56:20.012Z</time></trkpt><trkpt lat="44.7537096" lon="12.0482014"><ele>-6.0</ele><time>2026-04-12T13:56:21.012Z</time></trkpt><trkpt lat="44.7535295" lon="12.0482805"><ele>-6.333333333333334</ele><time>2026-04-12T13:56:22.012Z</time></trkpt><trkpt lat="44.7533492" lon="12.0483575"><ele>-6.666666666666667</ele><time>2026-04-12T13:56:23.012Z</time></trkpt><trkpt lat="44.7531692" lon="12.0484337"><ele>-7.0</ele><time>2026-04-12T13:56:24.011Z</time></trkpt><trkpt lat="44.7529898" lon="12.048514"><ele>-7.0</ele><time>2026-04-12T13:56:25.012Z</time></trkpt><trkpt lat="44.7528109" lon="12.0485935"><ele>-7.0</ele><time>2026-04-12T13:56:26.011Z</time></trkpt><trkpt lat="44.7526309" lon="12.0486711"><ele>-7.0</ele><time>2026-04-12T13:56:27.011Z</time></trkpt><trkpt lat="44.75245" lon="12.048751"><ele>-7.0</ele><time>2026-04-12T13:56:28.011Z</time></trkpt><trkpt lat="44.7522676" lon="12.048834"><ele>-7.0</ele><time>2026-04-12T13:56:29.012Z</time></trkpt><trkpt lat="44.7520843" lon="12.048917"><ele>-7.0</ele><time>2026-04-12T13:56:30.011Z</time></trkpt><trkpt lat="44.7519051" lon="12.0489944"><ele>-7.0</ele><time>2026-04-12T13:56:31.011Z</time></trkpt><trkpt lat="44.7517406" lon="12.0490647"><ele>-7.0</ele><time>2026-04-12T13:56:32.011Z</time></trkpt><trkpt lat="44.7515968" lon="12.0491268"><ele>-7.0</ele><time>2026-04-12T13:56:33.012Z</time></trkpt><trkpt lat="44.7514655" lon="12.0491834"><ele>-7.0</ele><time>2026-04-12T13:56:34.011Z</time></trkpt><trkpt lat="44.7513428" lon="12.0492357"><ele>-7.0</ele><time>2026-04-12T13:56:35.012Z</time></trkpt><trkpt lat="44.7512279" lon="12.0492836"><ele>-7.0</ele><time>2026-04-12T13:56:36.012Z</time></trkpt><trkpt lat="44.7511232" lon="12.0493279"><ele>-7.0</ele><time>2026-04-12T13:56:37.011Z</time></trkpt><trkpt lat="44.7510289" lon="12.049369"><ele>-6.500000000000001</ele><time>2026-04-12T13:56:38.012Z</time></trkpt><trkpt lat="44.7509369" lon="12.0494082"><ele>-6.0</ele><time>2026-04-12T13:56:39.012Z</time></trkpt><trkpt lat="44.7508461" lon="12.0494496"><ele>-5.5</ele><time>2026-04-12T13:56:40.012Z</time></trkpt><trkpt lat="44.7507652" lon="12.0494871"><ele>-5.0</ele><time>2026-04-12T13:56:41.011Z</time></trkpt><trkpt lat="44.7506943" lon="12.0495186"><ele>-4.5</ele><time>2026-04-12T13:56:42.012Z</time></trkpt><trkpt lat="44.7506333" lon="12.0495482"><ele>-4.0</ele><time>2026-04-12T13:56:43.011Z</time></trkpt><trkpt lat="44.750528" lon="12.0495984"><ele>-3.9999999999999996</ele><time>2026-04-12T13:56:45.011Z</time></trkpt><trkpt lat="44.7504433" lon="12.0496325"><ele>-4.0</ele><time>2026-04-12T13:56:47.012Z</time></trkpt><trkpt lat="44.7503792" lon="12.0496602"><ele>-4.0</ele><time>2026-04-12T13:56:50.012Z</time></trkpt><trkpt lat="44.7503188" lon="12.0497026"><ele>-4.0</ele><time>2026-04-12T13:57:02.012Z</time></trkpt><trkpt lat="44.7502341" lon="12.0497799"><ele>-3.9999999999999996</ele><time>2026-04-12T13:57:04.012Z</time></trkpt><trkpt lat="44.7501527" lon="12.0498766"><ele>-4.0</ele><time>2026-04-12T13:57:06.012Z</time></trkpt><trkpt lat="44.7500937" lon="12.0499192"><ele>-4.2</ele><time>2026-04-12T13:57:07.012Z</time></trkpt><trkpt lat="44.750016" lon="12.0499575"><ele>-4.4</ele><time>2026-04-12T13:57:08.012Z</time></trkpt><trkpt lat="44.7499246" lon="12.0499917"><ele>-4.6</ele><time>2026-04-12T13:57:09.012Z</time></trkpt><trkpt lat="44.7498203" lon="12.0500334"><ele>-4.8</ele><time>2026-04-12T13:57:10.011Z</time></trkpt><trkpt lat="44.7497147" lon="12.0500776"><ele>-5.0</ele><time>2026-04-12T13:57:11.011Z</time></trkpt><trkpt lat="44.7496104" lon="12.0501226"><ele>-5.0</ele><time>2026-04-12T13:57:12.012Z</time></trkpt><trkpt lat="44.7494977" lon="12.050175"><ele>-5.0</ele><time>2026-04-12T13:57:13.012Z</time></trkpt><trkpt lat="44.7493778" lon="12.0502304"><ele>-5.0</ele><time>2026-04-12T13:57:14.011Z</time></trkpt><trkpt lat="44.7492534" lon="12.0502841"><ele>-5.0</ele><time>2026-04-12T13:57:15.012Z</time></trkpt><trkpt lat="44.7491269" lon="12.0503401"><ele>-5.0</ele><time>2026-04-12T13:57:16.012Z</time></trkpt><trkpt lat="44.7489987" lon="12.0503996"><ele>-5.0</ele><time>2026-04-12T13:57:17.011Z</time></trkpt><trkpt lat="44.7488674" lon="12.0504533"><ele>-5.0</ele><time>2026-04-12T13:57:18.011Z</time></trkpt><trkpt lat="44.7487359" lon="12.0505099"><ele>-5.0</ele><time>2026-04-12T13:57:19.013Z</time></trkpt><trkpt lat="44.7486039" lon="12.0505697"><ele>-5.0</ele><time>2026-04-12T13:57:20.012Z</time></trkpt><trkpt lat="44.7484693" lon="12.0506262"><ele>-5.0</ele><time>2026-04-12T13:57:21.011Z</time></trkpt><trkpt lat="44.7483322" lon="12.0506873"><ele>-5.0</ele><time>2026-04-12T13:57:22.013Z</time></trkpt><trkpt lat="44.7481934" lon="12.0507469"><ele>-5.0</ele><time>2026-04-12T13:57:23.011Z</time></trkpt><trkpt lat="44.7480524" lon="12.0508069"><ele>-4.666666666666667</ele><time>2026-04-12T13:57:24.011Z</time></trkpt><trkpt lat="44.747909" lon="12.0508685"><ele>-4.333333333333333</ele><time>2026-04-12T13:57:25.012Z</time></trkpt><trkpt lat="44.747763" lon="12.0509327"><ele>-4.0</ele><time>2026-04-12T13:57:26.011Z</time></trkpt><trkpt lat="44.7476146" lon="12.0509973"><ele>-4.0</ele><time>2026-04-12T13:57:27.011Z</time></trkpt><trkpt lat="44.7474645" lon="12.0510609"><ele>-4.0</ele><time>2026-04-12T13:57:28.011Z</time></trkpt><trkpt lat="44.7473129" lon="12.0511248"><ele>-4.0</ele><time>2026-04-12T13:57:29.011Z</time></trkpt><trkpt lat="44.7471599" lon="12.0511916"><ele>-4.0</ele><time>2026-04-12T13:57:30.012Z</time></trkpt><trkpt lat="44.7470044" lon="12.051257"><ele>-4.0</ele><time>2026-04-12T13:57:31.011Z</time></trkpt><trkpt lat="44.7468476" lon="12.0513237"><ele>-4.0</ele><time>2026-04-12T13:57:32.011Z</time></trkpt><trkpt lat="44.7466885" lon="12.0513931"><ele>-4.0</ele><time>2026-04-12T13:57:33.012Z</time></trkpt><trkpt lat="44.7465266" lon="12.0514661"><ele>-4.0</ele><time>2026-04-12T13:57:34.012Z</time></trkpt><trkpt lat="44.746362" lon="12.0515381"><ele>-4.0</ele><time>2026-04-12T13:57:35.012Z</time></trkpt><trkpt lat="44.7461973" lon="12.0516104"><ele>-3.6666666666666665</ele><time>2026-04-12T13:57:36.011Z</time></trkpt><trkpt lat="44.746034" lon="12.0516819"><ele>-3.333333333333333</ele><time>2026-04-12T13:57:37.011Z</time></trkpt><trkpt lat="44.7458728" lon="12.0517505"><ele>-3.0</ele><time>2026-04-12T13:57:38.012Z</time></trkpt><trkpt lat="44.7457143" lon="12.0518175"><ele>-3.0</ele><time>2026-04-12T13:57:39.011Z</time></trkpt><trkpt lat="44.7455679" lon="12.051882"><ele>-3.0</ele><time>2026-04-12T13:57:40.012Z</time></trkpt><trkpt lat="44.7454368" lon="12.0519394"><ele>-3.0</ele><time>2026-04-12T13:57:41.012Z</time></trkpt><trkpt lat="44.7453156" lon="12.0519917"><ele>-3.0</ele><time>2026-04-12T13:57:42.012Z</time></trkpt><trkpt lat="44.7451969" lon="12.0520418"><ele>-3.5999999999999996</ele><time>2026-04-12T13:57:43.011Z</time></trkpt><trkpt lat="44.7450875" lon="12.0520892"><ele>-4.199999999999999</ele><time>2026-04-12T13:57:44.011Z</time></trkpt><trkpt lat="44.7449944" lon="12.0521304"><ele>-4.8</ele><time>2026-04-12T13:57:45.012Z</time></trkpt><trkpt lat="44.7449159" lon="12.0521653"><ele>-5.3999999999999995</ele><time>2026-04-12T13:57:46.011Z</time></trkpt><trkpt lat="44.7448501" lon="12.0521819"><ele>-6.0</ele><time>2026-04-12T13:57:47.012Z</time></trkpt><trkpt lat="44.7447485" lon="12.0521618"><ele>-6.0</ele><time>2026-04-12T13:57:49.011Z</time></trkpt><trkpt lat="44.7446584" lon="12.0521699"><ele>-6.0</ele><time>2026-04-12T13:57:51.011Z</time></trkpt><trkpt lat="44.7445885" lon="12.0521861"><ele>-6.0</ele><time>2026-04-12T13:57:52.012Z</time></trkpt><trkpt lat="44.7445061" lon="12.0522083"><ele>-6.0</ele><time>2026-04-12T13:57:53.011Z</time></trkpt><trkpt lat="44.7444125" lon="12.0522381"><ele>-6.0</ele><time>2026-04-12T13:57:54.011Z</time></trkpt><trkpt lat="44.7443026" lon="12.0522812"><ele>-5.5</ele><time>2026-04-12T13:57:55.012Z</time></trkpt><trkpt lat="44.7441763" lon="12.0523331"><ele>-5.0</ele><time>2026-04-12T13:57:56.013Z</time></trkpt><trkpt lat="44.7440491" lon="12.0523845"><ele>-4.5</ele><time>2026-04-12T13:57:57.012Z</time></trkpt><trkpt lat="44.7439213" lon="12.0524351"><ele>-4.0</ele><time>2026-04-12T13:57:58.011Z</time></trkpt><trkpt lat="44.7437819" lon="12.0524906"><ele>-4.0</ele><time>2026-04-12T13:57:59.012Z</time></trkpt><trkpt lat="44.743634" lon="12.0525552"><ele>-4.0</ele><time>2026-04-12T13:58:00.012Z</time></trkpt><trkpt lat="44.7434777" lon="12.0526238"><ele>-4.0</ele><time>2026-04-12T13:58:01.011Z</time></trkpt><trkpt lat="44.7433171" lon="12.0526921"><ele>-3.6666666666666665</ele><time>2026-04-12T13:58:02.011Z</time></trkpt><trkpt lat="44.7431549" lon="12.0527618"><ele>-3.333333333333333</ele><time>2026-04-12T13:58:03.012Z</time></trkpt><trkpt lat="44.7429926" lon="12.0528331"><ele>-3.0</ele><time>2026-04-12T13:58:04.012Z</time></trkpt><trkpt lat="44.7428284" lon="12.0529045"><ele>-3.333333333333333</ele><time>2026-04-12T13:58:05.011Z</time></trkpt><trkpt lat="44.7426616" lon="12.0529741"><ele>-3.6666666666666665</ele><time>2026-04-12T13:58:06.012Z</time></trkpt><trkpt lat="44.7424933" lon="12.0530454"><ele>-4.0</ele><time>2026-04-12T13:58:07.011Z</time></trkpt><trkpt lat="44.7423227" lon="12.0531166"><ele>-4.0</ele><time>2026-04-12T13:58:08.011Z</time></trkpt><trkpt lat="44.742151" lon="12.0531905"><ele>-4.0</ele><time>2026-04-12T13:58:09.012Z</time></trkpt><trkpt lat="44.7419828" lon="12.0532655"><ele>-4.0</ele><time>2026-04-12T13:58:10.012Z</time></trkpt><trkpt lat="44.741828" lon="12.0533331"><ele>-4.333333333333333</ele><time>2026-04-12T13:58:11.012Z</time></trkpt><trkpt lat="44.7416833" lon="12.0533962"><ele>-4.666666666666667</ele><time>2026-04-12T13:58:12.012Z</time></trkpt><trkpt lat="44.74154" lon="12.053461"><ele>-5.0</ele><time>2026-04-12T13:58:13.012Z</time></trkpt><trkpt lat="44.7413932" lon="12.0535259"><ele>-5.0</ele><time>2026-04-12T13:58:14.011Z</time></trkpt><trkpt lat="44.7412434" lon="12.0535889"><ele>-5.0</ele><time>2026-04-12T13:58:15.011Z</time></trkpt><trkpt lat="44.7410922" lon="12.0536509"><ele>-5.0</ele><time>2026-04-12T13:58:16.012Z</time></trkpt><trkpt lat="44.7409413" lon="12.0537162"><ele>-5.0</ele><time>2026-04-12T13:58:17.012Z</time></trkpt><trkpt lat="44.7407881" lon="12.0537839"><ele>-5.0</ele><time>2026-04-12T13:58:18.011Z</time></trkpt><trkpt lat="44.740631" lon="12.0538518"><ele>-5.0</ele><time>2026-04-12T13:58:19.011Z</time></trkpt><trkpt lat="44.7404723" lon="12.0539193"><ele>-5.0</ele><time>2026-04-12T13:58:20.012Z</time></trkpt><trkpt lat="44.740314" lon="12.0539887"><ele>-5.0</ele><time>2026-04-12T13:58:21.011Z</time></trkpt><trkpt lat="44.7401572" lon="12.0540577"><ele>-5.0</ele><time>2026-04-12T13:58:22.012Z</time></trkpt><trkpt lat="44.7400141" lon="12.0541221"><ele>-4.75</ele><time>2026-04-12T13:58:23.012Z</time></trkpt><trkpt lat="44.7398841" lon="12.0541828"><ele>-4.5</ele><time>2026-04-12T13:58:24.011Z</time></trkpt><trkpt lat="44.739762" lon="12.0542378"><ele>-4.25</ele><time>2026-04-12T13:58:25.012Z</time></trkpt><trkpt lat="44.7396488" lon="12.0542879"><ele>-4.0</ele><time>2026-04-12T13:58:26.011Z</time></trkpt><trkpt lat="44.7395452" lon="12.0543342"><ele>-3.9999999999999996</ele><time>2026-04-12T13:58:27.012Z</time></trkpt><trkpt lat="44.7394481" lon="12.0543738"><ele>-4.0</ele><time>2026-04-12T13:58:28.011Z</time></trkpt><trkpt lat="44.7393576" lon="12.0544091"><ele>-4.0</ele><time>2026-04-12T13:58:29.012Z</time></trkpt><trkpt lat="44.7392739" lon="12.0544441"><ele>-4.0</ele><time>2026-04-12T13:58:30.011Z</time></trkpt><trkpt lat="44.7391968" lon="12.0544826"><ele>-3.9999999999999996</ele><time>2026-04-12T13:58:31.011Z</time></trkpt><trkpt lat="44.7391287" lon="12.0545267"><ele>-4.0</ele><time>2026-04-12T13:58:32.012Z</time></trkpt><trkpt lat="44.7390595" lon="12.0545748"><ele>-4.0</ele><time>2026-04-12T13:58:33.011Z</time></trkpt><trkpt lat="44.7389853" lon="12.0546211"><ele>-4.0</ele><time>2026-04-12T13:58:34.012Z</time></trkpt><trkpt lat="44.7389063" lon="12.0546658"><ele>-4.0</ele><time>2026-04-12T13:58:35.011Z</time></trkpt><trkpt lat="44.7388089" lon="12.0547093"><ele>-4.0</ele><time>2026-04-12T13:58:36.012Z</time></trkpt><trkpt lat="44.7386943" lon="12.0547552"><ele>-4.0</ele><time>2026-04-12T13:58:37.013Z</time></trkpt><trkpt lat="44.738573" lon="12.0548083"><ele>-4.0</ele><time>2026-04-12T13:58:38.012Z</time></trkpt><trkpt lat="44.7384345" lon="12.0548693"><ele>-4.0</ele><time>2026-04-12T13:58:39.012Z</time></trkpt><trkpt lat="44.7382965" lon="12.0549282"><ele>-4.0</ele><time>2026-04-12T13:58:40.012Z</time></trkpt><trkpt lat="44.7381754" lon="12.0549791"><ele>-4.0</ele><time>2026-04-12T13:58:41.012Z</time></trkpt><trkpt lat="44.7380495" lon="12.0550324"><ele>-4.0</ele><time>2026-04-12T13:58:42.012Z</time></trkpt><trkpt lat="44.7379217" lon="12.0550871"><ele>-4.0</ele><time>2026-04-12T13:58:43.011Z</time></trkpt><trkpt lat="44.7377965" lon="12.0551413"><ele>-4.0</ele><time>2026-04-12T13:58:44.011Z</time></trkpt><trkpt lat="44.7376717" lon="12.0551968"><ele>-4.0</ele><time>2026-04-12T13:58:45.011Z</time></trkpt><trkpt lat="44.7375462" lon="12.0552501"><ele>-4.0</ele><time>2026-04-12T13:58:46.011Z</time></trkpt><trkpt lat="44.7374184" lon="12.0553036"><ele>-4.0</ele><time>2026-04-12T13:58:47.011Z</time></trkpt><trkpt lat="44.7372868" lon="12.0553615"><ele>-4.0</ele><time>2026-04-12T13:58:48.012Z</time></trkpt><trkpt lat="44.7371515" lon="12.0554211"><ele>-4.0</ele><time>2026-04-12T13:58:49.011Z</time></trkpt><trkpt lat="44.7370125" lon="12.0554802"><ele>-3.75</ele><time>2026-04-12T13:58:50.011Z</time></trkpt><trkpt lat="44.7368712" lon="12.0555396"><ele>-3.5</ele><time>2026-04-12T13:58:51.011Z</time></trkpt><trkpt lat="44.7367287" lon="12.0555989"><ele>-3.25</ele><time>2026-04-12T13:58:52.011Z</time></trkpt><trkpt lat="44.736585" lon="12.0556598"><ele>-3.0</ele><time>2026-04-12T13:58:53.011Z</time></trkpt><trkpt lat="44.7364441" lon="12.0557193"><ele>-3.0</ele><time>2026-04-12T13:58:54.011Z</time></trkpt><trkpt lat="44.7363052" lon="12.055778"><ele>-3.0</ele><time>2026-04-12T13:58:55.011Z</time></trkpt><trkpt lat="44.7361658" lon="12.0558353"><ele>-3.0</ele><time>2026-04-12T13:58:56.012Z</time></trkpt><trkpt lat="44.7360269" lon="12.0558925"><ele>-3.0</ele><time>2026-04-12T13:58:57.012Z</time></trkpt><trkpt lat="44.7358873" lon="12.0559531"><ele>-3.25</ele><time>2026-04-12T13:58:58.011Z</time></trkpt><trkpt lat="44.735746" lon="12.0560138"><ele>-3.5</ele><time>2026-04-12T13:58:59.012Z</time></trkpt><trkpt lat="44.7356021" lon="12.0560742"><ele>-3.75</ele><time>2026-04-12T13:59:00.012Z</time></trkpt><trkpt lat="44.7354629" lon="12.0561331"><ele>-4.0</ele><time>2026-04-12T13:59:01.011Z</time></trkpt><trkpt lat="44.7353252" lon="12.0561912"><ele>-3.75</ele><time>2026-04-12T13:59:02.011Z</time></trkpt><trkpt lat="44.7351837" lon="12.0562532"><ele>-3.5</ele><time>2026-04-12T13:59:03.011Z</time></trkpt><trkpt lat="44.7350407" lon="12.0563152"><ele>-3.25</ele><time>2026-04-12T13:59:04.011Z</time></trkpt><trkpt lat="44.7348965" lon="12.0563767"><ele>-3.0</ele><time>2026-04-12T13:59:05.011Z</time></trkpt><trkpt lat="44.7347521" lon="12.0564385"><ele>-3.0</ele><time>2026-04-12T13:59:06.011Z</time></trkpt><trkpt lat="44.7346098" lon="12.0564999"><ele>-3.0</ele><time>2026-04-12T13:59:07.012Z</time></trkpt><trkpt lat="44.7344675" lon="12.0565611"><ele>-3.0</ele><time>2026-04-12T13:59:08.012Z</time></trkpt><trkpt lat="44.7343263" lon="12.056624"><ele>-3.0</ele><time>2026-04-12T13:59:09.012Z</time></trkpt><trkpt lat="44.73419" lon="12.0566831"><ele>-3.0</ele><time>2026-04-12T13:59:10.011Z</time></trkpt><trkpt lat="44.7340573" lon="12.0567389"><ele>-3.0</ele><time>2026-04-12T13:59:11.011Z</time></trkpt><trkpt lat="44.7339381" lon="12.0567901"><ele>-3.0</ele><time>2026-04-12T13:59:12.012Z</time></trkpt><trkpt lat="44.7338297" lon="12.0568385"><ele>-3.0</ele><time>2026-04-12T13:59:13.012Z</time></trkpt><trkpt lat="44.7337315" lon="12.056882"><ele>-3.0</ele><time>2026-04-12T13:59:14.013Z</time></trkpt><trkpt lat="44.7336426" lon="12.0569158"><ele>-3.0</ele><time>2026-04-12T13:59:15.012Z</time></trkpt><trkpt lat="44.7335674" lon="12.0569415"><ele>-3.0</ele><time>2026-04-12T13:59:16.012Z</time></trkpt><trkpt lat="44.7334635" lon="12.056982"><ele>-3.0</ele><time>2026-04-12T13:59:18.011Z</time></trkpt><trkpt lat="44.7334226" lon="12.0570539"><ele>-3.0</ele><time>2026-04-12T13:59:20.012Z</time></trkpt><trkpt lat="44.7334525" lon="12.0571937"><ele>-3.0</ele><time>2026-04-12T13:59:22.012Z</time></trkpt><trkpt lat="44.7334872" lon="12.057285"><ele>-3.0</ele><time>2026-04-12T13:59:23.012Z</time></trkpt><trkpt lat="44.7335235" lon="12.0573769"><ele>-3.0</ele><time>2026-04-12T13:59:24.011Z</time></trkpt><trkpt lat="44.7335618" lon="12.0574827"><ele>-3.0</ele><time>2026-04-12T13:59:25.011Z</time></trkpt><trkpt lat="44.7336116" lon="12.0576242"><ele>-3.0</ele><time>2026-04-12T13:59:26.012Z</time></trkpt><trkpt lat="44.733663" lon="12.0577832"><ele>-3.0</ele><time>2026-04-12T13:59:27.011Z</time></trkpt><trkpt lat="44.7337128" lon="12.0579327"><ele>-3.0</ele><time>2026-04-12T13:59:28.011Z</time></trkpt><trkpt lat="44.7337631" lon="12.05808"><ele>-3.0</ele><time>2026-04-12T13:59:29.012Z</time></trkpt><trkpt lat="44.7338146" lon="12.0582288"><ele>-3.0</ele><time>2026-04-12T13:59:30.011Z</time></trkpt><trkpt lat="44.7338655" lon="12.0583815"><ele>-3.0</ele><time>2026-04-12T13:59:31.012Z</time></trkpt><trkpt lat="44.7339151" lon="12.0585347"><ele>-3.25</ele><time>2026-04-12T13:59:32.011Z</time></trkpt><trkpt lat="44.733967" lon="12.058693"><ele>-3.5</ele><time>2026-04-12T13:59:33.011Z</time></trkpt><trkpt lat="44.7340216" lon="12.0588558"><ele>-3.75</ele><time>2026-04-12T13:59:34.011Z</time></trkpt><trkpt lat="44.7340757" lon="12.0590209"><ele>-4.0</ele><time>2026-04-12T13:59:35.011Z</time></trkpt><trkpt lat="44.7341316" lon="12.0591882"><ele>-4.0</ele><time>2026-04-12T13:59:36.012Z</time></trkpt><trkpt lat="44.7341871" lon="12.0593526"><ele>-4.0</ele><time>2026-04-12T13:59:37.012Z</time></trkpt><trkpt lat="44.7342403" lon="12.0595137"><ele>-4.0</ele><time>2026-04-12T13:59:38.012Z</time></trkpt><trkpt lat="44.734296" lon="12.059677"><ele>-4.0</ele><time>2026-04-12T13:59:39.011Z</time></trkpt><trkpt lat="44.7343545" lon="12.0598476"><ele>-3.75</ele><time>2026-04-12T13:59:40.013Z</time></trkpt><trkpt lat="44.7344115" lon="12.060022"><ele>-3.5</ele><time>2026-04-12T13:59:41.011Z</time></trkpt><trkpt lat="44.7344703" lon="12.0601989"><ele>-3.25</ele><time>2026-04-12T13:59:42.011Z</time></trkpt><trkpt lat="44.7345297" lon="12.0603789"><ele>-3.0</ele><time>2026-04-12T13:59:43.012Z</time></trkpt><trkpt lat="44.7345885" lon="12.0605599"><ele>-3.0</ele><time>2026-04-12T13:59:44.011Z</time></trkpt><trkpt lat="44.7346485" lon="12.0607401"><ele>-3.0</ele><time>2026-04-12T13:59:45.012Z</time></trkpt><trkpt lat="44.7347119" lon="12.0609216"><ele>-3.0</ele><time>2026-04-12T13:59:46.011Z</time></trkpt><trkpt lat="44.7347744" lon="12.0611071"><ele>-3.0</ele><time>2026-04-12T13:59:47.011Z</time></trkpt><trkpt lat="44.7348364" lon="12.0612939"><ele>-3.0</ele><time>2026-04-12T13:59:48.011Z</time></trkpt><trkpt lat="44.7348974" lon="12.0614824"><ele>-3.0</ele><time>2026-04-12T13:59:49.011Z</time></trkpt><trkpt lat="44.734959" lon="12.0616692"><ele>-3.0</ele><time>2026-04-12T13:59:50.011Z</time></trkpt><trkpt lat="44.7350174" lon="12.0618451"><ele>-3.0</ele><time>2026-04-12T13:59:51.012Z</time></trkpt><trkpt lat="44.7350818" lon="12.0620279"><ele>-3.25</ele><time>2026-04-12T13:59:52.011Z</time></trkpt><trkpt lat="44.7351428" lon="12.0622093"><ele>-3.5</ele><time>2026-04-12T13:59:53.011Z</time></trkpt><trkpt lat="44.735195" lon="12.062373"><ele>-3.75</ele><time>2026-04-12T13:59:54.012Z</time></trkpt><trkpt lat="44.7352436" lon="12.0625266"><ele>-4.0</ele><time>2026-04-12T13:59:55.011Z</time></trkpt><trkpt lat="44.7352885" lon="12.0626634"><ele>-4.0</ele><time>2026-04-12T13:59:56.011Z</time></trkpt><trkpt lat="44.7353337" lon="12.0627976"><ele>-4.0</ele><time>2026-04-12T13:59:57.012Z</time></trkpt><trkpt lat="44.735382" lon="12.0629486"><ele>-4.0</ele><time>2026-04-12T13:59:58.011Z</time></trkpt><trkpt lat="44.7354353" lon="12.0631108"><ele>-4.0</ele><time>2026-04-12T13:59:59.011Z</time></trkpt><trkpt lat="44.7354875" lon="12.0632659"><ele>-4.0</ele><time>2026-04-12T14:00:00.012Z</time></trkpt><trkpt lat="44.7355375" lon="12.0634144"><ele>-4.0</ele><time>2026-04-12T14:00:01.012Z</time></trkpt><trkpt lat="44.7355856" lon="12.0635629"><ele>-4.0</ele><time>2026-04-12T14:00:02.012Z</time></trkpt><trkpt lat="44.7356371" lon="12.0637114"><ele>-4.0</ele><time>2026-04-12T14:00:03.011Z</time></trkpt><trkpt lat="44.7356859" lon="12.0638579"><ele>-3.9999999999999996</ele><time>2026-04-12T14:00:04.011Z</time></trkpt><trkpt lat="44.7357281" lon="12.0639899"><ele>-4.0</ele><time>2026-04-12T14:00:05.012Z</time></trkpt><trkpt lat="44.7357617" lon="12.0641071"><ele>-4.0</ele><time>2026-04-12T14:00:06.011Z</time></trkpt><trkpt lat="44.7357912" lon="12.0642176"><ele>-4.0</ele><time>2026-04-12T14:00:07.012Z</time></trkpt><trkpt lat="44.7358199" lon="12.0643181"><ele>-3.9999999999999996</ele><time>2026-04-12T14:00:08.011Z</time></trkpt><trkpt lat="44.7358476" lon="12.0644064"><ele>-4.0</ele><time>2026-04-12T14:00:09.012Z</time></trkpt><trkpt lat="44.7358775" lon="12.0644872"><ele>-4.0</ele><time>2026-04-12T14:00:10.012Z</time></trkpt><trkpt lat="44.7359327" lon="12.0646338"><ele>-4.0</ele><time>2026-04-12T14:00:12.011Z</time></trkpt><trkpt lat="44.7359903" lon="12.0647613"><ele>-4.0</ele><time>2026-04-12T14:00:14.012Z</time></trkpt><trkpt lat="44.7360279" lon="12.0649012"><ele>-4.0</ele><time>2026-04-12T14:00:16.011Z</time></trkpt><trkpt lat="44.7360519" lon="12.0650135"><ele>-4.0</ele><time>2026-04-12T14:00:18.011Z</time></trkpt><trkpt lat="44.7360752" lon="12.0651071"><ele>-3.75</ele><time>2026-04-12T14:00:20.012Z</time></trkpt><trkpt lat="44.7361421" lon="12.0652808"><ele>-3.5</ele><time>2026-04-12T14:00:22.012Z</time></trkpt><trkpt lat="44.7361855" lon="12.0654065"><ele>-3.25</ele><time>2026-04-12T14:00:23.011Z</time></trkpt><trkpt lat="44.7362322" lon="12.0655444"><ele>-3.0</ele><time>2026-04-12T14:00:24.012Z</time></trkpt><trkpt lat="44.736282" lon="12.0656973"><ele>-2.75</ele><time>2026-04-12T14:00:25.011Z</time></trkpt><trkpt lat="44.7363384" lon="12.0658654"><ele>-2.5</ele><time>2026-04-12T14:00:26.011Z</time></trkpt><trkpt lat="44.7363973" lon="12.0660463"><ele>-2.25</ele><time>2026-04-12T14:00:27.012Z</time></trkpt><trkpt lat="44.7364597" lon="12.0662363"><ele>-2.0</ele><time>2026-04-12T14:00:28.011Z</time></trkpt><trkpt lat="44.7365263" lon="12.0664339"><ele>-2.333333333333333</ele><time>2026-04-12T14:00:29.012Z</time></trkpt><trkpt lat="44.7365938" lon="12.0666389"><ele>-2.6666666666666665</ele><time>2026-04-12T14:00:30.012Z</time></trkpt><trkpt lat="44.7366622" lon="12.0668488"><ele>-3.0</ele><time>2026-04-12T14:00:31.011Z</time></trkpt><trkpt lat="44.7367324" lon="12.0670619"><ele>-3.0</ele><time>2026-04-12T14:00:32.011Z</time></trkpt><trkpt lat="44.7368049" lon="12.0672783"><ele>-3.0</ele><time>2026-04-12T14:00:33.013Z</time></trkpt><trkpt lat="44.7368796" lon="12.0674973"><ele>-3.0</ele><time>2026-04-12T14:00:34.011Z</time></trkpt><trkpt lat="44.7369537" lon="12.0677206"><ele>-3.0</ele><time>2026-04-12T14:00:35.012Z</time></trkpt><trkpt lat="44.737026" lon="12.0679399"><ele>-3.0</ele><time>2026-04-12T14:00:36.012Z</time></trkpt><trkpt lat="44.7370956" lon="12.0681498"><ele>-3.0</ele><time>2026-04-12T14:00:37.011Z</time></trkpt><trkpt lat="44.7371637" lon="12.0683597"><ele>-3.0</ele><time>2026-04-12T14:00:38.011Z</time></trkpt><trkpt lat="44.7372334" lon="12.068567"><ele>-3.0</ele><time>2026-04-12T14:00:39.011Z</time></trkpt><trkpt lat="44.7373047" lon="12.0687704"><ele>-3.0</ele><time>2026-04-12T14:00:40.012Z</time></trkpt><trkpt lat="44.7373737" lon="12.068976"><ele>-3.333333333333333</ele><time>2026-04-12T14:00:41.011Z</time></trkpt><trkpt lat="44.7374442" lon="12.0691825"><ele>-3.6666666666666665</ele><time>2026-04-12T14:00:42.012Z</time></trkpt><trkpt lat="44.7375126" lon="12.0693915"><ele>-4.0</ele><time>2026-04-12T14:00:43.012Z</time></trkpt><trkpt lat="44.7375809" lon="12.0696018"><ele>-4.0</ele><time>2026-04-12T14:00:44.011Z</time></trkpt><trkpt lat="44.7376531" lon="12.0698125"><ele>-4.0</ele><time>2026-04-12T14:00:45.012Z</time></trkpt><trkpt lat="44.737725" lon="12.0700245"><ele>-4.0</ele><time>2026-04-12T14:00:46.012Z</time></trkpt><trkpt lat="44.7377944" lon="12.0702365"><ele>-4.0</ele><time>2026-04-12T14:00:47.011Z</time></trkpt><trkpt lat="44.7378646" lon="12.0704481"><ele>-4.0</ele><time>2026-04-12T14:00:48.011Z</time></trkpt><trkpt lat="44.7379361" lon="12.0706583"><ele>-4.0</ele><time>2026-04-12T14:00:49.012Z</time></trkpt><trkpt lat="44.7380062" lon="12.0708686"><ele>-4.0</ele><time>2026-04-12T14:00:50.011Z</time></trkpt><trkpt lat="44.7380742" lon="12.0710797"><ele>-4.0</ele><time>2026-04-12T14:00:51.011Z</time></trkpt><trkpt lat="44.7381421" lon="12.0712896"><ele>-4.0</ele><time>2026-04-12T14:00:52.013Z</time></trkpt><trkpt lat="44.7382114" lon="12.0714981"><ele>-4.0</ele><time>2026-04-12T14:00:53.012Z</time></trkpt><trkpt lat="44.7382824" lon="12.071707"><ele>-4.0</ele><time>2026-04-12T14:00:54.011Z</time></trkpt><trkpt lat="44.7383525" lon="12.0719187"><ele>-4.0</ele><time>2026-04-12T14:00:55.012Z</time></trkpt><trkpt lat="44.7384244" lon="12.0721299"><ele>-4.0</ele><time>2026-04-12T14:00:56.011Z</time></trkpt><trkpt lat="44.738495" lon="12.072343"><ele>-4.0</ele><time>2026-04-12T14:00:57.012Z</time></trkpt><trkpt lat="44.7385659" lon="12.0725565"><ele>-4.0</ele><time>2026-04-12T14:00:58.011Z</time></trkpt><trkpt lat="44.7386381" lon="12.0727689"><ele>-4.0</ele><time>2026-04-12T14:00:59.011Z</time></trkpt><trkpt lat="44.738711" lon="12.0729859"><ele>-4.0</ele><time>2026-04-12T14:01:00.011Z</time></trkpt><trkpt lat="44.7387841" lon="12.0732087"><ele>-4.0</ele><time>2026-04-12T14:01:01.012Z</time></trkpt><trkpt lat="44.7388586" lon="12.0734338"><ele>-4.0</ele><time>2026-04-12T14:01:02.012Z</time></trkpt><trkpt lat="44.7389337" lon="12.0736592"><ele>-4.0</ele><time>2026-04-12T14:01:03.012Z</time></trkpt><trkpt lat="44.7390102" lon="12.0738848"><ele>-4.0</ele><time>2026-04-12T14:01:04.011Z</time></trkpt><trkpt lat="44.7390866" lon="12.0741142"><ele>-3.6666666666666665</ele><time>2026-04-12T14:01:05.011Z</time></trkpt><trkpt lat="44.7391632" lon="12.0743473"><ele>-3.333333333333333</ele><time>2026-04-12T14:01:06.011Z</time></trkpt><trkpt lat="44.7392405" lon="12.0745813"><ele>-3.0</ele><time>2026-04-12T14:01:07.013Z</time></trkpt><trkpt lat="44.7393166" lon="12.0748032"><ele>-3.333333333333333</ele><time>2026-04-12T14:01:08.011Z</time></trkpt><trkpt lat="44.7393885" lon="12.0750179"><ele>-3.6666666666666665</ele><time>2026-04-12T14:01:09.011Z</time></trkpt><trkpt lat="44.7394614" lon="12.0752341"><ele>-4.0</ele><time>2026-04-12T14:01:10.012Z</time></trkpt><trkpt lat="44.7395341" lon="12.0754494"><ele>-4.0</ele><time>2026-04-12T14:01:11.012Z</time></trkpt><trkpt lat="44.7396059" lon="12.0756647"><ele>-4.0</ele><time>2026-04-12T14:01:12.012Z</time></trkpt><trkpt lat="44.7396773" lon="12.0758788"><ele>-4.0</ele><time>2026-04-12T14:01:13.012Z</time></trkpt><trkpt lat="44.7397491" lon="12.0760891"><ele>-3.6666666666666665</ele><time>2026-04-12T14:01:14.012Z</time></trkpt><trkpt lat="44.73982" lon="12.0762964"><ele>-3.333333333333333</ele><time>2026-04-12T14:01:15.011Z</time></trkpt><trkpt lat="44.7398901" lon="12.0765021"><ele>-3.0</ele><time>2026-04-12T14:01:16.012Z</time></trkpt><trkpt lat="44.7399594" lon="12.0767063"><ele>-3.0</ele><time>2026-04-12T14:01:17.011Z</time></trkpt><trkpt lat="44.7400244" lon="12.0769017"><ele>-3.0</ele><time>2026-04-12T14:01:18.012Z</time></trkpt><trkpt lat="44.7400874" lon="12.0770995"><ele>-3.0</ele><time>2026-04-12T14:01:19.012Z</time></trkpt><trkpt lat="44.7401582" lon="12.0773162"><ele>-2.6666666666666665</ele><time>2026-04-12T14:01:20.012Z</time></trkpt><trkpt lat="44.7402358" lon="12.0775397"><ele>-2.333333333333333</ele><time>2026-04-12T14:01:21.012Z</time></trkpt><trkpt lat="44.7403135" lon="12.0777717"><ele>-2.0</ele><time>2026-04-12T14:01:22.011Z</time></trkpt><trkpt lat="44.7403913" lon="12.0780069"><ele>-2.0</ele><time>2026-04-12T14:01:23.013Z</time></trkpt><trkpt lat="44.7404705" lon="12.0782426"><ele>-2.0</ele><time>2026-04-12T14:01:24.012Z</time></trkpt><trkpt lat="44.7405499" lon="12.0784816"><ele>-2.0</ele><time>2026-04-12T14:01:25.012Z</time></trkpt><trkpt lat="44.7406316" lon="12.0787221"><ele>-2.0</ele><time>2026-04-12T14:01:26.011Z</time></trkpt><trkpt lat="44.7407128" lon="12.0789661"><ele>-2.0</ele><time>2026-04-12T14:01:27.012Z</time></trkpt><trkpt lat="44.7407939" lon="12.0792151"><ele>-2.0</ele><time>2026-04-12T14:01:28.013Z</time></trkpt><trkpt lat="44.7408767" lon="12.0794672"><ele>-2.0</ele><time>2026-04-12T14:01:29.011Z</time></trkpt><trkpt lat="44.7409606" lon="12.0797195"><ele>-2.0</ele><time>2026-04-12T14:01:30.012Z</time></trkpt><trkpt lat="44.7410445" lon="12.0799674"><ele>-2.0</ele><time>2026-04-12T14:01:31.011Z</time></trkpt><trkpt lat="44.7411273" lon="12.0802133"><ele>-2.0</ele><time>2026-04-12T14:01:32.011Z</time></trkpt><trkpt lat="44.7412082" lon="12.0804577"><ele>-2.0</ele><time>2026-04-12T14:01:33.012Z</time></trkpt><trkpt lat="44.7412855" lon="12.080696"><ele>-2.0</ele><time>2026-04-12T14:01:34.012Z</time></trkpt><trkpt lat="44.7413606" lon="12.0809256"><ele>-2.0</ele><time>2026-04-12T14:01:35.011Z</time></trkpt><trkpt lat="44.7414365" lon="12.0811532"><ele>-2.0</ele><time>2026-04-12T14:01:36.012Z</time></trkpt><trkpt lat="44.7415146" lon="12.0813832"><ele>-2.0</ele><time>2026-04-12T14:01:37.011Z</time></trkpt><trkpt lat="44.7415916" lon="12.081615"><ele>-2.333333333333333</ele><time>2026-04-12T14:01:38.012Z</time></trkpt><trkpt lat="44.7416681" lon="12.0818482"><ele>-2.6666666666666665</ele><time>2026-04-12T14:01:39.011Z</time></trkpt><trkpt lat="44.7417478" lon="12.082084"><ele>-3.0</ele><time>2026-04-12T14:01:40.011Z</time></trkpt><trkpt lat="44.7418283" lon="12.0823239"><ele>-3.0</ele><time>2026-04-12T14:01:41.011Z</time></trkpt><trkpt lat="44.74191" lon="12.0825687"><ele>-3.0</ele><time>2026-04-12T14:01:42.012Z</time></trkpt><trkpt lat="44.7419929" lon="12.0828193"><ele>-3.0</ele><time>2026-04-12T14:01:43.012Z</time></trkpt><trkpt lat="44.742077" lon="12.083068"><ele>-3.333333333333333</ele><time>2026-04-12T14:01:44.011Z</time></trkpt><trkpt lat="44.7421594" lon="12.0833159"><ele>-3.6666666666666665</ele><time>2026-04-12T14:01:45.012Z</time></trkpt><trkpt lat="44.7422402" lon="12.0835644"><ele>-4.0</ele><time>2026-04-12T14:01:46.012Z</time></trkpt><trkpt lat="44.7423217" lon="12.0838129"><ele>-4.0</ele><time>2026-04-12T14:01:47.012Z</time></trkpt><trkpt lat="44.7424038" lon="12.0840612"><ele>-4.0</ele><time>2026-04-12T14:01:48.012Z</time></trkpt><trkpt lat="44.742485" lon="12.0843081"><ele>-4.0</ele><time>2026-04-12T14:01:49.011Z</time></trkpt><trkpt lat="44.7425661" lon="12.0845545"><ele>-4.0</ele><time>2026-04-12T14:01:50.012Z</time></trkpt><trkpt lat="44.7426471" lon="12.0848004"><ele>-4.0</ele><time>2026-04-12T14:01:51.012Z</time></trkpt><trkpt lat="44.7427284" lon="12.0850455"><ele>-4.0</ele><time>2026-04-12T14:01:52.011Z</time></trkpt><trkpt lat="44.7428105" lon="12.085289"><ele>-4.0</ele><time>2026-04-12T14:01:53.011Z</time></trkpt><trkpt lat="44.7428926" lon="12.0855316"><ele>-4.0</ele><time>2026-04-12T14:01:54.011Z</time></trkpt><trkpt lat="44.742972" lon="12.0857725"><ele>-4.0</ele><time>2026-04-12T14:01:55.011Z</time></trkpt><trkpt lat="44.7430454" lon="12.0859936"><ele>-3.75</ele><time>2026-04-12T14:01:56.013Z</time></trkpt><trkpt lat="44.7431113" lon="12.0861884"><ele>-3.5</ele><time>2026-04-12T14:01:57.012Z</time></trkpt><trkpt lat="44.7431725" lon="12.0863697"><ele>-3.25</ele><time>2026-04-12T14:01:58.011Z</time></trkpt><trkpt lat="44.7432288" lon="12.0865365"><ele>-3.0</ele><time>2026-04-12T14:01:59.011Z</time></trkpt><trkpt lat="44.7432782" lon="12.0866857"><ele>-3.0</ele><time>2026-04-12T14:02:00.013Z</time></trkpt><trkpt lat="44.7433239" lon="12.0868215"><ele>-3.0</ele><time>2026-04-12T14:02:01.012Z</time></trkpt><trkpt lat="44.7433671" lon="12.086949"><ele>-3.0</ele><time>2026-04-12T14:02:02.012Z</time></trkpt><trkpt lat="44.7434079" lon="12.0870706"><ele>-3.0</ele><time>2026-04-12T14:02:03.011Z</time></trkpt><trkpt lat="44.7434488" lon="12.0871874"><ele>-3.0</ele><time>2026-04-12T14:02:04.012Z</time></trkpt><trkpt lat="44.7434932" lon="12.0872944"><ele>-3.0</ele><time>2026-04-12T14:02:05.013Z</time></trkpt><trkpt lat="44.7435367" lon="12.0874091"><ele>-3.0</ele><time>2026-04-12T14:02:06.011Z</time></trkpt><trkpt lat="44.7435892" lon="12.0875519"><ele>-3.0</ele><time>2026-04-12T14:02:07.011Z</time></trkpt><trkpt lat="44.7436493" lon="12.0877111"><ele>-3.0</ele><time>2026-04-12T14:02:08.012Z</time></trkpt><trkpt lat="44.7437106" lon="12.0878708"><ele>-3.0</ele><time>2026-04-12T14:02:09.012Z</time></trkpt><trkpt lat="44.74377" lon="12.0880335"><ele>-3.0</ele><time>2026-04-12T14:02:10.011Z</time></trkpt><trkpt lat="44.7438247" lon="12.0882015"><ele>-3.0</ele><time>2026-04-12T14:02:11.012Z</time></trkpt><trkpt lat="44.7438809" lon="12.088372"><ele>-3.0</ele><time>2026-04-12T14:02:12.011Z</time></trkpt><trkpt lat="44.7439404" lon="12.0885404"><ele>-3.0</ele><time>2026-04-12T14:02:13.011Z</time></trkpt><trkpt lat="44.7439964" lon="12.0887011"><ele>-3.0</ele><time>2026-04-12T14:02:14.012Z</time></trkpt><trkpt lat="44.7440493" lon="12.0888694"><ele>-3.0</ele><time>2026-04-12T14:02:15.011Z</time></trkpt><trkpt lat="44.7441061" lon="12.0890472"><ele>-3.0</ele><time>2026-04-12T14:02:16.011Z</time></trkpt><trkpt lat="44.7441659" lon="12.0892257"><ele>-3.25</ele><time>2026-04-12T14:02:17.012Z</time></trkpt><trkpt lat="44.7442217" lon="12.0893906"><ele>-3.5</ele><time>2026-04-12T14:02:18.011Z</time></trkpt><trkpt lat="44.7442718" lon="12.0895385"><ele>-3.75</ele><time>2026-04-12T14:02:19.011Z</time></trkpt><trkpt lat="44.7443166" lon="12.0896803"><ele>-4.0</ele><time>2026-04-12T14:02:20.012Z</time></trkpt><trkpt lat="44.7443558" lon="12.0898159"><ele>-3.8000000000000003</ele><time>2026-04-12T14:02:21.011Z</time></trkpt><trkpt lat="44.7443859" lon="12.0899321"><ele>-3.6000000000000005</ele><time>2026-04-12T14:02:22.011Z</time></trkpt><trkpt lat="44.7444069" lon="12.0900194"><ele>-3.4</ele><time>2026-04-12T14:02:23.012Z</time></trkpt><trkpt lat="44.7444527" lon="12.0901214"><ele>-3.2</ele><time>2026-04-12T14:02:25.011Z</time></trkpt><trkpt lat="44.7445258" lon="12.0901218"><ele>-3.0</ele><time>2026-04-12T14:02:27.012Z</time></trkpt><trkpt lat="44.7446546" lon="12.0900314"><ele>-3.0</ele><time>2026-04-12T14:02:29.012Z</time></trkpt><trkpt lat="44.7447451" lon="12.08997"><ele>-3.0</ele><time>2026-04-12T14:02:30.013Z</time></trkpt><trkpt lat="44.7448291" lon="12.0899149"><ele>-3.0</ele><time>2026-04-12T14:02:31.012Z</time></trkpt><trkpt lat="44.7449092" lon="12.0898583"><ele>-3.0</ele><time>2026-04-12T14:02:32.012Z</time></trkpt><trkpt lat="44.7449873" lon="12.0897948"><ele>-3.0</ele><time>2026-04-12T14:02:33.011Z</time></trkpt><trkpt lat="44.7450646" lon="12.0897402"><ele>-3.0</ele><time>2026-04-12T14:02:34.011Z</time></trkpt><trkpt lat="44.745148" lon="12.0896917"><ele>-3.0</ele><time>2026-04-12T14:02:35.013Z</time></trkpt><trkpt lat="44.7452376" lon="12.089641"><ele>-3.0</ele><time>2026-04-12T14:02:36.012Z</time></trkpt><trkpt lat="44.745333" lon="12.0895984"><ele>-3.0</ele><time>2026-04-12T14:02:37.013Z</time></trkpt><trkpt lat="44.745438" lon="12.0895658"><ele>-3.0</ele><time>2026-04-12T14:02:38.011Z</time></trkpt><trkpt lat="44.7455499" lon="12.0895389"><ele>-3.0</ele><time>2026-04-12T14:02:39.011Z</time></trkpt><trkpt lat="44.7456608" lon="12.0895244"><ele>-3.0</ele><time>2026-04-12T14:02:40.011Z</time></trkpt><trkpt lat="44.7457717" lon="12.0895211"><ele>-3.0</ele><time>2026-04-12T14:02:41.011Z</time></trkpt><trkpt lat="44.7458844" lon="12.0895275"><ele>-3.0</ele><time>2026-04-12T14:02:42.012Z</time></trkpt><trkpt lat="44.745994" lon="12.0895476"><ele>-3.0</ele><time>2026-04-12T14:02:43.011Z</time></trkpt><trkpt lat="44.7461073" lon="12.0895703"><ele>-3.0</ele><time>2026-04-12T14:02:44.012Z</time></trkpt><trkpt lat="44.7462245" lon="12.089596"><ele>-3.0</ele><time>2026-04-12T14:02:45.012Z</time></trkpt><trkpt lat="44.7463441" lon="12.0896293"><ele>-3.0</ele><time>2026-04-12T14:02:46.011Z</time></trkpt><trkpt lat="44.7464645" lon="12.0896775"><ele>-3.0</ele><time>2026-04-12T14:02:47.013Z</time></trkpt><trkpt lat="44.7465868" lon="12.0897306"><ele>-3.0</ele><time>2026-04-12T14:02:48.011Z</time></trkpt><trkpt lat="44.7467076" lon="12.0897861"><ele>-3.0</ele><time>2026-04-12T14:02:49.011Z</time></trkpt><trkpt lat="44.7468158" lon="12.0898386"><ele>-3.0</ele><time>2026-04-12T14:02:50.011Z</time></trkpt><trkpt lat="44.746915" lon="12.0898886"><ele>-3.0</ele><time>2026-04-12T14:02:51.012Z</time></trkpt><trkpt lat="44.7470125" lon="12.0899534"><ele>-3.0</ele><time>2026-04-12T14:02:52.011Z</time></trkpt><trkpt lat="44.7471125" lon="12.0900296"><ele>-3.0</ele><time>2026-04-12T14:02:53.011Z</time></trkpt><trkpt lat="44.7472148" lon="12.0901073"><ele>-3.0</ele><time>2026-04-12T14:02:54.012Z</time></trkpt><trkpt lat="44.747322" lon="12.0901858"><ele>-3.0</ele><time>2026-04-12T14:02:55.011Z</time></trkpt><trkpt lat="44.7474365" lon="12.0902633"><ele>-3.0</ele><time>2026-04-12T14:02:56.011Z</time></trkpt><trkpt lat="44.7475591" lon="12.0903344"><ele>-3.0</ele><time>2026-04-12T14:02:57.012Z</time></trkpt><trkpt lat="44.747683" lon="12.090407"><ele>-3.0</ele><time>2026-04-12T14:02:58.011Z</time></trkpt><trkpt lat="44.7478023" lon="12.0904799"><ele>-3.0</ele><time>2026-04-12T14:02:59.012Z</time></trkpt><trkpt lat="44.7479235" lon="12.090542"><ele>-3.0</ele><time>2026-04-12T14:03:00.012Z</time></trkpt><trkpt lat="44.7480513" lon="12.0906162"><ele>-3.0</ele><time>2026-04-12T14:03:01.011Z</time></trkpt><trkpt lat="44.7481875" lon="12.0906945"><ele>-3.0</ele><time>2026-04-12T14:03:02.012Z</time></trkpt><trkpt lat="44.7483222" lon="12.0907729"><ele>-3.0</ele><time>2026-04-12T14:03:03.011Z</time></trkpt><trkpt lat="44.7484506" lon="12.0908497"><ele>-3.25</ele><time>2026-04-12T14:03:04.012Z</time></trkpt><trkpt lat="44.7485758" lon="12.0909221"><ele>-3.5</ele><time>2026-04-12T14:03:05.011Z</time></trkpt><trkpt lat="44.7487018" lon="12.0909914"><ele>-3.75</ele><time>2026-04-12T14:03:06.013Z</time></trkpt><trkpt lat="44.748826" lon="12.0910578"><ele>-4.0</ele><time>2026-04-12T14:03:07.012Z</time></trkpt><trkpt lat="44.7489416" lon="12.0911219"><ele>-4.0</ele><time>2026-04-12T14:03:08.012Z</time></trkpt><trkpt lat="44.7490459" lon="12.0911845"><ele>-4.0</ele><time>2026-04-12T14:03:09.012Z</time></trkpt><trkpt lat="44.7491533" lon="12.0912483"><ele>-4.0</ele><time>2026-04-12T14:03:10.012Z</time></trkpt><trkpt lat="44.7492536" lon="12.0913147"><ele>-4.0</ele><time>2026-04-12T14:03:11.011Z</time></trkpt><trkpt lat="44.7493446" lon="12.0913903"><ele>-4.0</ele><time>2026-04-12T14:03:12.011Z</time></trkpt><trkpt lat="44.7494431" lon="12.0914877"><ele>-3.75</ele><time>2026-04-12T14:03:13.012Z</time></trkpt><trkpt lat="44.7495378" lon="12.0916018"><ele>-3.5</ele><time>2026-04-12T14:03:14.011Z</time></trkpt><trkpt lat="44.7496296" lon="12.0917237"><ele>-3.25</ele><time>2026-04-12T14:03:15.011Z</time></trkpt><trkpt lat="44.7497173" lon="12.0918361"><ele>-3.0</ele><time>2026-04-12T14:03:16.012Z</time></trkpt><trkpt lat="44.7498039" lon="12.0919371"><ele>-3.0</ele><time>2026-04-12T14:03:17.011Z</time></trkpt><trkpt lat="44.7498898" lon="12.0920463"><ele>-3.0</ele><time>2026-04-12T14:03:18.011Z</time></trkpt><trkpt lat="44.7499782" lon="12.0921648"><ele>-3.0</ele><time>2026-04-12T14:03:19.012Z</time></trkpt><trkpt lat="44.7500623" lon="12.0922872"><ele>-3.0</ele><time>2026-04-12T14:03:20.012Z</time></trkpt><trkpt lat="44.7501357" lon="12.092414"><ele>-3.0</ele><time>2026-04-12T14:03:21.011Z</time></trkpt><trkpt lat="44.750205" lon="12.0925503"><ele>-3.0</ele><time>2026-04-12T14:03:22.011Z</time></trkpt><trkpt lat="44.750262" lon="12.0926785"><ele>-3.0</ele><time>2026-04-12T14:03:23.012Z</time></trkpt><trkpt lat="44.7503113" lon="12.0928227"><ele>-3.0</ele><time>2026-04-12T14:03:24.013Z</time></trkpt><trkpt lat="44.7503576" lon="12.0929863"><ele>-3.0</ele><time>2026-04-12T14:03:25.011Z</time></trkpt><trkpt lat="44.7504036" lon="12.0931583"><ele>-3.0</ele><time>2026-04-12T14:03:26.012Z</time></trkpt><trkpt lat="44.7504519" lon="12.093337"><ele>-3.0</ele><time>2026-04-12T14:03:27.012Z</time></trkpt><trkpt lat="44.7504995" lon="12.0935197"><ele>-3.0</ele><time>2026-04-12T14:03:28.011Z</time></trkpt><trkpt lat="44.7505447" lon="12.0937057"><ele>-3.0</ele><time>2026-04-12T14:03:29.011Z</time></trkpt><trkpt lat="44.7505824" lon="12.0938951"><ele>-3.0</ele><time>2026-04-12T14:03:30.011Z</time></trkpt><trkpt lat="44.7506095" lon="12.0940878"><ele>-3.0</ele><time>2026-04-12T14:03:31.013Z</time></trkpt><trkpt lat="44.7506313" lon="12.0942825"><ele>-3.0</ele><time>2026-04-12T14:03:32.011Z</time></trkpt><trkpt lat="44.750652" lon="12.0944768"><ele>-3.0</ele><time>2026-04-12T14:03:33.011Z</time></trkpt><trkpt lat="44.7506717" lon="12.0946781"><ele>-3.0</ele><time>2026-04-12T14:03:34.011Z</time></trkpt><trkpt lat="44.750687" lon="12.0948742"><ele>-3.0</ele><time>2026-04-12T14:03:35.012Z</time></trkpt><trkpt lat="44.7506999" lon="12.0950783"><ele>-3.0</ele><time>2026-04-12T14:03:36.011Z</time></trkpt><trkpt lat="44.7507075" lon="12.0952699"><ele>-2.75</ele><time>2026-04-12T14:03:37.011Z</time></trkpt><trkpt lat="44.7507133" lon="12.0954418"><ele>-2.5</ele><time>2026-04-12T14:03:38.011Z</time></trkpt><trkpt lat="44.7507207" lon="12.0956057"><ele>-2.25</ele><time>2026-04-12T14:03:39.012Z</time></trkpt><trkpt lat="44.7507202" lon="12.0957838"><ele>-2.0</ele><time>2026-04-12T14:03:40.011Z</time></trkpt><trkpt lat="44.750718" lon="12.0959664"><ele>-2.0</ele><time>2026-04-12T14:03:41.011Z</time></trkpt><trkpt lat="44.7507159" lon="12.0961485"><ele>-2.0</ele><time>2026-04-12T14:03:42.011Z</time></trkpt><trkpt lat="44.7507139" lon="12.0963227"><ele>-2.0</ele><time>2026-04-12T14:03:43.011Z</time></trkpt><trkpt lat="44.750713" lon="12.0964773"><ele>-2.0</ele><time>2026-04-12T14:03:44.011Z</time></trkpt><trkpt lat="44.7507162" lon="12.0966035"><ele>-2.2</ele><time>2026-04-12T14:03:45.012Z</time></trkpt><trkpt lat="44.7507332" lon="12.0967147"><ele>-2.4000000000000004</ele><time>2026-04-12T14:03:46.011Z</time></trkpt><trkpt lat="44.7507688" lon="12.0968041"><ele>-2.5999999999999996</ele><time>2026-04-12T14:03:47.012Z</time></trkpt><trkpt lat="44.7508285" lon="12.0968944"><ele>-2.8</ele><time>2026-04-12T14:03:48.012Z</time></trkpt><trkpt lat="44.7509114" lon="12.0969788"><ele>-3.0</ele><time>2026-04-12T14:03:49.011Z</time></trkpt><trkpt lat="44.7510115" lon="12.097074"><ele>-3.0</ele><time>2026-04-12T14:03:50.012Z</time></trkpt><trkpt lat="44.751098" lon="12.0971634"><ele>-3.0</ele><time>2026-04-12T14:03:51.011Z</time></trkpt><trkpt lat="44.7511676" lon="12.0972533"><ele>-3.0</ele><time>2026-04-12T14:03:52.012Z</time></trkpt><trkpt lat="44.7512375" lon="12.0973658"><ele>-3.0</ele><time>2026-04-12T14:03:53.011Z</time></trkpt><trkpt lat="44.7512965" lon="12.097496"><ele>-3.0</ele><time>2026-04-12T14:03:54.011Z</time></trkpt><trkpt lat="44.7513492" lon="12.0976533"><ele>-3.0</ele><time>2026-04-12T14:03:55.011Z</time></trkpt><trkpt lat="44.7513947" lon="12.0978274"><ele>-3.0</ele><time>2026-04-12T14:03:56.011Z</time></trkpt><trkpt lat="44.7514377" lon="12.0980158"><ele>-3.0</ele><time>2026-04-12T14:03:57.012Z</time></trkpt><trkpt lat="44.7514785" lon="12.0982048"><ele>-3.0</ele><time>2026-04-12T14:03:58.011Z</time></trkpt><trkpt lat="44.7515171" lon="12.0983909"><ele>-2.5</ele><time>2026-04-12T14:03:59.013Z</time></trkpt><trkpt lat="44.7515543" lon="12.0985687"><ele>-2.0</ele><time>2026-04-12T14:04:00.011Z</time></trkpt><trkpt lat="44.7515916" lon="12.0987424"><ele>-1.5</ele><time>2026-04-12T14:04:01.012Z</time></trkpt><trkpt lat="44.751627" lon="12.0989114"><ele>-1.0</ele><time>2026-04-12T14:04:02.012Z</time></trkpt><trkpt lat="44.7516616" lon="12.0990807"><ele>-1.0</ele><time>2026-04-12T14:04:03.012Z</time></trkpt><trkpt lat="44.7516958" lon="12.0992404"><ele>-1.0</ele><time>2026-04-12T14:04:04.012Z</time></trkpt><trkpt lat="44.7517303" lon="12.0993967"><ele>-1.0</ele><time>2026-04-12T14:04:05.011Z</time></trkpt><trkpt lat="44.7517661" lon="12.0995598"><ele>-1.0</ele><time>2026-04-12T14:04:06.012Z</time></trkpt><trkpt lat="44.7518017" lon="12.099726"><ele>-1.0</ele><time>2026-04-12T14:04:07.011Z</time></trkpt><trkpt lat="44.7518389" lon="12.0998951"><ele>-1.0</ele><time>2026-04-12T14:04:08.011Z</time></trkpt><trkpt lat="44.7518762" lon="12.1000685"><ele>-1.0</ele><time>2026-04-12T14:04:09.012Z</time></trkpt><trkpt lat="44.751912" lon="12.1002412"><ele>-1.0</ele><time>2026-04-12T14:04:10.012Z</time></trkpt><trkpt lat="44.7519487" lon="12.1004074"><ele>-0.9999999999999999</ele><time>2026-04-12T14:04:11.012Z</time></trkpt><trkpt lat="44.7519801" lon="12.1005535"><ele>-1.0</ele><time>2026-04-12T14:04:12.011Z</time></trkpt><trkpt lat="44.7520101" lon="12.1006887"><ele>-1.0</ele><time>2026-04-12T14:04:13.011Z</time></trkpt><trkpt lat="44.7520364" lon="12.100809"><ele>-1.0</ele><time>2026-04-12T14:04:14.011Z</time></trkpt><trkpt lat="44.7520587" lon="12.1009156"><ele>-0.9999999999999999</ele><time>2026-04-12T14:04:15.011Z</time></trkpt><trkpt lat="44.75208" lon="12.1010054"><ele>-1.0</ele><time>2026-04-12T14:04:16.012Z</time></trkpt><trkpt lat="44.7521141" lon="12.1011454"><ele>-0.9999999999999999</ele><time>2026-04-12T14:04:18.012Z</time></trkpt><trkpt lat="44.752126" lon="12.1012392"><ele>-1.0</ele><time>2026-04-12T14:04:20.011Z</time></trkpt><trkpt lat="44.7521323" lon="12.1013722"><ele>-1.0</ele><time>2026-04-12T14:04:25.012Z</time></trkpt><trkpt lat="44.752121" lon="12.101465"><ele>-1.0</ele><time>2026-04-12T14:04:26.011Z</time></trkpt><trkpt lat="44.7521015" lon="12.1015846"><ele>-0.9999999999999999</ele><time>2026-04-12T14:04:27.011Z</time></trkpt><trkpt lat="44.7520783" lon="12.1017203"><ele>-1.0</ele><time>2026-04-12T14:04:28.011Z</time></trkpt><trkpt lat="44.7520547" lon="12.1018712"><ele>-1.5</ele><time>2026-04-12T14:04:29.013Z</time></trkpt><trkpt lat="44.7520318" lon="12.1020398"><ele>-2.0</ele><time>2026-04-12T14:04:30.012Z</time></trkpt><trkpt lat="44.7520076" lon="12.1022187"><ele>-2.5</ele><time>2026-04-12T14:04:31.011Z</time></trkpt><trkpt lat="44.751977" lon="12.1024127"><ele>-3.0</ele><time>2026-04-12T14:04:32.011Z</time></trkpt><trkpt lat="44.7519479" lon="12.1026141"><ele>-3.333333333333333</ele><time>2026-04-12T14:04:33.012Z</time></trkpt><trkpt lat="44.7519151" lon="12.1028181"><ele>-3.6666666666666665</ele><time>2026-04-12T14:04:34.012Z</time></trkpt><trkpt lat="44.7518833" lon="12.1030322"><ele>-4.0</ele><time>2026-04-12T14:04:35.011Z</time></trkpt><trkpt lat="44.7518535" lon="12.1032447"><ele>-3.6666666666666665</ele><time>2026-04-12T14:04:36.011Z</time></trkpt><trkpt lat="44.7518235" lon="12.1034612"><ele>-3.333333333333333</ele><time>2026-04-12T14:04:37.012Z</time></trkpt><trkpt lat="44.7517893" lon="12.1036929"><ele>-3.0</ele><time>2026-04-12T14:04:38.011Z</time></trkpt><trkpt lat="44.7517536" lon="12.1039274"><ele>-3.0</ele><time>2026-04-12T14:04:39.012Z</time></trkpt><trkpt lat="44.7517162" lon="12.1041687"><ele>-3.0</ele><time>2026-04-12T14:04:40.011Z</time></trkpt><trkpt lat="44.7516777" lon="12.1044179"><ele>-3.0</ele><time>2026-04-12T14:04:41.011Z</time></trkpt><trkpt lat="44.7516359" lon="12.1046729"><ele>-3.333333333333333</ele><time>2026-04-12T14:04:42.011Z</time></trkpt><trkpt lat="44.7515953" lon="12.1049321"><ele>-3.6666666666666665</ele><time>2026-04-12T14:04:43.011Z</time></trkpt><trkpt lat="44.7515532" lon="12.105196"><ele>-4.0</ele><time>2026-04-12T14:04:44.012Z</time></trkpt><trkpt lat="44.751512" lon="12.1054636"><ele>-4.0</ele><time>2026-04-12T14:04:45.012Z</time></trkpt><trkpt lat="44.7514703" lon="12.1057355"><ele>-4.0</ele><time>2026-04-12T14:04:46.011Z</time></trkpt><trkpt lat="44.7514293" lon="12.1060076"><ele>-4.0</ele><time>2026-04-12T14:04:47.012Z</time></trkpt><trkpt lat="44.7513894" lon="12.1062802"><ele>-4.0</ele><time>2026-04-12T14:04:48.012Z</time></trkpt><trkpt lat="44.7513497" lon="12.1065506"><ele>-4.0</ele><time>2026-04-12T14:04:49.012Z</time></trkpt><trkpt lat="44.7513079" lon="12.1068237"><ele>-4.0</ele><time>2026-04-12T14:04:50.011Z</time></trkpt><trkpt lat="44.7512642" lon="12.1070958"><ele>-4.333333333333333</ele><time>2026-04-12T14:04:51.011Z</time></trkpt><trkpt lat="44.7512241" lon="12.1073678"><ele>-4.666666666666667</ele><time>2026-04-12T14:04:52.012Z</time></trkpt><trkpt lat="44.7511804" lon="12.1076443"><ele>-5.0</ele><time>2026-04-12T14:04:53.011Z</time></trkpt><trkpt lat="44.7511382" lon="12.1079221"><ele>-5.0</ele><time>2026-04-12T14:04:54.011Z</time></trkpt><trkpt lat="44.7510961" lon="12.1082001"><ele>-5.0</ele><time>2026-04-12T14:04:55.011Z</time></trkpt><trkpt lat="44.7510529" lon="12.1084841"><ele>-5.0</ele><time>2026-04-12T14:04:56.012Z</time></trkpt><trkpt lat="44.7510066" lon="12.1087705"><ele>-5.333333333333334</ele><time>2026-04-12T14:04:57.013Z</time></trkpt><trkpt lat="44.7509643" lon="12.1090603"><ele>-5.666666666666667</ele><time>2026-04-12T14:04:58.012Z</time></trkpt><trkpt lat="44.7509209" lon="12.1093542"><ele>-6.0</ele><time>2026-04-12T14:04:59.011Z</time></trkpt><trkpt lat="44.750877" lon="12.1096483"><ele>-5.333333333333333</ele><time>2026-04-12T14:05:00.012Z</time></trkpt><trkpt lat="44.7508317" lon="12.1099438"><ele>-4.666666666666666</ele><time>2026-04-12T14:05:01.011Z</time></trkpt><trkpt lat="44.7507866" lon="12.1102402"><ele>-4.0</ele><time>2026-04-12T14:05:02.012Z</time></trkpt><trkpt lat="44.7507416" lon="12.1105388"><ele>-4.666666666666666</ele><time>2026-04-12T14:05:03.011Z</time></trkpt><trkpt lat="44.7506948" lon="12.1108381"><ele>-5.333333333333333</ele><time>2026-04-12T14:05:04.012Z</time></trkpt><trkpt lat="44.75065" lon="12.1111375"><ele>-6.0</ele><time>2026-04-12T14:05:05.011Z</time></trkpt><trkpt lat="44.7506053" lon="12.1114394"><ele>-6.0</ele><time>2026-04-12T14:05:06.011Z</time></trkpt><trkpt lat="44.7505596" lon="12.111742"><ele>-6.0</ele><time>2026-04-12T14:05:07.012Z</time></trkpt><trkpt lat="44.7505136" lon="12.1120433"><ele>-6.0</ele><time>2026-04-12T14:05:08.011Z</time></trkpt><trkpt lat="44.7504667" lon="12.1123453"><ele>-5.666666666666667</ele><time>2026-04-12T14:05:09.012Z</time></trkpt><trkpt lat="44.7504204" lon="12.1126474"><ele>-5.333333333333334</ele><time>2026-04-12T14:05:10.012Z</time></trkpt><trkpt lat="44.7503749" lon="12.1129495"><ele>-5.0</ele><time>2026-04-12T14:05:11.012Z</time></trkpt><trkpt lat="44.7503295" lon="12.1132519"><ele>-5.0</ele><time>2026-04-12T14:05:12.011Z</time></trkpt><trkpt lat="44.750283" lon="12.1135518"><ele>-5.0</ele><time>2026-04-12T14:05:13.011Z</time></trkpt><trkpt lat="44.750241" lon="12.1138382"><ele>-5.0</ele><time>2026-04-12T14:05:14.011Z</time></trkpt><trkpt lat="44.7502" lon="12.1141158"><ele>-5.0</ele><time>2026-04-12T14:05:15.012Z</time></trkpt><trkpt lat="44.7501562" lon="12.1143931"><ele>-5.0</ele><time>2026-04-12T14:05:16.011Z</time></trkpt><trkpt lat="44.7501149" lon="12.1146653"><ele>-5.0</ele><time>2026-04-12T14:05:17.011Z</time></trkpt><trkpt lat="44.750078" lon="12.114919"><ele>-4.75</ele><time>2026-04-12T14:05:18.011Z</time></trkpt><trkpt lat="44.7500428" lon="12.1151463"><ele>-4.5</ele><time>2026-04-12T14:05:19.011Z</time></trkpt><trkpt lat="44.7500124" lon="12.1153515"><ele>-4.25</ele><time>2026-04-12T14:05:20.011Z</time></trkpt><trkpt lat="44.7499862" lon="12.1155262"><ele>-4.0</ele><time>2026-04-12T14:05:21.011Z</time></trkpt><trkpt lat="44.7499663" lon="12.1156712"><ele>-4.333333333333333</ele><time>2026-04-12T14:05:22.012Z</time></trkpt><trkpt lat="44.7499473" lon="12.1157922"><ele>-4.666666666666666</ele><time>2026-04-12T14:05:23.011Z</time></trkpt><trkpt lat="44.7499315" lon="12.1158982"><ele>-5.0</ele><time>2026-04-12T14:05:24.012Z</time></trkpt><trkpt lat="44.7498892" lon="12.116021"><ele>-5.333333333333333</ele><time>2026-04-12T14:05:26.012Z</time></trkpt><trkpt lat="44.7498143" lon="12.1160241"><ele>-5.666666666666667</ele><time>2026-04-12T14:05:28.012Z</time></trkpt><trkpt lat="44.7497497" lon="12.1160045"><ele>-6.0</ele><time>2026-04-12T14:05:29.011Z</time></trkpt><trkpt lat="44.7496689" lon="12.1159729"><ele>-6.0</ele><time>2026-04-12T14:05:30.013Z</time></trkpt><trkpt lat="44.7495737" lon="12.1159342"><ele>-6.0</ele><time>2026-04-12T14:05:31.011Z</time></trkpt><trkpt lat="44.7494673" lon="12.1158965"><ele>-6.0</ele><time>2026-04-12T14:05:32.012Z</time></trkpt><trkpt lat="44.7493556" lon="12.1158569"><ele>-6.0</ele><time>2026-04-12T14:05:33.011Z</time></trkpt><trkpt lat="44.7492449" lon="12.1158105"><ele>-6.0</ele><time>2026-04-12T14:05:34.012Z</time></trkpt><trkpt lat="44.7491304" lon="12.1157605"><ele>-5.75</ele><time>2026-04-12T14:05:35.011Z</time></trkpt><trkpt lat="44.7490155" lon="12.1157135"><ele>-5.5</ele><time>2026-04-12T14:05:36.011Z</time></trkpt><trkpt lat="44.7488997" lon="12.115674"><ele>-5.25</ele><time>2026-04-12T14:05:37.012Z</time></trkpt><trkpt lat="44.748782" lon="12.1156338"><ele>-5.0</ele><time>2026-04-12T14:05:38.012Z</time></trkpt><trkpt lat="44.7486627" lon="12.115596"><ele>-5.25</ele><time>2026-04-12T14:05:39.011Z</time></trkpt><trkpt lat="44.7485394" lon="12.1155603"><ele>-5.5</ele><time>2026-04-12T14:05:40.011Z</time></trkpt><trkpt lat="44.7484153" lon="12.1155234"><ele>-5.75</ele><time>2026-04-12T14:05:41.012Z</time></trkpt><trkpt lat="44.748294" lon="12.1154881"><ele>-6.0</ele><time>2026-04-12T14:05:42.012Z</time></trkpt><trkpt lat="44.7481776" lon="12.1154528"><ele>-6.0</ele><time>2026-04-12T14:05:43.011Z</time></trkpt><trkpt lat="44.7480648" lon="12.1154191"><ele>-6.0</ele><time>2026-04-12T14:05:44.011Z</time></trkpt><trkpt lat="44.7479506" lon="12.1153854"><ele>-6.0</ele><time>2026-04-12T14:05:45.011Z</time></trkpt><trkpt lat="44.7478333" lon="12.1153558"><ele>-6.0</ele><time>2026-04-12T14:05:46.011Z</time></trkpt><trkpt lat="44.7477164" lon="12.1153251"><ele>-5.5</ele><time>2026-04-12T14:05:47.011Z</time></trkpt><trkpt lat="44.7475914" lon="12.1152881"><ele>-5.0</ele><time>2026-04-12T14:05:48.011Z</time></trkpt><trkpt lat="44.7474639" lon="12.1152501"><ele>-4.5</ele><time>2026-04-12T14:05:49.012Z</time></trkpt><trkpt lat="44.7473348" lon="12.1152121"><ele>-4.0</ele><time>2026-04-12T14:05:50.012Z</time></trkpt><trkpt lat="44.7472051" lon="12.1151722"><ele>-4.0</ele><time>2026-04-12T14:05:51.012Z</time></trkpt><trkpt lat="44.7470744" lon="12.1151341"><ele>-4.0</ele><time>2026-04-12T14:05:52.012Z</time></trkpt><trkpt lat="44.7469431" lon="12.1150955"><ele>-4.0</ele><time>2026-04-12T14:05:53.012Z</time></trkpt><trkpt lat="44.7468115" lon="12.1150566"><ele>-4.0</ele><time>2026-04-12T14:05:54.012Z</time></trkpt><trkpt lat="44.7466826" lon="12.1150202"><ele>-4.25</ele><time>2026-04-12T14:05:55.012Z</time></trkpt><trkpt lat="44.7465529" lon="12.1149811"><ele>-4.5</ele><time>2026-04-12T14:05:56.011Z</time></trkpt><trkpt lat="44.7464237" lon="12.1149404"><ele>-4.75</ele><time>2026-04-12T14:05:57.011Z</time></trkpt><trkpt lat="44.7462941" lon="12.1148998"><ele>-5.0</ele><time>2026-04-12T14:05:58.011Z</time></trkpt><trkpt lat="44.7461666" lon="12.1148607"><ele>-4.75</ele><time>2026-04-12T14:05:59.012Z</time></trkpt><trkpt lat="44.7460375" lon="12.1148218"><ele>-4.5</ele><time>2026-04-12T14:06:00.013Z</time></trkpt><trkpt lat="44.7459083" lon="12.1147828"><ele>-4.25</ele><time>2026-04-12T14:06:01.011Z</time></trkpt><trkpt lat="44.745778" lon="12.1147461"><ele>-4.0</ele><time>2026-04-12T14:06:02.011Z</time></trkpt><trkpt lat="44.7456463" lon="12.1147098"><ele>-4.0</ele><time>2026-04-12T14:06:03.012Z</time></trkpt><trkpt lat="44.7455143" lon="12.1146713"><ele>-4.0</ele><time>2026-04-12T14:06:04.012Z</time></trkpt><trkpt lat="44.745379" lon="12.1146297"><ele>-4.0</ele><time>2026-04-12T14:06:05.011Z</time></trkpt><trkpt lat="44.7452403" lon="12.1145895"><ele>-4.0</ele><time>2026-04-12T14:06:06.012Z</time></trkpt><trkpt lat="44.7451012" lon="12.1145473"><ele>-4.5</ele><time>2026-04-12T14:06:07.012Z</time></trkpt><trkpt lat="44.744961" lon="12.1145064"><ele>-5.0</ele><time>2026-04-12T14:06:08.011Z</time></trkpt><trkpt lat="44.7448205" lon="12.1144666"><ele>-5.5</ele><time>2026-04-12T14:06:09.011Z</time></trkpt><trkpt lat="44.7446806" lon="12.1144262"><ele>-6.0</ele><time>2026-04-12T14:06:10.011Z</time></trkpt><trkpt lat="44.7445386" lon="12.1143849"><ele>-6.0</ele><time>2026-04-12T14:06:11.011Z</time></trkpt><trkpt lat="44.7443975" lon="12.1143423"><ele>-6.0</ele><time>2026-04-12T14:06:12.011Z</time></trkpt><trkpt lat="44.7442582" lon="12.1143011"><ele>-6.0</ele><time>2026-04-12T14:06:13.011Z</time></trkpt><trkpt lat="44.7441205" lon="12.1142579"><ele>-6.0</ele><time>2026-04-12T14:06:14.011Z</time></trkpt><trkpt lat="44.743991" lon="12.1142188"><ele>-5.5</ele><time>2026-04-12T14:06:15.012Z</time></trkpt><trkpt lat="44.7438621" lon="12.1141802"><ele>-5.0</ele><time>2026-04-12T14:06:16.011Z</time></trkpt><trkpt lat="44.7437369" lon="12.114144"><ele>-4.5</ele><time>2026-04-12T14:06:17.011Z</time></trkpt><trkpt lat="44.7436158" lon="12.1141072"><ele>-4.0</ele><time>2026-04-12T14:06:18.011Z</time></trkpt><trkpt lat="44.7434899" lon="12.114069"><ele>-4.0</ele><time>2026-04-12T14:06:19.012Z</time></trkpt><trkpt lat="44.7433618" lon="12.1140303"><ele>-4.0</ele><time>2026-04-12T14:06:20.011Z</time></trkpt><trkpt lat="44.7432291" lon="12.1139907"><ele>-4.0</ele><time>2026-04-12T14:06:21.011Z</time></trkpt><trkpt lat="44.7430938" lon="12.1139509"><ele>-4.0</ele><time>2026-04-12T14:06:22.012Z</time></trkpt><trkpt lat="44.7429568" lon="12.11391"><ele>-4.0</ele><time>2026-04-12T14:06:23.012Z</time></trkpt><trkpt lat="44.7428181" lon="12.1138664"><ele>-4.0</ele><time>2026-04-12T14:06:24.012Z</time></trkpt><trkpt lat="44.7426771" lon="12.1138226"><ele>-4.0</ele><time>2026-04-12T14:06:25.011Z</time></trkpt><trkpt lat="44.7425346" lon="12.113779"><ele>-4.0</ele><time>2026-04-12T14:06:26.012Z</time></trkpt><trkpt lat="44.7423905" lon="12.1137364"><ele>-4.0</ele><time>2026-04-12T14:06:27.012Z</time></trkpt><trkpt lat="44.7422449" lon="12.1136938"><ele>-4.0</ele><time>2026-04-12T14:06:28.012Z</time></trkpt><trkpt lat="44.7421007" lon="12.1136518"><ele>-4.0</ele><time>2026-04-12T14:06:29.011Z</time></trkpt><trkpt lat="44.741957" lon="12.1136045"><ele>-4.0</ele><time>2026-04-12T14:06:30.011Z</time></trkpt><trkpt lat="44.7418146" lon="12.1135597"><ele>-3.75</ele><time>2026-04-12T14:06:31.012Z</time></trkpt><trkpt lat="44.7416859" lon="12.1135199"><ele>-3.5</ele><time>2026-04-12T14:06:32.011Z</time></trkpt><trkpt lat="44.7415662" lon="12.1134825"><ele>-3.25</ele><time>2026-04-12T14:06:33.012Z</time></trkpt><trkpt lat="44.7414535" lon="12.1134498"><ele>-3.0</ele><time>2026-04-12T14:06:34.011Z</time></trkpt><trkpt lat="44.7413506" lon="12.1134139"><ele>-3.0</ele><time>2026-04-12T14:06:35.011Z</time></trkpt><trkpt lat="44.7412496" lon="12.1133668"><ele>-3.0</ele><time>2026-04-12T14:06:36.011Z</time></trkpt><trkpt lat="44.7411325" lon="12.1133181"><ele>-3.0</ele><time>2026-04-12T14:06:37.011Z</time></trkpt><trkpt lat="44.740995" lon="12.1132739"><ele>-3.0</ele><time>2026-04-12T14:06:38.012Z</time></trkpt><trkpt lat="44.7408502" lon="12.1132299"><ele>-3.0</ele><time>2026-04-12T14:06:39.012Z</time></trkpt><trkpt lat="44.7407001" lon="12.1131821"><ele>-3.0</ele><time>2026-04-12T14:06:40.013Z</time></trkpt><trkpt lat="44.7405449" lon="12.1131362"><ele>-3.0</ele><time>2026-04-12T14:06:41.012Z</time></trkpt><trkpt lat="44.7403874" lon="12.1130895"><ele>-3.0</ele><time>2026-04-12T14:06:42.012Z</time></trkpt><trkpt lat="44.7402263" lon="12.1130434"><ele>-3.0</ele><time>2026-04-12T14:06:43.011Z</time></trkpt><trkpt lat="44.7400649" lon="12.1129929"><ele>-3.0</ele><time>2026-04-12T14:06:44.011Z</time></trkpt><trkpt lat="44.7399033" lon="12.1129437"><ele>-3.666666666666667</ele><time>2026-04-12T14:06:45.011Z</time></trkpt><trkpt lat="44.7397396" lon="12.1128941"><ele>-4.333333333333334</ele><time>2026-04-12T14:06:46.011Z</time></trkpt><trkpt lat="44.7395747" lon="12.1128456"><ele>-5.0</ele><time>2026-04-12T14:06:47.012Z</time></trkpt><trkpt lat="44.739407" lon="12.1127965"><ele>-4.333333333333334</ele><time>2026-04-12T14:06:48.012Z</time></trkpt><trkpt lat="44.7392405" lon="12.1127478"><ele>-3.666666666666667</ele><time>2026-04-12T14:06:49.011Z</time></trkpt><trkpt lat="44.7390723" lon="12.1126995"><ele>-3.0</ele><time>2026-04-12T14:06:50.011Z</time></trkpt><trkpt lat="44.7389035" lon="12.1126511"><ele>-3.0</ele><time>2026-04-12T14:06:51.012Z</time></trkpt><trkpt lat="44.7387358" lon="12.1126013"><ele>-3.0</ele><time>2026-04-12T14:06:52.012Z</time></trkpt><trkpt lat="44.7385777" lon="12.1125503"><ele>-3.0</ele><time>2026-04-12T14:06:53.012Z</time></trkpt><trkpt lat="44.7384307" lon="12.1125053"><ele>-3.0</ele><time>2026-04-12T14:06:54.011Z</time></trkpt><trkpt lat="44.7382785" lon="12.1124633"><ele>-3.0</ele><time>2026-04-12T14:06:55.012Z</time></trkpt><trkpt lat="44.7381259" lon="12.1124165"><ele>-3.0</ele><time>2026-04-12T14:06:56.012Z</time></trkpt><trkpt lat="44.7379729" lon="12.1123688"><ele>-3.0</ele><time>2026-04-12T14:06:57.012Z</time></trkpt><trkpt lat="44.7378198" lon="12.1123234"><ele>-3.0</ele><time>2026-04-12T14:06:58.012Z</time></trkpt><trkpt lat="44.7376705" lon="12.1122765"><ele>-3.0</ele><time>2026-04-12T14:06:59.012Z</time></trkpt><trkpt lat="44.7375228" lon="12.1122314"><ele>-3.0</ele><time>2026-04-12T14:07:00.011Z</time></trkpt><trkpt lat="44.7373874" lon="12.1121917"><ele>-3.0</ele><time>2026-04-12T14:07:01.012Z</time></trkpt><trkpt lat="44.7372636" lon="12.1121557"><ele>-3.0</ele><time>2026-04-12T14:07:02.012Z</time></trkpt><trkpt lat="44.737149" lon="12.1121222"><ele>-3.0</ele><time>2026-04-12T14:07:03.012Z</time></trkpt><trkpt lat="44.7370329" lon="12.1120891"><ele>-3.0</ele><time>2026-04-12T14:07:04.011Z</time></trkpt><trkpt lat="44.7369125" lon="12.112056"><ele>-3.0</ele><time>2026-04-12T14:07:05.012Z</time></trkpt><trkpt lat="44.7367835" lon="12.1120187"><ele>-3.0</ele><time>2026-04-12T14:07:06.012Z</time></trkpt><trkpt lat="44.7366491" lon="12.1119765"><ele>-3.0</ele><time>2026-04-12T14:07:07.012Z</time></trkpt><trkpt lat="44.7365069" lon="12.1119333"><ele>-3.0</ele><time>2026-04-12T14:07:08.012Z</time></trkpt><trkpt lat="44.736359" lon="12.1118905"><ele>-3.0</ele><time>2026-04-12T14:07:09.011Z</time></trkpt><trkpt lat="44.7362089" lon="12.1118463"><ele>-3.0</ele><time>2026-04-12T14:07:10.011Z</time></trkpt><trkpt lat="44.7360578" lon="12.1118031"><ele>-3.666666666666667</ele><time>2026-04-12T14:07:11.011Z</time></trkpt><trkpt lat="44.7359115" lon="12.1117573"><ele>-4.333333333333334</ele><time>2026-04-12T14:07:12.011Z</time></trkpt><trkpt lat="44.7357629" lon="12.1117117"><ele>-5.0</ele><time>2026-04-12T14:07:13.011Z</time></trkpt><trkpt lat="44.735612" lon="12.111668"><ele>-5.0</ele><time>2026-04-12T14:07:14.012Z</time></trkpt><trkpt lat="44.7354631" lon="12.1116229"><ele>-5.0</ele><time>2026-04-12T14:07:15.012Z</time></trkpt><trkpt lat="44.7353149" lon="12.1115772"><ele>-5.0</ele><time>2026-04-12T14:07:16.012Z</time></trkpt><trkpt lat="44.7351659" lon="12.1115322"><ele>-5.0</ele><time>2026-04-12T14:07:17.012Z</time></trkpt><trkpt lat="44.7350182" lon="12.1114889"><ele>-5.0</ele><time>2026-04-12T14:07:18.012Z</time></trkpt><trkpt lat="44.7348737" lon="12.111446"><ele>-5.0</ele><time>2026-04-12T14:07:19.011Z</time></trkpt><trkpt lat="44.7347317" lon="12.1114037"><ele>-5.0</ele><time>2026-04-12T14:07:20.012Z</time></trkpt><trkpt lat="44.7345919" lon="12.111361"><ele>-5.0</ele><time>2026-04-12T14:07:21.011Z</time></trkpt><trkpt lat="44.7344511" lon="12.1113184"><ele>-5.0</ele><time>2026-04-12T14:07:22.011Z</time></trkpt><trkpt lat="44.7343077" lon="12.1112753"><ele>-5.0</ele><time>2026-04-12T14:07:23.012Z</time></trkpt><trkpt lat="44.7341604" lon="12.1112311"><ele>-5.0</ele><time>2026-04-12T14:07:24.012Z</time></trkpt><trkpt lat="44.7340094" lon="12.1111849"><ele>-5.0</ele><time>2026-04-12T14:07:25.011Z</time></trkpt><trkpt lat="44.7338615" lon="12.1111418"><ele>-5.0</ele><time>2026-04-12T14:07:26.011Z</time></trkpt><trkpt lat="44.733713" lon="12.1110977"><ele>-5.0</ele><time>2026-04-12T14:07:27.012Z</time></trkpt><trkpt lat="44.7335718" lon="12.1110537"><ele>-5.0</ele><time>2026-04-12T14:07:28.012Z</time></trkpt><trkpt lat="44.7334288" lon="12.1110108"><ele>-5.0</ele><time>2026-04-12T14:07:29.013Z</time></trkpt><trkpt lat="44.7332871" lon="12.1109654"><ele>-5.0</ele><time>2026-04-12T14:07:30.011Z</time></trkpt><trkpt lat="44.7331594" lon="12.1109269"><ele>-5.0</ele><time>2026-04-12T14:07:31.011Z</time></trkpt><trkpt lat="44.7330427" lon="12.1108908"><ele>-5.0</ele><time>2026-04-12T14:07:32.012Z</time></trkpt><trkpt lat="44.7329361" lon="12.1108564"><ele>-5.0</ele><time>2026-04-12T14:07:33.012Z</time></trkpt><trkpt lat="44.7328312" lon="12.110824"><ele>-5.0</ele><time>2026-04-12T14:07:34.011Z</time></trkpt><trkpt lat="44.7327324" lon="12.1107984"><ele>-5.0</ele><time>2026-04-12T14:07:35.013Z</time></trkpt><trkpt lat="44.7326445" lon="12.1107841"><ele>-5.0</ele><time>2026-04-12T14:07:36.011Z</time></trkpt><trkpt lat="44.7325694" lon="12.1107886"><ele>-5.0</ele><time>2026-04-12T14:07:37.01Z</time></trkpt><trkpt lat="44.7324855" lon="12.1107997"><ele>-5.0</ele><time>2026-04-12T14:07:39.011Z</time></trkpt><trkpt lat="44.7324019" lon="12.1107936"><ele>-5.0</ele><time>2026-04-12T14:07:41.011Z</time></trkpt><trkpt lat="44.7323068" lon="12.1107785"><ele>-5.0</ele><time>2026-04-12T14:07:43.011Z</time></trkpt><trkpt lat="44.7322436" lon="12.1107578"><ele>-5.0</ele><time>2026-04-12T14:07:44.01Z</time></trkpt><trkpt lat="44.7321708" lon="12.1107347"><ele>-5.0</ele><time>2026-04-12T14:07:45.011Z</time></trkpt><trkpt lat="44.7321022" lon="12.1107082"><ele>-5.0</ele><time>2026-04-12T14:07:46.011Z</time></trkpt><trkpt lat="44.7320401" lon="12.1106815"><ele>-5.0</ele><time>2026-04-12T14:07:47.01Z</time></trkpt><trkpt lat="44.7319565" lon="12.1106563"><ele>-5.0</ele><time>2026-04-12T14:07:48.011Z</time></trkpt><trkpt lat="44.7318597" lon="12.1106281"><ele>-5.0</ele><time>2026-04-12T14:07:49.011Z</time></trkpt><trkpt lat="44.7317543" lon="12.1105956"><ele>-5.0</ele><time>2026-04-12T14:07:50.012Z</time></trkpt><trkpt lat="44.7316517" lon="12.110565"><ele>-5.0</ele><time>2026-04-12T14:07:51.011Z</time></trkpt><trkpt lat="44.7315525" lon="12.1105347"><ele>-5.0</ele><time>2026-04-12T14:07:52.011Z</time></trkpt><trkpt lat="44.7314563" lon="12.1105056"><ele>-5.0</ele><time>2026-04-12T14:07:53.01Z</time></trkpt><trkpt lat="44.7313577" lon="12.1104742"><ele>-5.0</ele><time>2026-04-12T14:07:54.011Z</time></trkpt><trkpt lat="44.7312578" lon="12.1104427"><ele>-5.0</ele><time>2026-04-12T14:07:55.011Z</time></trkpt><trkpt lat="44.731156" lon="12.1104114"><ele>-5.0</ele><time>2026-04-12T14:07:56.01Z</time></trkpt><trkpt lat="44.7310605" lon="12.1103798"><ele>-5.166666666666667</ele><time>2026-04-12T14:07:57.01Z</time></trkpt><trkpt lat="44.7309748" lon="12.1103528"><ele>-5.333333333333334</ele><time>2026-04-12T14:07:58.011Z</time></trkpt><trkpt lat="44.7308846" lon="12.1103263"><ele>-5.5</ele><time>2026-04-12T14:07:59.01Z</time></trkpt><trkpt lat="44.7307974" lon="12.1103003"><ele>-5.666666666666667</ele><time>2026-04-12T14:08:00.011Z</time></trkpt><trkpt lat="44.7307075" lon="12.1102728"><ele>-5.833333333333333</ele><time>2026-04-12T14:08:01.011Z</time></trkpt><trkpt lat="44.730629" lon="12.1102476"><ele>-6.0</ele><time>2026-04-12T14:08:02.011Z</time></trkpt><trkpt lat="44.7305619" lon="12.1102253"><ele>-6.0</ele><time>2026-04-12T14:08:03.011Z</time></trkpt><trkpt lat="44.7304554" lon="12.110196"><ele>-6.0</ele><time>2026-04-12T14:08:05.01Z</time></trkpt><trkpt lat="44.7303933" lon="12.1101527"><ele>-6.0</ele><time>2026-04-12T14:08:07.011Z</time></trkpt><trkpt lat="44.7303354" lon="12.1100737"><ele>-6.0</ele><time>2026-04-12T14:08:09.011Z</time></trkpt><trkpt lat="44.7302381" lon="12.1100266"><ele>-6.0</ele><time>2026-04-12T14:08:11.01Z</time></trkpt><trkpt lat="44.7301621" lon="12.1100035"><ele>-6.0</ele><time>2026-04-12T14:08:12.011Z</time></trkpt><trkpt lat="44.7300756" lon="12.109975"><ele>-6.0</ele><time>2026-04-12T14:08:13.012Z</time></trkpt><trkpt lat="44.729981" lon="12.109947"><ele>-6.0</ele><time>2026-04-12T14:08:14.01Z</time></trkpt><trkpt lat="44.7298838" lon="12.1099201"><ele>-6.0</ele><time>2026-04-12T14:08:15.01Z</time></trkpt><trkpt lat="44.7297825" lon="12.1098914"><ele>-6.0</ele><time>2026-04-12T14:08:16.011Z</time></trkpt><trkpt lat="44.7296795" lon="12.1098628"><ele>-6.0</ele><time>2026-04-12T14:08:17.01Z</time></trkpt><trkpt lat="44.729577" lon="12.1098332"><ele>-6.0</ele><time>2026-04-12T14:08:18.01Z</time></trkpt><trkpt lat="44.7294704" lon="12.1098021"><ele>-6.0</ele><time>2026-04-12T14:08:19.011Z</time></trkpt><trkpt lat="44.7293599" lon="12.1097687"><ele>-6.0</ele><time>2026-04-12T14:08:20.01Z</time></trkpt><trkpt lat="44.7292512" lon="12.1097351"><ele>-6.0</ele><time>2026-04-12T14:08:21.011Z</time></trkpt><trkpt lat="44.7291456" lon="12.1097015"><ele>-6.0</ele><time>2026-04-12T14:08:22.01Z</time></trkpt><trkpt lat="44.7290355" lon="12.109667"><ele>-5.8</ele><time>2026-04-12T14:08:23.01Z</time></trkpt><trkpt lat="44.7289262" lon="12.1096317"><ele>-5.6</ele><time>2026-04-12T14:08:24.011Z</time></trkpt><trkpt lat="44.7288208" lon="12.1095966"><ele>-5.4</ele><time>2026-04-12T14:08:25.01Z</time></trkpt><trkpt lat="44.7287158" lon="12.1095623"><ele>-5.2</ele><time>2026-04-12T14:08:26.01Z</time></trkpt><trkpt lat="44.7286076" lon="12.1095253"><ele>-5.0</ele><time>2026-04-12T14:08:27.011Z</time></trkpt><trkpt lat="44.7285047" lon="12.1094919"><ele>-4.833333333333334</ele><time>2026-04-12T14:08:28.01Z</time></trkpt><trkpt lat="44.7284136" lon="12.1094628"><ele>-4.666666666666667</ele><time>2026-04-12T14:08:29.011Z</time></trkpt><trkpt lat="44.7283297" lon="12.1094372"><ele>-4.5</ele><time>2026-04-12T14:08:30.012Z</time></trkpt><trkpt lat="44.7282559" lon="12.1094179"><ele>-4.333333333333333</ele><time>2026-04-12T14:08:31.01Z</time></trkpt><trkpt lat="44.7281491" lon="12.1094076"><ele>-4.166666666666666</ele><time>2026-04-12T14:08:33.011Z</time></trkpt><trkpt lat="44.7281004" lon="12.1094825"><ele>-4.0</ele><time>2026-04-12T14:08:35.01Z</time></trkpt><trkpt lat="44.7280811" lon="12.1095672"><ele>-4.0</ele><time>2026-04-12T14:08:36.01Z</time></trkpt><trkpt lat="44.7280622" lon="12.1097036"><ele>-4.0</ele><time>2026-04-12T14:08:37.012Z</time></trkpt><trkpt lat="44.7280343" lon="12.109897"><ele>-4.0</ele><time>2026-04-12T14:08:38.011Z</time></trkpt><trkpt lat="44.7280015" lon="12.1101044"><ele>-4.0</ele><time>2026-04-12T14:08:39.01Z</time></trkpt><trkpt lat="44.7279738" lon="12.1102867"><ele>-4.0</ele><time>2026-04-12T14:08:40.01Z</time></trkpt><trkpt lat="44.7279439" lon="12.1104734"><ele>-4.0</ele><time>2026-04-12T14:08:41.01Z</time></trkpt><trkpt lat="44.7279143" lon="12.1106567"><ele>-4.0</ele><time>2026-04-12T14:08:42.011Z</time></trkpt><trkpt lat="44.727885" lon="12.1108467"><ele>-4.0</ele><time>2026-04-12T14:08:43.01Z</time></trkpt><trkpt lat="44.7278548" lon="12.1110361"><ele>-4.0</ele><time>2026-04-12T14:08:44.01Z</time></trkpt><trkpt lat="44.7278254" lon="12.1112262"><ele>-4.0</ele><time>2026-04-12T14:08:45.01Z</time></trkpt><trkpt lat="44.7277961" lon="12.1114145"><ele>-4.0</ele><time>2026-04-12T14:08:46.01Z</time></trkpt><trkpt lat="44.7277669" lon="12.1116033"><ele>-4.0</ele><time>2026-04-12T14:08:47.01Z</time></trkpt><trkpt lat="44.7277422" lon="12.1117962"><ele>-4.0</ele><time>2026-04-12T14:08:48.01Z</time></trkpt><trkpt lat="44.7277152" lon="12.1119892"><ele>-4.0</ele><time>2026-04-12T14:08:49.011Z</time></trkpt><trkpt lat="44.7276832" lon="12.1121856"><ele>-4.0</ele><time>2026-04-12T14:08:50.01Z</time></trkpt><trkpt lat="44.7276507" lon="12.112387"><ele>-4.0</ele><time>2026-04-12T14:08:51.01Z</time></trkpt><trkpt lat="44.7276188" lon="12.1125932"><ele>-4.0</ele><time>2026-04-12T14:08:52.011Z</time></trkpt><trkpt lat="44.7275857" lon="12.1128046"><ele>-4.0</ele><time>2026-04-12T14:08:53.01Z</time></trkpt><trkpt lat="44.727552" lon="12.1130188"><ele>-4.0</ele><time>2026-04-12T14:08:54.01Z</time></trkpt><trkpt lat="44.7275189" lon="12.1132339"><ele>-3.6666666666666665</ele><time>2026-04-12T14:08:55.01Z</time></trkpt><trkpt lat="44.7274842" lon="12.1134491"><ele>-3.333333333333333</ele><time>2026-04-12T14:08:56.01Z</time></trkpt><trkpt lat="44.7274511" lon="12.1136632"><ele>-3.0</ele><time>2026-04-12T14:08:57.01Z</time></trkpt><trkpt lat="44.7274183" lon="12.1138736"><ele>-3.333333333333333</ele><time>2026-04-12T14:08:58.011Z</time></trkpt><trkpt lat="44.7273844" lon="12.1140849"><ele>-3.6666666666666665</ele><time>2026-04-12T14:08:59.011Z</time></trkpt><trkpt lat="44.72735" lon="12.1142956"><ele>-4.0</ele><time>2026-04-12T14:09:00.01Z</time></trkpt><trkpt lat="44.7273179" lon="12.1145032"><ele>-4.0</ele><time>2026-04-12T14:09:01.011Z</time></trkpt><trkpt lat="44.7272869" lon="12.1147056"><ele>-4.0</ele><time>2026-04-12T14:09:02.01Z</time></trkpt><trkpt lat="44.7272534" lon="12.1149109"><ele>-4.0</ele><time>2026-04-12T14:09:03.01Z</time></trkpt><trkpt lat="44.7272221" lon="12.1151169"><ele>-4.0</ele><time>2026-04-12T14:09:04.01Z</time></trkpt><trkpt lat="44.7271894" lon="12.1153282"><ele>-4.333333333333333</ele><time>2026-04-12T14:09:05.01Z</time></trkpt><trkpt lat="44.7271549" lon="12.1155417"><ele>-4.666666666666667</ele><time>2026-04-12T14:09:06.011Z</time></trkpt><trkpt lat="44.727118" lon="12.1157562"><ele>-5.0</ele><time>2026-04-12T14:09:07.011Z</time></trkpt><trkpt lat="44.7270822" lon="12.1159765"><ele>-4.666666666666667</ele><time>2026-04-12T14:09:08.01Z</time></trkpt><trkpt lat="44.7270461" lon="12.1162017"><ele>-4.333333333333333</ele><time>2026-04-12T14:09:09.01Z</time></trkpt><trkpt lat="44.7270104" lon="12.1164285"><ele>-4.0</ele><time>2026-04-12T14:09:10.01Z</time></trkpt><trkpt lat="44.7269747" lon="12.116659"><ele>-4.0</ele><time>2026-04-12T14:09:11.011Z</time></trkpt><trkpt lat="44.726938" lon="12.1168867"><ele>-4.0</ele><time>2026-04-12T14:09:12.011Z</time></trkpt><trkpt lat="44.7269048" lon="12.1170918"><ele>-4.0</ele><time>2026-04-12T14:09:13.01Z</time></trkpt><trkpt lat="44.7268738" lon="12.1172898"><ele>-3.5</ele><time>2026-04-12T14:09:14.011Z</time></trkpt><trkpt lat="44.7268419" lon="12.1174912"><ele>-3.0</ele><time>2026-04-12T14:09:15.011Z</time></trkpt><trkpt lat="44.7268112" lon="12.1176801"><ele>-2.5</ele><time>2026-04-12T14:09:16.011Z</time></trkpt><trkpt lat="44.7267837" lon="12.1178488"><ele>-2.0</ele><time>2026-04-12T14:09:17.011Z</time></trkpt><trkpt lat="44.7267613" lon="12.1180052"><ele>-2.0</ele><time>2026-04-12T14:09:18.011Z</time></trkpt><trkpt lat="44.7267315" lon="12.1181601"><ele>-2.0</ele><time>2026-04-12T14:09:19.01Z</time></trkpt><trkpt lat="44.7267007" lon="12.1183203"><ele>-2.0</ele><time>2026-04-12T14:09:20.011Z</time></trkpt><trkpt lat="44.7266758" lon="12.1184727"><ele>-2.0</ele><time>2026-04-12T14:09:21.01Z</time></trkpt><trkpt lat="44.7266537" lon="12.1186061"><ele>-2.0</ele><time>2026-04-12T14:09:22.011Z</time></trkpt><trkpt lat="44.7266344" lon="12.1187291"><ele>-2.1666666666666665</ele><time>2026-04-12T14:09:23.01Z</time></trkpt><trkpt lat="44.726619" lon="12.1188403"><ele>-2.333333333333333</ele><time>2026-04-12T14:09:24.011Z</time></trkpt><trkpt lat="44.7266075" lon="12.1189345"><ele>-2.5</ele><time>2026-04-12T14:09:25.01Z</time></trkpt><trkpt lat="44.7265845" lon="12.1190378"><ele>-2.6666666666666665</ele><time>2026-04-12T14:09:27.01Z</time></trkpt><trkpt lat="44.7265389" lon="12.1191344"><ele>-2.8333333333333335</ele><time>2026-04-12T14:09:32.011Z</time></trkpt><trkpt lat="44.726501" lon="12.1192623"><ele>-3.0</ele><time>2026-04-12T14:09:33.01Z</time></trkpt><trkpt lat="44.7264827" lon="12.119362"><ele>-2.6</ele><time>2026-04-12T14:09:34.01Z</time></trkpt><trkpt lat="44.7264652" lon="12.1194711"><ele>-2.1999999999999997</ele><time>2026-04-12T14:09:35.011Z</time></trkpt><trkpt lat="44.7264433" lon="12.119595"><ele>-1.8</ele><time>2026-04-12T14:09:36.01Z</time></trkpt><trkpt lat="44.7264209" lon="12.1197347"><ele>-1.4</ele><time>2026-04-12T14:09:37.011Z</time></trkpt><trkpt lat="44.7263977" lon="12.1198844"><ele>-1.0</ele><time>2026-04-12T14:09:38.01Z</time></trkpt><trkpt lat="44.7263705" lon="12.1200586"><ele>-1.0</ele><time>2026-04-12T14:09:39.01Z</time></trkpt><trkpt lat="44.7263397" lon="12.1202462"><ele>-1.0</ele><time>2026-04-12T14:09:40.011Z</time></trkpt><trkpt lat="44.7263062" lon="12.1204443"><ele>-1.0</ele><time>2026-04-12T14:09:41.011Z</time></trkpt><trkpt lat="44.7262732" lon="12.120649"><ele>-1.0</ele><time>2026-04-12T14:09:42.01Z</time></trkpt><trkpt lat="44.7262401" lon="12.1208615"><ele>-1.0</ele><time>2026-04-12T14:09:43.011Z</time></trkpt><trkpt lat="44.7262042" lon="12.1210804"><ele>-1.0</ele><time>2026-04-12T14:09:44.01Z</time></trkpt><trkpt lat="44.726167" lon="12.1213063"><ele>-1.0</ele><time>2026-04-12T14:09:45.011Z</time></trkpt><trkpt lat="44.726129" lon="12.1215361"><ele>-1.3333333333333333</ele><time>2026-04-12T14:09:46.011Z</time></trkpt><trkpt lat="44.726092" lon="12.1217676"><ele>-1.6666666666666665</ele><time>2026-04-12T14:09:47.01Z</time></trkpt><trkpt lat="44.7260548" lon="12.1219994"><ele>-2.0</ele><time>2026-04-12T14:09:48.011Z</time></trkpt><trkpt lat="44.7260195" lon="12.1222245"><ele>-2.6666666666666665</ele><time>2026-04-12T14:09:49.011Z</time></trkpt><trkpt lat="44.7259857" lon="12.1224504"><ele>-3.333333333333333</ele><time>2026-04-12T14:09:50.01Z</time></trkpt><trkpt lat="44.7259482" lon="12.1226877"><ele>-4.0</ele><time>2026-04-12T14:09:51.011Z</time></trkpt><trkpt lat="44.7259064" lon="12.1229466"><ele>-4.0</ele><time>2026-04-12T14:09:52.01Z</time></trkpt><trkpt lat="44.7258652" lon="12.1232134"><ele>-4.0</ele><time>2026-04-12T14:09:53.011Z</time></trkpt><trkpt lat="44.7258205" lon="12.1234858"><ele>-4.0</ele><time>2026-04-12T14:09:54.011Z</time></trkpt><trkpt lat="44.7257805" lon="12.1237387"><ele>-3.6666666666666665</ele><time>2026-04-12T14:09:55.012Z</time></trkpt><trkpt lat="44.7257416" lon="12.1239819"><ele>-3.333333333333333</ele><time>2026-04-12T14:09:56.01Z</time></trkpt><trkpt lat="44.7257044" lon="12.1242178"><ele>-3.0</ele><time>2026-04-12T14:09:57.01Z</time></trkpt><trkpt lat="44.7256661" lon="12.1244552"><ele>-3.0</ele><time>2026-04-12T14:09:58.01Z</time></trkpt><trkpt lat="44.7256288" lon="12.1246892"><ele>-3.0</ele><time>2026-04-12T14:09:59.011Z</time></trkpt><trkpt lat="44.7255953" lon="12.1249026"><ele>-3.0</ele><time>2026-04-12T14:10:00.012Z</time></trkpt><trkpt lat="44.7255632" lon="12.1251047"><ele>-3.666666666666667</ele><time>2026-04-12T14:10:01.01Z</time></trkpt><trkpt lat="44.72553" lon="12.1253031"><ele>-4.333333333333334</ele><time>2026-04-12T14:10:02.01Z</time></trkpt><trkpt lat="44.7254958" lon="12.1255037"><ele>-5.0</ele><time>2026-04-12T14:10:03.01Z</time></trkpt><trkpt lat="44.725456" lon="12.1257347"><ele>-5.333333333333334</ele><time>2026-04-12T14:10:04.011Z</time></trkpt><trkpt lat="44.7254157" lon="12.1259882"><ele>-5.666666666666667</ele><time>2026-04-12T14:10:05.011Z</time></trkpt><trkpt lat="44.7253736" lon="12.1262517"><ele>-6.0</ele><time>2026-04-12T14:10:06.01Z</time></trkpt><trkpt lat="44.7253337" lon="12.1265033"><ele>-6.0</ele><time>2026-04-12T14:10:07.011Z</time></trkpt><trkpt lat="44.725295" lon="12.126745"><ele>-6.0</ele><time>2026-04-12T14:10:08.01Z</time></trkpt><trkpt lat="44.725256" lon="12.1269903"><ele>-6.0</ele><time>2026-04-12T14:10:09.012Z</time></trkpt><trkpt lat="44.7252187" lon="12.1272286"><ele>-5.333333333333333</ele><time>2026-04-12T14:10:10.01Z</time></trkpt><trkpt lat="44.7251814" lon="12.127465"><ele>-4.666666666666666</ele><time>2026-04-12T14:10:11.011Z</time></trkpt><trkpt lat="44.725143" lon="12.1277088"><ele>-4.0</ele><time>2026-04-12T14:10:12.011Z</time></trkpt><trkpt lat="44.7251042" lon="12.1279455"><ele>-4.0</ele><time>2026-04-12T14:10:13.011Z</time></trkpt><trkpt lat="44.7250703" lon="12.1281614"><ele>-4.0</ele><time>2026-04-12T14:10:14.01Z</time></trkpt><trkpt lat="44.7250365" lon="12.12837"><ele>-4.0</ele><time>2026-04-12T14:10:15.01Z</time></trkpt><trkpt lat="44.7250013" lon="12.1285854"><ele>-4.0</ele><time>2026-04-12T14:10:16.01Z</time></trkpt><trkpt lat="44.7249696" lon="12.1287751"><ele>-4.0</ele><time>2026-04-12T14:10:17.01Z</time></trkpt><trkpt lat="44.7249406" lon="12.1289494"><ele>-4.0</ele><time>2026-04-12T14:10:18.01Z</time></trkpt><trkpt lat="44.7249138" lon="12.1291118"><ele>-4.0</ele><time>2026-04-12T14:10:19.01Z</time></trkpt><trkpt lat="44.7248908" lon="12.1292589"><ele>-4.2</ele><time>2026-04-12T14:10:20.01Z</time></trkpt><trkpt lat="44.7248818" lon="12.1293759"><ele>-4.4</ele><time>2026-04-12T14:10:21.012Z</time></trkpt><trkpt lat="44.7248804" lon="12.1295352"><ele>-4.6</ele><time>2026-04-12T14:10:23.01Z</time></trkpt><trkpt lat="44.7248787" lon="12.1296628"><ele>-4.8</ele><time>2026-04-12T14:10:25.011Z</time></trkpt><trkpt lat="44.7249061" lon="12.1297522"><ele>-5.0</ele><time>2026-04-12T14:10:50.012Z</time></trkpt><trkpt lat="44.7250338" lon="12.1297692"><ele>-5.0</ele><time>2026-04-12T14:10:52.01Z</time></trkpt><trkpt lat="44.7251211" lon="12.1297768"><ele>-5.0</ele><time>2026-04-12T14:10:53.011Z</time></trkpt><trkpt lat="44.7252152" lon="12.1297876"><ele>-5.0</ele><time>2026-04-12T14:10:54.012Z</time></trkpt><trkpt lat="44.7253145" lon="12.1298024"><ele>-5.0</ele><time>2026-04-12T14:10:55.01Z</time></trkpt><trkpt lat="44.7254155" lon="12.1298276"><ele>-5.0</ele><time>2026-04-12T14:10:56.011Z</time></trkpt><trkpt lat="44.7255073" lon="12.1298487"><ele>-4.833333333333334</ele><time>2026-04-12T14:10:57.011Z</time></trkpt><trkpt lat="44.7255947" lon="12.129863"><ele>-4.666666666666667</ele><time>2026-04-12T14:10:58.01Z</time></trkpt><trkpt lat="44.7256769" lon="12.1298771"><ele>-4.5</ele><time>2026-04-12T14:10:59.01Z</time></trkpt><trkpt lat="44.7257543" lon="12.1298958"><ele>-4.333333333333333</ele><time>2026-04-12T14:11:00.011Z</time></trkpt><trkpt lat="44.7258161" lon="12.129927"><ele>-4.166666666666666</ele><time>2026-04-12T14:11:01.01Z</time></trkpt><trkpt lat="44.7258739" lon="12.1300141"><ele>-4.0</ele><time>2026-04-12T14:11:02.01Z</time></trkpt><trkpt lat="44.7259353" lon="12.1300981"><ele>-3.6</ele><time>2026-04-12T14:11:03.01Z</time></trkpt><trkpt lat="44.7259646" lon="12.1302338"><ele>-3.2</ele><time>2026-04-12T14:11:04.01Z</time></trkpt><trkpt lat="44.7260019" lon="12.1303666"><ele>-2.8000000000000003</ele><time>2026-04-12T14:11:05.011Z</time></trkpt><trkpt lat="44.7260423" lon="12.1305028"><ele>-2.4000000000000004</ele><time>2026-04-12T14:11:06.011Z</time></trkpt><trkpt lat="44.7260784" lon="12.1306367"><ele>-2.0</ele><time>2026-04-12T14:11:07.01Z</time></trkpt><trkpt lat="44.7261159" lon="12.1307568"><ele>-2.0</ele><time>2026-04-12T14:11:08.01Z</time></trkpt><trkpt lat="44.7261497" lon="12.1308814"><ele>-2.0</ele><time>2026-04-12T14:11:09.011Z</time></trkpt><trkpt lat="44.7261824" lon="12.1309955"><ele>-2.0</ele><time>2026-04-12T14:11:10.01Z</time></trkpt><trkpt lat="44.7262075" lon="12.1311132"><ele>-2.0</ele><time>2026-04-12T14:11:11.01Z</time></trkpt><trkpt lat="44.7262416" lon="12.1312482"><ele>-2.0</ele><time>2026-04-12T14:11:12.011Z</time></trkpt><trkpt lat="44.7262796" lon="12.1313954"><ele>-2.0</ele><time>2026-04-12T14:11:13.01Z</time></trkpt><trkpt lat="44.7263212" lon="12.1315479"><ele>-2.0</ele><time>2026-04-12T14:11:14.011Z</time></trkpt><trkpt lat="44.7263655" lon="12.1316997"><ele>-2.0</ele><time>2026-04-12T14:11:15.01Z</time></trkpt><trkpt lat="44.7264071" lon="12.1318482"><ele>-2.0</ele><time>2026-04-12T14:11:16.01Z</time></trkpt><trkpt lat="44.7264455" lon="12.13199"><ele>-2.2</ele><time>2026-04-12T14:11:17.011Z</time></trkpt><trkpt lat="44.7264861" lon="12.1321331"><ele>-2.4000000000000004</ele><time>2026-04-12T14:11:18.01Z</time></trkpt><trkpt lat="44.7265266" lon="12.1322703"><ele>-2.5999999999999996</ele><time>2026-04-12T14:11:19.011Z</time></trkpt><trkpt lat="44.7265661" lon="12.1324006"><ele>-2.8</ele><time>2026-04-12T14:11:20.01Z</time></trkpt><trkpt lat="44.7266055" lon="12.1325327"><ele>-3.0</ele><time>2026-04-12T14:11:21.01Z</time></trkpt><trkpt lat="44.7266423" lon="12.1326674"><ele>-2.8</ele><time>2026-04-12T14:11:22.01Z</time></trkpt><trkpt lat="44.7266783" lon="12.1327933"><ele>-2.5999999999999996</ele><time>2026-04-12T14:11:23.011Z</time></trkpt><trkpt lat="44.7267114" lon="12.1329124"><ele>-2.4000000000000004</ele><time>2026-04-12T14:11:24.011Z</time></trkpt><trkpt lat="44.7267384" lon="12.1330097"><ele>-2.2</ele><time>2026-04-12T14:11:25.011Z</time></trkpt><trkpt lat="44.726744" lon="12.1331681"><ele>-2.0</ele><time>2026-04-12T14:11:27.01Z</time></trkpt><trkpt lat="44.7266634" lon="12.1332733"><ele>-2.0</ele><time>2026-04-12T14:11:29.01Z</time></trkpt><trkpt lat="44.7265995" lon="12.1333053"><ele>-1.9999999999999998</ele><time>2026-04-12T14:11:30.01Z</time></trkpt><trkpt lat="44.7265369" lon="12.1333339"><ele>-2.0</ele><time>2026-04-12T14:11:31.011Z</time></trkpt><trkpt lat="44.7264774" lon="12.1333652"><ele>-2.0</ele><time>2026-04-12T14:11:32.012Z</time></trkpt><trkpt lat="44.7264113" lon="12.133404"><ele>-1.9999999999999998</ele><time>2026-04-12T14:11:33.011Z</time></trkpt><trkpt lat="44.7263388" lon="12.1334433"><ele>-2.0</ele><time>2026-04-12T14:11:34.01Z</time></trkpt><trkpt lat="44.7262667" lon="12.1334816"><ele>-2.0</ele><time>2026-04-12T14:11:35.01Z</time></trkpt><trkpt lat="44.7261912" lon="12.1335219"><ele>-1.9999999999999998</ele><time>2026-04-12T14:11:36.011Z</time></trkpt><trkpt lat="44.7261134" lon="12.133568"><ele>-2.0</ele><time>2026-04-12T14:11:37.01Z</time></trkpt><trkpt lat="44.7260336" lon="12.1336171"><ele>-2.0</ele><time>2026-04-12T14:11:38.01Z</time></trkpt><trkpt lat="44.7259585" lon="12.1336568"><ele>-2.0</ele><time>2026-04-12T14:11:39.012Z</time></trkpt><trkpt lat="44.7258882" lon="12.1336935"><ele>-1.9999999999999998</ele><time>2026-04-12T14:11:40.01Z</time></trkpt><trkpt lat="44.725824" lon="12.1337226"><ele>-2.0</ele><time>2026-04-12T14:11:41.01Z</time></trkpt><trkpt lat="44.7257595" lon="12.133751"><ele>-1.4000000000000001</ele><time>2026-04-12T14:11:42.01Z</time></trkpt><trkpt lat="44.7256293" lon="12.1337947"><ele>-0.8000000000000002</ele><time>2026-04-12T14:11:44.011Z</time></trkpt><trkpt lat="44.7255577" lon="12.1338288"><ele>-0.19999999999999996</ele><time>2026-04-12T14:11:45.01Z</time></trkpt><trkpt lat="44.7254858" lon="12.1338673"><ele>0.4</ele><time>2026-04-12T14:11:46.011Z</time></trkpt><trkpt lat="44.725414" lon="12.1339112"><ele>1.0</ele><time>2026-04-12T14:11:47.011Z</time></trkpt><trkpt lat="44.7253352" lon="12.1339581"><ele>0.9999999999999999</ele><time>2026-04-12T14:11:48.011Z</time></trkpt><trkpt lat="44.7252643" lon="12.1340026"><ele>1.0</ele><time>2026-04-12T14:11:49.011Z</time></trkpt><trkpt lat="44.7251941" lon="12.1340541"><ele>1.0</ele><time>2026-04-12T14:11:50.01Z</time></trkpt><trkpt lat="44.7251234" lon="12.1341117"><ele>1.0</ele><time>2026-04-12T14:11:51.01Z</time></trkpt><trkpt lat="44.7250519" lon="12.1341632"><ele>0.9999999999999999</ele><time>2026-04-12T14:11:52.01Z</time></trkpt><trkpt lat="44.7249796" lon="12.1342114"><ele>1.0</ele><time>2026-04-12T14:11:53.01Z</time></trkpt><trkpt lat="44.724917" lon="12.1342465"><ele>0.6666666666666666</ele><time>2026-04-12T14:11:54.011Z</time></trkpt><trkpt lat="44.7248105" lon="12.1343068"><ele>0.3333333333333333</ele><time>2026-04-12T14:11:56.01Z</time></trkpt><trkpt lat="44.7247368" lon="12.1343432"><ele>0.0</ele><time>2026-04-12T14:11:58.01Z</time></trkpt><trkpt lat="44.724691" lon="12.1344129"><ele>-0.3333333333333333</ele><time>2026-04-12T14:12:02.01Z</time></trkpt><trkpt lat="44.7246995" lon="12.1345563"><ele>-0.6666666666666666</ele><time>2026-04-12T14:12:04.01Z</time></trkpt><trkpt lat="44.7247248" lon="12.1346549"><ele>-1.0</ele><time>2026-04-12T14:12:05.011Z</time></trkpt><trkpt lat="44.7247594" lon="12.1347653"><ele>-1.0</ele><time>2026-04-12T14:12:06.01Z</time></trkpt><trkpt lat="44.7247955" lon="12.1348964"><ele>-1.0</ele><time>2026-04-12T14:12:07.011Z</time></trkpt><trkpt lat="44.7248349" lon="12.1350416"><ele>-1.0</ele><time>2026-04-12T14:12:08.011Z</time></trkpt><trkpt lat="44.7248795" lon="12.1351981"><ele>-1.0</ele><time>2026-04-12T14:12:09.011Z</time></trkpt><trkpt lat="44.7249293" lon="12.1353655"><ele>-1.0</ele><time>2026-04-12T14:12:10.011Z</time></trkpt><trkpt lat="44.7249772" lon="12.135543"><ele>-1.0</ele><time>2026-04-12T14:12:11.01Z</time></trkpt><trkpt lat="44.7250316" lon="12.1357273"><ele>-1.0</ele><time>2026-04-12T14:12:12.01Z</time></trkpt><trkpt lat="44.7250895" lon="12.1359155"><ele>-1.0</ele><time>2026-04-12T14:12:13.011Z</time></trkpt><trkpt lat="44.725146" lon="12.13611"><ele>-1.0</ele><time>2026-04-12T14:12:14.012Z</time></trkpt><trkpt lat="44.725203" lon="12.1363163"><ele>-1.0</ele><time>2026-04-12T14:12:15.01Z</time></trkpt><trkpt lat="44.7252661" lon="12.1365279"><ele>-1.0</ele><time>2026-04-12T14:12:16.01Z</time></trkpt><trkpt lat="44.7253286" lon="12.1367462"><ele>-1.0</ele><time>2026-04-12T14:12:17.011Z</time></trkpt><trkpt lat="44.7253941" lon="12.1369689"><ele>-1.0</ele><time>2026-04-12T14:12:18.011Z</time></trkpt><trkpt lat="44.7254601" lon="12.1371988"><ele>-1.0</ele><time>2026-04-12T14:12:19.01Z</time></trkpt><trkpt lat="44.7255262" lon="12.1374299"><ele>-1.6666666666666665</ele><time>2026-04-12T14:12:20.01Z</time></trkpt><trkpt lat="44.7255954" lon="12.1376651"><ele>-2.3333333333333335</ele><time>2026-04-12T14:12:21.011Z</time></trkpt><trkpt lat="44.7256651" lon="12.1379034"><ele>-3.0</ele><time>2026-04-12T14:12:22.01Z</time></trkpt><trkpt lat="44.7257363" lon="12.1381408"><ele>-3.333333333333333</ele><time>2026-04-12T14:12:23.01Z</time></trkpt><trkpt lat="44.725807" lon="12.1383796"><ele>-3.6666666666666665</ele><time>2026-04-12T14:12:24.01Z</time></trkpt><trkpt lat="44.7258763" lon="12.1386196"><ele>-4.0</ele><time>2026-04-12T14:12:25.011Z</time></trkpt><trkpt lat="44.7259457" lon="12.1388608"><ele>-3.6666666666666665</ele><time>2026-04-12T14:12:26.011Z</time></trkpt><trkpt lat="44.7260156" lon="12.139102"><ele>-3.333333333333333</ele><time>2026-04-12T14:12:27.011Z</time></trkpt><trkpt lat="44.7260857" lon="12.1393445"><ele>-3.0</ele><time>2026-04-12T14:12:28.01Z</time></trkpt><trkpt lat="44.7261562" lon="12.1395875"><ele>-3.0</ele><time>2026-04-12T14:12:29.01Z</time></trkpt><trkpt lat="44.726229" lon="12.1398309"><ele>-3.0</ele><time>2026-04-12T14:12:30.01Z</time></trkpt><trkpt lat="44.726302" lon="12.1400777"><ele>-3.0</ele><time>2026-04-12T14:12:31.012Z</time></trkpt><trkpt lat="44.7263728" lon="12.1403264"><ele>-2.6666666666666665</ele><time>2026-04-12T14:12:32.01Z</time></trkpt><trkpt lat="44.7264434" lon="12.1405751"><ele>-2.333333333333333</ele><time>2026-04-12T14:12:33.01Z</time></trkpt><trkpt lat="44.7265161" lon="12.1408222"><ele>-2.0</ele><time>2026-04-12T14:12:34.01Z</time></trkpt><trkpt lat="44.7265888" lon="12.1410691"><ele>-2.0</ele><time>2026-04-12T14:12:35.01Z</time></trkpt><trkpt lat="44.726663" lon="12.1413197"><ele>-2.0</ele><time>2026-04-12T14:12:36.01Z</time></trkpt><trkpt lat="44.7267367" lon="12.141573"><ele>-2.0</ele><time>2026-04-12T14:12:37.01Z</time></trkpt><trkpt lat="44.7268109" lon="12.141828"><ele>-2.0</ele><time>2026-04-12T14:12:38.01Z</time></trkpt><trkpt lat="44.7268855" lon="12.1420855"><ele>-2.0</ele><time>2026-04-12T14:12:39.011Z</time></trkpt><trkpt lat="44.7269613" lon="12.1423448"><ele>-2.0</ele><time>2026-04-12T14:12:40.01Z</time></trkpt><trkpt lat="44.7270398" lon="12.1426071"><ele>-2.0</ele><time>2026-04-12T14:12:41.01Z</time></trkpt><trkpt lat="44.7271187" lon="12.1428715"><ele>-2.0</ele><time>2026-04-12T14:12:42.01Z</time></trkpt><trkpt lat="44.7271962" lon="12.14314"><ele>-2.0</ele><time>2026-04-12T14:12:43.01Z</time></trkpt><trkpt lat="44.7272742" lon="12.1434108"><ele>-2.0</ele><time>2026-04-12T14:12:44.01Z</time></trkpt><trkpt lat="44.7273531" lon="12.1436809"><ele>-2.0</ele><time>2026-04-12T14:12:45.01Z</time></trkpt><trkpt lat="44.7274326" lon="12.1439524"><ele>-2.0</ele><time>2026-04-12T14:12:46.011Z</time></trkpt><trkpt lat="44.7275126" lon="12.1442253"><ele>-2.0</ele><time>2026-04-12T14:12:47.01Z</time></trkpt><trkpt lat="44.7275929" lon="12.1444992"><ele>-2.0</ele><time>2026-04-12T14:12:48.011Z</time></trkpt><trkpt lat="44.7276725" lon="12.1447747"><ele>-2.0</ele><time>2026-04-12T14:12:49.01Z</time></trkpt><trkpt lat="44.7277516" lon="12.1450514"><ele>-2.6666666666666665</ele><time>2026-04-12T14:12:50.01Z</time></trkpt><trkpt lat="44.7278305" lon="12.1453278"><ele>-3.333333333333333</ele><time>2026-04-12T14:12:51.01Z</time></trkpt><trkpt lat="44.7279119" lon="12.1456041"><ele>-4.0</ele><time>2026-04-12T14:12:52.011Z</time></trkpt><trkpt lat="44.7279931" lon="12.1458814"><ele>-4.0</ele><time>2026-04-12T14:12:53.011Z</time></trkpt><trkpt lat="44.7280736" lon="12.1461604"><ele>-4.0</ele><time>2026-04-12T14:12:54.011Z</time></trkpt><trkpt lat="44.7281562" lon="12.1464397"><ele>-4.0</ele><time>2026-04-12T14:12:55.011Z</time></trkpt><trkpt lat="44.7282391" lon="12.1467205"><ele>-4.0</ele><time>2026-04-12T14:12:56.01Z</time></trkpt><trkpt lat="44.7283208" lon="12.1470031"><ele>-4.0</ele><time>2026-04-12T14:12:57.01Z</time></trkpt><trkpt lat="44.7284029" lon="12.1472865"><ele>-4.0</ele><time>2026-04-12T14:12:58.01Z</time></trkpt><trkpt lat="44.728485" lon="12.1475699"><ele>-4.0</ele><time>2026-04-12T14:12:59.01Z</time></trkpt><trkpt lat="44.728567" lon="12.1478529"><ele>-4.0</ele><time>2026-04-12T14:13:00.011Z</time></trkpt><trkpt lat="44.7286487" lon="12.1481343"><ele>-4.0</ele><time>2026-04-12T14:13:01.011Z</time></trkpt><trkpt lat="44.7287297" lon="12.1484111"><ele>-4.0</ele><time>2026-04-12T14:13:02.011Z</time></trkpt><trkpt lat="44.7288046" lon="12.1486698"><ele>-4.0</ele><time>2026-04-12T14:13:03.01Z</time></trkpt><trkpt lat="44.7288746" lon="12.1489097"><ele>-4.0</ele><time>2026-04-12T14:13:04.01Z</time></trkpt><trkpt lat="44.7289389" lon="12.1491291"><ele>-4.0</ele><time>2026-04-12T14:13:05.012Z</time></trkpt><trkpt lat="44.7289978" lon="12.1493263"><ele>-4.0</ele><time>2026-04-12T14:13:06.01Z</time></trkpt><trkpt lat="44.7290497" lon="12.1495043"><ele>-4.0</ele><time>2026-04-12T14:13:07.01Z</time></trkpt><trkpt lat="44.7290952" lon="12.1496656"><ele>-4.0</ele><time>2026-04-12T14:13:08.01Z</time></trkpt><trkpt lat="44.7291353" lon="12.1497977"><ele>-3.833333333333333</ele><time>2026-04-12T14:13:09.011Z</time></trkpt><trkpt lat="44.7291695" lon="12.1499139"><ele>-3.6666666666666665</ele><time>2026-04-12T14:13:10.011Z</time></trkpt><trkpt lat="44.7291867" lon="12.1500213"><ele>-3.5</ele><time>2026-04-12T14:13:11.01Z</time></trkpt><trkpt lat="44.72919" lon="12.1501303"><ele>-3.333333333333333</ele><time>2026-04-12T14:13:12.011Z</time></trkpt><trkpt lat="44.7291975" lon="12.1502414"><ele>-3.1666666666666665</ele><time>2026-04-12T14:13:13.01Z</time></trkpt><trkpt lat="44.7292186" lon="12.15035"><ele>-3.0</ele><time>2026-04-12T14:13:14.01Z</time></trkpt><trkpt lat="44.7292621" lon="12.1504476"><ele>-3.0</ele><time>2026-04-12T14:13:15.011Z</time></trkpt><trkpt lat="44.7293244" lon="12.1505485"><ele>-3.0</ele><time>2026-04-12T14:13:16.011Z</time></trkpt><trkpt lat="44.7293866" lon="12.1506647"><ele>-3.0</ele><time>2026-04-12T14:13:17.01Z</time></trkpt><trkpt lat="44.7294378" lon="12.1508094"><ele>-3.0</ele><time>2026-04-12T14:13:18.011Z</time></trkpt><trkpt lat="44.7294879" lon="12.1509797"><ele>-3.0</ele><time>2026-04-12T14:13:19.012Z</time></trkpt><trkpt lat="44.7295413" lon="12.1511597"><ele>-3.0</ele><time>2026-04-12T14:13:20.011Z</time></trkpt><trkpt lat="44.7295987" lon="12.1513514"><ele>-3.0</ele><time>2026-04-12T14:13:21.01Z</time></trkpt><trkpt lat="44.7296588" lon="12.1515566"><ele>-3.0</ele><time>2026-04-12T14:13:22.01Z</time></trkpt><trkpt lat="44.7297213" lon="12.1517701"><ele>-3.333333333333333</ele><time>2026-04-12T14:13:23.01Z</time></trkpt><trkpt lat="44.7297859" lon="12.1519939"><ele>-3.6666666666666665</ele><time>2026-04-12T14:13:24.01Z</time></trkpt><trkpt lat="44.7298511" lon="12.1522216"><ele>-4.0</ele><time>2026-04-12T14:13:25.011Z</time></trkpt><trkpt lat="44.7299188" lon="12.152455"><ele>-4.0</ele><time>2026-04-12T14:13:26.01Z</time></trkpt><trkpt lat="44.7299871" lon="12.1526957"><ele>-4.0</ele><time>2026-04-12T14:13:27.011Z</time></trkpt><trkpt lat="44.7300579" lon="12.1529403"><ele>-4.0</ele><time>2026-04-12T14:13:28.01Z</time></trkpt><trkpt lat="44.7301297" lon="12.1531882"><ele>-3.6666666666666665</ele><time>2026-04-12T14:13:29.01Z</time></trkpt><trkpt lat="44.730202" lon="12.1534373"><ele>-3.333333333333333</ele><time>2026-04-12T14:13:30.01Z</time></trkpt><trkpt lat="44.7302745" lon="12.1536875"><ele>-3.0</ele><time>2026-04-12T14:13:31.01Z</time></trkpt><trkpt lat="44.7303451" lon="12.1539388"><ele>-3.333333333333333</ele><time>2026-04-12T14:13:32.011Z</time></trkpt><trkpt lat="44.7304187" lon="12.1541954"><ele>-3.6666666666666665</ele><time>2026-04-12T14:13:33.01Z</time></trkpt><trkpt lat="44.7304917" lon="12.1544487"><ele>-4.0</ele><time>2026-04-12T14:13:34.011Z</time></trkpt><trkpt lat="44.7305644" lon="12.1547043"><ele>-4.0</ele><time>2026-04-12T14:13:35.01Z</time></trkpt><trkpt lat="44.730638" lon="12.1549642"><ele>-4.0</ele><time>2026-04-12T14:13:36.01Z</time></trkpt><trkpt lat="44.7307125" lon="12.1552199"><ele>-4.0</ele><time>2026-04-12T14:13:37.011Z</time></trkpt><trkpt lat="44.7307877" lon="12.155477"><ele>-4.333333333333333</ele><time>2026-04-12T14:13:38.01Z</time></trkpt><trkpt lat="44.7308612" lon="12.1557337"><ele>-4.666666666666667</ele><time>2026-04-12T14:13:39.011Z</time></trkpt><trkpt lat="44.7309335" lon="12.155991"><ele>-5.0</ele><time>2026-04-12T14:13:40.011Z</time></trkpt><trkpt lat="44.7310074" lon="12.1562493"><ele>-5.0</ele><time>2026-04-12T14:13:41.01Z</time></trkpt><trkpt lat="44.7310813" lon="12.1565084"><ele>-5.0</ele><time>2026-04-12T14:13:42.01Z</time></trkpt><trkpt lat="44.7311574" lon="12.1567708"><ele>-5.0</ele><time>2026-04-12T14:13:43.011Z</time></trkpt><trkpt lat="44.7312323" lon="12.1570342"><ele>-5.0</ele><time>2026-04-12T14:13:44.012Z</time></trkpt><trkpt lat="44.7313078" lon="12.1572978"><ele>-5.0</ele><time>2026-04-12T14:13:45.01Z</time></trkpt><trkpt lat="44.7313854" lon="12.1575603"><ele>-5.0</ele><time>2026-04-12T14:13:46.011Z</time></trkpt><trkpt lat="44.7314614" lon="12.1578184"><ele>-4.333333333333334</ele><time>2026-04-12T14:13:47.011Z</time></trkpt><trkpt lat="44.7315363" lon="12.1580727"><ele>-3.666666666666667</ele><time>2026-04-12T14:13:48.011Z</time></trkpt><trkpt lat="44.7316111" lon="12.1583264"><ele>-3.0</ele><time>2026-04-12T14:13:49.01Z</time></trkpt><trkpt lat="44.7316861" lon="12.1585823"><ele>-3.0</ele><time>2026-04-12T14:13:50.01Z</time></trkpt><trkpt lat="44.7317594" lon="12.1588395"><ele>-3.0</ele><time>2026-04-12T14:13:51.012Z</time></trkpt><trkpt lat="44.7318328" lon="12.1590988"><ele>-3.0</ele><time>2026-04-12T14:13:52.01Z</time></trkpt><trkpt lat="44.7319091" lon="12.1593599"><ele>-2.6666666666666665</ele><time>2026-04-12T14:13:53.01Z</time></trkpt><trkpt lat="44.731986" lon="12.1596231"><ele>-2.333333333333333</ele><time>2026-04-12T14:13:54.012Z</time></trkpt><trkpt lat="44.7320634" lon="12.1598875"><ele>-2.0</ele><time>2026-04-12T14:13:55.011Z</time></trkpt><trkpt lat="44.7321414" lon="12.1601549"><ele>-2.6666666666666665</ele><time>2026-04-12T14:13:56.01Z</time></trkpt><trkpt lat="44.7322189" lon="12.1604259"><ele>-3.333333333333333</ele><time>2026-04-12T14:13:57.01Z</time></trkpt><trkpt lat="44.7322979" lon="12.1606972"><ele>-4.0</ele><time>2026-04-12T14:13:58.011Z</time></trkpt><trkpt lat="44.7323782" lon="12.1609673"><ele>-4.333333333333333</ele><time>2026-04-12T14:13:59.01Z</time></trkpt><trkpt lat="44.7324572" lon="12.1612383"><ele>-4.666666666666667</ele><time>2026-04-12T14:14:00.011Z</time></trkpt><trkpt lat="44.7325356" lon="12.1615107"><ele>-5.0</ele><time>2026-04-12T14:14:01.011Z</time></trkpt><trkpt lat="44.7326146" lon="12.1617827"><ele>-5.0</ele><time>2026-04-12T14:14:02.011Z</time></trkpt><trkpt lat="44.732691" lon="12.1620552"><ele>-5.0</ele><time>2026-04-12T14:14:03.011Z</time></trkpt><trkpt lat="44.7327683" lon="12.1623274"><ele>-5.0</ele><time>2026-04-12T14:14:04.012Z</time></trkpt><trkpt lat="44.7328468" lon="12.1626013"><ele>-5.0</ele><time>2026-04-12T14:14:05.01Z</time></trkpt><trkpt lat="44.7329258" lon="12.1628745"><ele>-5.0</ele><time>2026-04-12T14:14:06.011Z</time></trkpt><trkpt lat="44.7330044" lon="12.1631456"><ele>-5.0</ele><time>2026-04-12T14:14:07.01Z</time></trkpt><trkpt lat="44.7330848" lon="12.1634151"><ele>-5.0</ele><time>2026-04-12T14:14:08.01Z</time></trkpt><trkpt lat="44.7331623" lon="12.163687"><ele>-5.0</ele><time>2026-04-12T14:14:09.01Z</time></trkpt><trkpt lat="44.73324" lon="12.1639568"><ele>-5.0</ele><time>2026-04-12T14:14:10.01Z</time></trkpt><trkpt lat="44.7333196" lon="12.1642246"><ele>-5.0</ele><time>2026-04-12T14:14:11.01Z</time></trkpt><trkpt lat="44.7333988" lon="12.1644925"><ele>-5.0</ele><time>2026-04-12T14:14:12.011Z</time></trkpt><trkpt lat="44.7334732" lon="12.1647505"><ele>-5.0</ele><time>2026-04-12T14:14:13.011Z</time></trkpt><trkpt lat="44.7335414" lon="12.1649914"><ele>-5.0</ele><time>2026-04-12T14:14:14.011Z</time></trkpt><trkpt lat="44.7336064" lon="12.1652189"><ele>-5.0</ele><time>2026-04-12T14:14:15.01Z</time></trkpt><trkpt lat="44.7336689" lon="12.1654305"><ele>-5.0</ele><time>2026-04-12T14:14:16.012Z</time></trkpt><trkpt lat="44.7337253" lon="12.1656238"><ele>-4.6</ele><time>2026-04-12T14:14:17.01Z</time></trkpt><trkpt lat="44.7337767" lon="12.1658003"><ele>-4.2</ele><time>2026-04-12T14:14:18.01Z</time></trkpt><trkpt lat="44.7338221" lon="12.1659571"><ele>-3.8</ele><time>2026-04-12T14:14:19.011Z</time></trkpt><trkpt lat="44.7338619" lon="12.1660964"><ele>-3.4</ele><time>2026-04-12T14:14:20.01Z</time></trkpt><trkpt lat="44.7338933" lon="12.1662052"><ele>-3.0</ele><time>2026-04-12T14:14:21.01Z</time></trkpt><trkpt lat="44.7338814" lon="12.1663631"><ele>-3.0</ele><time>2026-04-12T14:14:23.011Z</time></trkpt><trkpt lat="44.7338482" lon="12.1664481"><ele>-3.0</ele><time>2026-04-12T14:14:24.01Z</time></trkpt><trkpt lat="44.7337943" lon="12.1665226"><ele>-3.0</ele><time>2026-04-12T14:14:25.01Z</time></trkpt><trkpt lat="44.7337214" lon="12.1665858"><ele>-3.0</ele><time>2026-04-12T14:14:26.011Z</time></trkpt><trkpt lat="44.7336309" lon="12.1666392"><ele>-3.0</ele><time>2026-04-12T14:14:27.01Z</time></trkpt><trkpt lat="44.7335237" lon="12.166689"><ele>-3.0</ele><time>2026-04-12T14:14:28.011Z</time></trkpt><trkpt lat="44.7334046" lon="12.1667379"><ele>-2.5</ele><time>2026-04-12T14:14:29.01Z</time></trkpt><trkpt lat="44.7332793" lon="12.1667995"><ele>-2.0</ele><time>2026-04-12T14:14:30.011Z</time></trkpt><trkpt lat="44.7331485" lon="12.1668739"><ele>-1.5</ele><time>2026-04-12T14:14:31.011Z</time></trkpt><trkpt lat="44.7330109" lon="12.1669618"><ele>-1.0</ele><time>2026-04-12T14:14:32.011Z</time></trkpt><trkpt lat="44.7328723" lon="12.1670588"><ele>-1.0</ele><time>2026-04-12T14:14:33.011Z</time></trkpt><trkpt lat="44.732731" lon="12.1671593"><ele>-1.0</ele><time>2026-04-12T14:14:34.011Z</time></trkpt><trkpt lat="44.7325891" lon="12.1672583"><ele>-1.0</ele><time>2026-04-12T14:14:35.012Z</time></trkpt><trkpt lat="44.732457" lon="12.1673515"><ele>-1.25</ele><time>2026-04-12T14:14:36.011Z</time></trkpt><trkpt lat="44.7323284" lon="12.167436"><ele>-1.5</ele><time>2026-04-12T14:14:37.01Z</time></trkpt><trkpt lat="44.7321899" lon="12.1675115"><ele>-1.75</ele><time>2026-04-12T14:14:38.01Z</time></trkpt><trkpt lat="44.7320466" lon="12.1675841"><ele>-2.0</ele><time>2026-04-12T14:14:39.01Z</time></trkpt><trkpt lat="44.7319053" lon="12.167654"><ele>-2.0</ele><time>2026-04-12T14:14:40.011Z</time></trkpt><trkpt lat="44.7317718" lon="12.1677179"><ele>-2.0</ele><time>2026-04-12T14:14:41.011Z</time></trkpt><trkpt lat="44.7316365" lon="12.1677851"><ele>-2.0</ele><time>2026-04-12T14:14:42.01Z</time></trkpt><trkpt lat="44.7315023" lon="12.1678564"><ele>-2.0</ele><time>2026-04-12T14:14:43.01Z</time></trkpt><trkpt lat="44.7313652" lon="12.1679285"><ele>-2.0</ele><time>2026-04-12T14:14:44.01Z</time></trkpt><trkpt lat="44.7312269" lon="12.1680007"><ele>-2.0</ele><time>2026-04-12T14:14:45.011Z</time></trkpt><trkpt lat="44.7310848" lon="12.1680792"><ele>-2.0</ele><time>2026-04-12T14:14:46.011Z</time></trkpt><trkpt lat="44.7309421" lon="12.1681661"><ele>-2.333333333333333</ele><time>2026-04-12T14:14:47.01Z</time></trkpt><trkpt lat="44.7307983" lon="12.1682633"><ele>-2.6666666666666665</ele><time>2026-04-12T14:14:48.01Z</time></trkpt><trkpt lat="44.7306541" lon="12.1683666"><ele>-3.0</ele><time>2026-04-12T14:14:49.012Z</time></trkpt><trkpt lat="44.7305125" lon="12.1684728"><ele>-3.0</ele><time>2026-04-12T14:14:50.01Z</time></trkpt><trkpt lat="44.7303804" lon="12.1685754"><ele>-3.0</ele><time>2026-04-12T14:14:51.01Z</time></trkpt><trkpt lat="44.7302568" lon="12.168671"><ele>-3.0</ele><time>2026-04-12T14:14:52.01Z</time></trkpt><trkpt lat="44.7301458" lon="12.168753"><ele>-3.0</ele><time>2026-04-12T14:14:53.011Z</time></trkpt><trkpt lat="44.7300493" lon="12.1688316"><ele>-2.8333333333333335</ele><time>2026-04-12T14:14:54.01Z</time></trkpt><trkpt lat="44.7299817" lon="12.1689061"><ele>-2.6666666666666665</ele><time>2026-04-12T14:14:55.011Z</time></trkpt><trkpt lat="44.7299269" lon="12.1689874"><ele>-2.5</ele><time>2026-04-12T14:14:56.01Z</time></trkpt><trkpt lat="44.7298868" lon="12.1690774"><ele>-2.333333333333333</ele><time>2026-04-12T14:14:57.011Z</time></trkpt><trkpt lat="44.7298507" lon="12.1691856"><ele>-2.1666666666666665</ele><time>2026-04-12T14:14:58.011Z</time></trkpt><trkpt lat="44.7298185" lon="12.1692997"><ele>-2.0</ele><time>2026-04-12T14:14:59.01Z</time></trkpt><trkpt lat="44.7297798" lon="12.1694161"><ele>-2.0</ele><time>2026-04-12T14:15:00.01Z</time></trkpt><trkpt lat="44.7297382" lon="12.1695363"><ele>-2.0</ele><time>2026-04-12T14:15:01.01Z</time></trkpt><trkpt lat="44.729691" lon="12.1696596"><ele>-2.0</ele><time>2026-04-12T14:15:02.011Z</time></trkpt><trkpt lat="44.7296402" lon="12.169782"><ele>-2.0</ele><time>2026-04-12T14:15:03.011Z</time></trkpt><trkpt lat="44.7295951" lon="12.1698887"><ele>-2.0</ele><time>2026-04-12T14:15:04.01Z</time></trkpt><trkpt lat="44.729571" lon="12.1699852"><ele>-2.2</ele><time>2026-04-12T14:15:05.01Z</time></trkpt><trkpt lat="44.7295711" lon="12.1701443"><ele>-2.4000000000000004</ele><time>2026-04-12T14:15:07.012Z</time></trkpt><trkpt lat="44.7295123" lon="12.1702886"><ele>-2.5999999999999996</ele><time>2026-04-12T14:15:09.011Z</time></trkpt><trkpt lat="44.7294541" lon="12.1703965"><ele>-2.8</ele><time>2026-04-12T14:15:11.011Z</time></trkpt><trkpt lat="44.7294414" lon="12.1705139"><ele>-3.0</ele><time>2026-04-12T14:15:13.012Z</time></trkpt><trkpt lat="44.7294308" lon="12.1706021"><ele>-2.8</ele><time>2026-04-12T14:15:14.01Z</time></trkpt><trkpt lat="44.7294083" lon="12.170695"><ele>-2.5999999999999996</ele><time>2026-04-12T14:15:15.011Z</time></trkpt><trkpt lat="44.7293958" lon="12.17086"><ele>-2.4000000000000004</ele><time>2026-04-12T14:15:17.012Z</time></trkpt><trkpt lat="44.7294063" lon="12.1710083"><ele>-2.2</ele><time>2026-04-12T14:15:19.011Z</time></trkpt><trkpt lat="44.7295072" lon="12.1709883"><ele>-2.0</ele><time>2026-04-12T14:15:23.011Z</time></trkpt><trkpt lat="44.7295778" lon="12.17103"><ele>-2.0</ele><time>2026-04-12T14:15:24.976Z</time></trkpt><trkpt lat="44.7295718" lon="12.171135"><ele>-2.0</ele><time>2026-04-12T14:15:26.01Z</time></trkpt><trkpt lat="44.7295391" lon="12.1712548"><ele>-2.0</ele><time>2026-04-12T14:15:28.01Z</time></trkpt><trkpt lat="44.7295224" lon="12.1713905"><ele>-2.0</ele><time>2026-04-12T14:15:30.01Z</time></trkpt><trkpt lat="44.729525" lon="12.1715216"><ele>-2.0</ele><time>2026-04-12T14:15:32.01Z</time></trkpt><trkpt lat="44.7295524" lon="12.1716643"><ele>-1.3333333333333333</ele><time>2026-04-12T14:15:34.01Z</time></trkpt><trkpt lat="44.7296068" lon="12.1717397"><ele>-0.6666666666666666</ele><time>2026-04-12T14:15:36.01Z</time></trkpt><trkpt lat="44.7296867" lon="12.1717151"><ele>0.0</ele><time>2026-04-12T14:15:38.011Z</time></trkpt><trkpt lat="44.7297606" lon="12.1717015"><ele>0.6666666666666666</ele><time>2026-04-12T14:15:40.011Z</time></trkpt><trkpt lat="44.7298319" lon="12.1716999"><ele>1.3333333333333333</ele><time>2026-04-12T14:15:42.011Z</time></trkpt><trkpt lat="44.7299007" lon="12.1717041"><ele>2.0</ele><time>2026-04-12T14:15:44.025Z</time></trkpt><trkpt lat="44.7299801" lon="12.1717198"><ele>2.0</ele><time>2026-04-12T14:15:46.011Z</time></trkpt><trkpt lat="44.7300191" lon="12.1718069"><ele>1.9999999999999998</ele><time>2026-04-12T14:15:48.01Z</time></trkpt><trkpt lat="44.7300517" lon="12.1718828"><ele>2.0</ele><time>2026-04-12T14:15:50.011Z</time></trkpt><trkpt lat="44.7301374" lon="12.1718839"><ele>2.0</ele><time>2026-04-12T14:15:54.01Z</time></trkpt><trkpt lat="44.7302005" lon="12.171876"><ele>1.9999999999999998</ele><time>2026-04-12T14:15:56.011Z</time></trkpt><trkpt lat="44.7302731" lon="12.1718694"><ele>2.0</ele><time>2026-04-12T14:15:58.011Z</time></trkpt><trkpt lat="44.730344" lon="12.1718594"><ele>2.0</ele><time>2026-04-12T14:16:01.011Z</time></trkpt><trkpt lat="44.7304242" lon="12.1718755"><ele>2.0</ele><time>2026-04-12T14:16:04.012Z</time></trkpt><trkpt lat="44.7303783" lon="12.171948"><ele>2.0</ele><time>2026-04-12T14:16:10.01Z</time></trkpt><trkpt lat="44.7303097" lon="12.1719939"><ele>2.0</ele><time>2026-04-12T14:16:26.011Z</time></trkpt><trkpt lat="44.7302113" lon="12.1720509"><ele>2.0</ele><time>2026-04-12T14:16:28.011Z</time></trkpt><trkpt lat="44.7301094" lon="12.1721088"><ele>2.0</ele><time>2026-04-12T14:16:30.01Z</time></trkpt><trkpt lat="44.7299827" lon="12.1722077"><ele>1.9999999999999998</ele><time>2026-04-12T14:16:32.011Z</time></trkpt><trkpt lat="44.7299238" lon="12.172258"><ele>2.0</ele><time>2026-04-12T14:16:33.011Z</time></trkpt><trkpt lat="44.7298398" lon="12.1723331"><ele>2.0</ele><time>2026-04-12T14:16:35.011Z</time></trkpt><trkpt lat="44.7298034" lon="12.1724171"><ele>2.0</ele><time>2026-04-12T14:16:37.011Z</time></trkpt><trkpt lat="44.7298715" lon="12.1724741"><ele>1.9999999999999998</ele><time>2026-04-12T14:16:40.01Z</time></trkpt><trkpt lat="44.729958" lon="12.1724436"><ele>2.0</ele><time>2026-04-12T14:16:43.011Z</time></trkpt><trkpt lat="44.7299838" lon="12.1725493"><ele>1.9999999999999998</ele><time>2026-04-12T14:16:46.011Z</time></trkpt><trkpt lat="44.7299152" lon="12.1725938"><ele>2.0</ele><time>2026-04-12T14:16:48.011Z</time></trkpt><trkpt lat="44.7298526" lon="12.1726062"><ele>2.0</ele><time>2026-04-12T14:16:50.01Z</time></trkpt><trkpt lat="44.7297844" lon="12.1726279"><ele>2.0</ele><time>2026-04-12T14:16:54.01Z</time></trkpt><trkpt lat="44.7297279" lon="12.172555"><ele>1.9999999999999998</ele><time>2026-04-12T14:16:57.01Z</time></trkpt><trkpt lat="44.7297475" lon="12.1723853"><ele>2.0</ele><time>2026-04-12T14:16:59.011Z</time></trkpt><trkpt lat="44.7297546" lon="12.1722847"><ele>1.9999999999999998</ele><time>2026-04-12T14:17:00.01Z</time></trkpt><trkpt lat="44.7297585" lon="12.1721955"><ele>2.0</ele><time>2026-04-12T14:17:01.011Z</time></trkpt><trkpt lat="44.729751" lon="12.172056"><ele>2.0</ele><time>2026-04-12T14:17:03.01Z</time></trkpt><trkpt lat="44.7296711" lon="12.1720803"><ele>2.0</ele><time>2026-04-12T14:17:06.01Z</time></trkpt><trkpt lat="44.7296146" lon="12.1721586"><ele>1.9999999999999998</ele><time>2026-04-12T14:17:08.011Z</time></trkpt><trkpt lat="44.7295845" lon="12.1722558"><ele>2.0</ele><time>2026-04-12T14:17:11.011Z</time></trkpt><trkpt lat="44.7296342" lon="12.1723976"><ele>3.0</ele><time>2026-04-12T14:17:13.01Z</time></trkpt><trkpt lat="44.7296835" lon="12.1725371"><ele>4.0</ele><time>2026-04-12T14:17:14.01Z</time></trkpt><trkpt lat="44.7297218" lon="12.1726543"><ele>4.999999999999999</ele><time>2026-04-12T14:17:15.011Z</time></trkpt><trkpt lat="44.729756" lon="12.1727475"><ele>6.0</ele><time>2026-04-12T14:17:16.01Z</time></trkpt><trkpt lat="44.7298345" lon="12.1728515"><ele>7.0</ele><time>2026-04-12T14:17:18.011Z</time></trkpt><trkpt lat="44.7299063" lon="12.1728052"><ele>7.0</ele><time>2026-04-12T14:17:20.01Z</time></trkpt><trkpt lat="44.7300043" lon="12.1726854"><ele>6.999999999999999</ele><time>2026-04-12T14:17:22.01Z</time></trkpt><trkpt lat="44.7301039" lon="12.1726714"><ele>6.999999999999999</ele><time>2026-04-12T14:17:24.01Z</time></trkpt><trkpt lat="44.7301721" lon="12.1727714"><ele>7.0</ele><time>2026-04-12T14:17:26.011Z</time></trkpt><trkpt lat="44.7301893" lon="12.172872"><ele>7.0</ele><time>2026-04-12T14:17:27.01Z</time></trkpt><trkpt lat="44.7302143" lon="12.1730091"><ele>5.571428571428571</ele><time>2026-04-12T14:17:28.01Z</time></trkpt><trkpt lat="44.7302375" lon="12.1731062"><ele>4.142857142857143</ele><time>2026-04-12T14:17:29.011Z</time></trkpt><trkpt lat="44.7302608" lon="12.1731921"><ele>2.7142857142857144</ele><time>2026-04-12T14:17:30.011Z</time></trkpt><trkpt lat="44.7303205" lon="12.1732623"><ele>1.2857142857142858</ele><time>2026-04-12T14:17:32.01Z</time></trkpt><trkpt lat="44.7304062" lon="12.1732812"><ele>-0.1428571428571428</ele><time>2026-04-12T14:17:35.011Z</time></trkpt><trkpt lat="44.730484" lon="12.1732825"><ele>-1.5714285714285712</ele><time>2026-04-12T14:17:38.011Z</time></trkpt><trkpt lat="44.7305467" lon="12.1733017"><ele>-3.0</ele><time>2026-04-12T14:17:42.011Z</time></trkpt><trkpt lat="44.7306166" lon="12.1733031"><ele>-3.0</ele><time>2026-04-12T14:17:45.01Z</time></trkpt><trkpt lat="44.7306685" lon="12.1732383"><ele>-3.0</ele><time>2026-04-12T14:17:48.011Z</time></trkpt><trkpt lat="44.7307412" lon="12.1732234"><ele>-3.0</ele><time>2026-04-12T14:17:52.011Z</time></trkpt><trkpt lat="44.73077" lon="12.1733587"><ele>-3.0</ele><time>2026-04-12T14:17:55.011Z</time></trkpt><trkpt lat="44.7307904" lon="12.1734609"><ele>-3.0</ele><time>2026-04-12T14:17:57.94Z</time></trkpt><trkpt lat="44.7307648" lon="12.1735614"><ele>-3.0</ele><time>2026-04-12T14:18:01.01Z</time></trkpt><trkpt lat="44.7306877" lon="12.1735731"><ele>-3.0</ele><time>2026-04-12T14:18:26.011Z</time></trkpt><trkpt lat="44.7306225" lon="12.1735038"><ele>-3.0</ele><time>2026-04-12T14:18:28.01Z</time></trkpt><trkpt lat="44.7305437" lon="12.1734003"><ele>-3.0</ele><time>2026-04-12T14:18:30.011Z</time></trkpt><trkpt lat="44.7304481" lon="12.1732927"><ele>-3.0</ele><time>2026-04-12T14:18:32.011Z</time></trkpt><trkpt lat="44.7303647" lon="12.1732537"><ele>-3.0</ele><time>2026-04-12T14:18:34.01Z</time></trkpt><trkpt lat="44.730305" lon="12.1732849"><ele>-3.0</ele><time>2026-04-12T14:18:37.01Z</time></trkpt><trkpt lat="44.7302397" lon="12.173179"><ele>-3.0</ele><time>2026-04-12T14:19:16.01Z</time></trkpt><trkpt lat="44.7301916" lon="12.1731171"><ele>-3.0</ele><time>2026-04-12T14:19:18.011Z</time></trkpt><trkpt lat="44.7301373" lon="12.1730572"><ele>-3.0</ele><time>2026-04-12T14:19:20.01Z</time></trkpt><trkpt lat="44.7301097" lon="12.1729601"><ele>-3.0</ele><time>2026-04-12T14:19:23.01Z</time></trkpt><trkpt lat="44.7300362" lon="12.1728718"><ele>-3.0</ele><time>2026-04-12T15:02:02.007Z</time></trkpt><trkpt lat="44.7299677" lon="12.1728688"><ele>-1.6666666666666665</ele><time>2026-04-12T15:02:04.008Z</time></trkpt><trkpt lat="44.7299349" lon="12.1729586"><ele>-0.33333333333333326</ele><time>2026-04-12T15:02:07.008Z</time></trkpt><trkpt lat="44.7299489" lon="12.1731221"><ele>1.0</ele><time>2026-04-12T15:02:10.008Z</time></trkpt><trkpt lat="44.7299706" lon="12.1732076"><ele>2.3333333333333335</ele><time>2026-04-12T15:02:11.008Z</time></trkpt><trkpt lat="44.7300078" lon="12.1733393"><ele>3.666666666666667</ele><time>2026-04-12T15:02:13.007Z</time></trkpt><trkpt lat="44.7300634" lon="12.1734405"><ele>5.0</ele><time>2026-04-12T15:02:15.007Z</time></trkpt><trkpt lat="44.7301145" lon="12.1735244"><ele>5.0</ele><time>2026-04-12T15:02:18.007Z</time></trkpt><trkpt lat="44.7301609" lon="12.173629"><ele>5.0</ele><time>2026-04-12T15:02:21.007Z</time></trkpt><trkpt lat="44.7302056" lon="12.1737347"><ele>5.0</ele><time>2026-04-12T15:02:23.007Z</time></trkpt><trkpt lat="44.7302504" lon="12.1738001"><ele>5.0</ele><time>2026-04-12T15:02:25.007Z</time></trkpt><trkpt lat="44.7302596" lon="12.1738986"><ele>5.0</ele><time>2026-04-12T15:02:28.007Z</time></trkpt><trkpt lat="44.7301915" lon="12.1739328"><ele>5.0</ele><time>2026-04-12T15:02:31.008Z</time></trkpt><trkpt lat="44.7301675" lon="12.1738465"><ele>5.0</ele><time>2026-04-12T15:02:42.007Z</time></trkpt><trkpt lat="44.7302048" lon="12.1737029"><ele>5.0</ele><time>2026-04-12T15:02:44.008Z</time></trkpt><trkpt lat="44.7302025" lon="12.1735473"><ele>5.0</ele><time>2026-04-12T15:02:46.007Z</time></trkpt><trkpt lat="44.7301876" lon="12.1734052"><ele>5.0</ele><time>2026-04-12T15:02:48.006Z</time></trkpt><trkpt lat="44.7301669" lon="12.1733176"><ele>5.0</ele><time>2026-04-12T15:02:49.006Z</time></trkpt><trkpt lat="44.7301415" lon="12.173212"><ele>5.0</ele><time>2026-04-12T15:02:50.006Z</time></trkpt><trkpt lat="44.7301193" lon="12.173111"><ele>5.0</ele><time>2026-04-12T15:02:51.007Z</time></trkpt><trkpt lat="44.7300987" lon="12.1730139"><ele>5.0</ele><time>2026-04-12T15:02:52.006Z</time></trkpt><trkpt lat="44.7300409" lon="12.1728858"><ele>5.0</ele><time>2026-04-12T15:02:54.007Z</time></trkpt><trkpt lat="44.7299599" lon="12.1728994"><ele>5.0</ele><time>2026-04-12T15:02:56.007Z</time></trkpt><trkpt lat="44.7299338" lon="12.1730145"><ele>5.0</ele><time>2026-04-12T15:02:58.007Z</time></trkpt><trkpt lat="44.7299504" lon="12.1731451"><ele>5.0</ele><time>2026-04-12T15:03:00.006Z</time></trkpt><trkpt lat="44.7299854" lon="12.1732828"><ele>5.0</ele><time>2026-04-12T15:03:02.007Z</time></trkpt><trkpt lat="44.7300423" lon="12.1734181"><ele>5.0</ele><time>2026-04-12T15:03:04.006Z</time></trkpt><trkpt lat="44.7300972" lon="12.1735005"><ele>5.0</ele><time>2026-04-12T15:03:06.007Z</time></trkpt><trkpt lat="44.7301337" lon="12.1735755"><ele>5.0</ele><time>2026-04-12T15:03:08.006Z</time></trkpt><trkpt lat="44.7301785" lon="12.173686"><ele>5.0</ele><time>2026-04-12T15:03:10.006Z</time></trkpt><trkpt lat="44.730206" lon="12.1737791"><ele>5.0</ele><time>2026-04-12T15:03:12.007Z</time></trkpt><trkpt lat="44.7301332" lon="12.1738566"><ele>5.0</ele><time>2026-04-12T15:03:15.006Z</time></trkpt><trkpt lat="44.7300664" lon="12.173892"><ele>5.0</ele><time>2026-04-12T15:03:16.007Z</time></trkpt><trkpt lat="44.7300034" lon="12.1739475"><ele>5.0</ele><time>2026-04-12T15:03:17.006Z</time></trkpt><trkpt lat="44.7299452" lon="12.1740232"><ele>5.0</ele><time>2026-04-12T15:03:18.006Z</time></trkpt><trkpt lat="44.7298819" lon="12.174093"><ele>5.0</ele><time>2026-04-12T15:03:19.007Z</time></trkpt><trkpt lat="44.729828" lon="12.1741404"><ele>5.0</ele><time>2026-04-12T15:03:20.006Z</time></trkpt><trkpt lat="44.7297546" lon="12.1741839"><ele>5.0</ele><time>2026-04-12T15:03:22.007Z</time></trkpt><trkpt lat="44.7297108" lon="12.1740894"><ele>5.0</ele><time>2026-04-12T15:03:25.008Z</time></trkpt><trkpt lat="44.7297342" lon="12.173935"><ele>5.0</ele><time>2026-04-12T15:03:27.007Z</time></trkpt><trkpt lat="44.7297588" lon="12.1738452"><ele>5.0</ele><time>2026-04-12T15:03:28.006Z</time></trkpt><trkpt lat="44.7297768" lon="12.1737429"><ele>5.0</ele><time>2026-04-12T15:03:29.007Z</time></trkpt><trkpt lat="44.7297998" lon="12.173647"><ele>5.0</ele><time>2026-04-12T15:03:30.006Z</time></trkpt><trkpt lat="44.729822" lon="12.1735458"><ele>5.0</ele><time>2026-04-12T15:03:31.007Z</time></trkpt><trkpt lat="44.7298138" lon="12.1734059"><ele>5.0</ele><time>2026-04-12T15:03:33.006Z</time></trkpt><trkpt lat="44.7297415" lon="12.1733919"><ele>5.0</ele><time>2026-04-12T15:03:36.006Z</time></trkpt><trkpt lat="44.7296963" lon="12.1734629"><ele>5.0</ele><time>2026-04-12T15:04:00.006Z</time></trkpt><trkpt lat="44.7296345" lon="12.173518"><ele>5.0</ele><time>2026-04-12T15:04:03.006Z</time></trkpt><trkpt lat="44.7295808" lon="12.1735679"><ele>5.0</ele><time>2026-04-12T15:04:05.006Z</time></trkpt><trkpt lat="44.7296309" lon="12.173682"><ele>5.0</ele><time>2026-04-12T15:04:12.006Z</time></trkpt><trkpt lat="44.7296707" lon="12.1738196"><ele>5.0</ele><time>2026-04-12T15:04:14.006Z</time></trkpt><trkpt lat="44.7296945" lon="12.1739124"><ele>5.0</ele><time>2026-04-12T15:04:16.007Z</time></trkpt><trkpt lat="44.7297098" lon="12.1740314"><ele>5.0</ele><time>2026-04-12T15:04:18.007Z</time></trkpt><trkpt lat="44.7297125" lon="12.1741279"><ele>5.0</ele><time>2026-04-12T15:13:10.006Z</time></trkpt><trkpt lat="44.7296419" lon="12.1742027"><ele>5.0</ele><time>2026-04-12T15:13:13.006Z</time></trkpt><trkpt lat="44.7295651" lon="12.1742034"><ele>5.0</ele><time>2026-04-12T15:13:15.006Z</time></trkpt><trkpt lat="44.7295052" lon="12.1742317"><ele>4.833333333333334</ele><time>2026-04-12T15:13:17.007Z</time></trkpt><trkpt lat="44.7294455" lon="12.1742942"><ele>4.666666666666667</ele><time>2026-04-12T15:15:21.005Z</time></trkpt><trkpt lat="44.7293919" lon="12.1741944"><ele>4.5</ele><time>2026-04-12T15:15:26.006Z</time></trkpt><trkpt lat="44.7293808" lon="12.1740749"><ele>4.333333333333333</ele><time>2026-04-12T15:15:28.005Z</time></trkpt><trkpt lat="44.7293293" lon="12.1739457"><ele>4.166666666666666</ele><time>2026-04-12T15:15:30.005Z</time></trkpt><trkpt lat="44.7292922" lon="12.17383"><ele>4.0</ele><time>2026-04-12T15:15:32.006Z</time></trkpt><trkpt lat="44.7292398" lon="12.173709"><ele>4.0</ele><time>2026-04-12T15:15:34.007Z</time></trkpt><trkpt lat="44.7292017" lon="12.1736321"><ele>3.9999999999999996</ele><time>2026-04-12T15:16:02.005Z</time></trkpt><trkpt lat="44.7291818" lon="12.173542"><ele>4.0</ele><time>2026-04-12T15:16:08.005Z</time></trkpt><trkpt lat="44.729128" lon="12.1734259"><ele>4.0</ele><time>2026-04-12T15:16:10.005Z</time></trkpt><trkpt lat="44.7290975" lon="12.1733288"><ele>3.9999999999999996</ele><time>2026-04-12T15:16:11.007Z</time></trkpt><trkpt lat="44.7290715" lon="12.1732397"><ele>4.0</ele><time>2026-04-12T15:16:12.005Z</time></trkpt><trkpt lat="44.7290395" lon="12.1731622"><ele>4.0</ele><time>2026-04-12T15:16:13.005Z</time></trkpt><trkpt lat="44.7289612" lon="12.173113"><ele>4.0</ele><time>2026-04-12T15:16:15.005Z</time></trkpt><trkpt lat="44.7288969" lon="12.1731788"><ele>4.0</ele><time>2026-04-12T15:16:17.005Z</time></trkpt><trkpt lat="44.728826" lon="12.1732337"><ele>4.0</ele><time>2026-04-12T15:16:19.006Z</time></trkpt><trkpt lat="44.7287964" lon="12.1731007"><ele>4.0</ele><time>2026-04-12T15:16:22.005Z</time></trkpt><trkpt lat="44.7288333" lon="12.1729428"><ele>4.0</ele><time>2026-04-12T15:16:24.005Z</time></trkpt><trkpt lat="44.7288094" lon="12.1728316"><ele>4.166666666666666</ele><time>2026-04-12T15:16:26.006Z</time></trkpt><trkpt lat="44.7287194" lon="12.1728097"><ele>4.333333333333333</ele><time>2026-04-12T15:16:28.006Z</time></trkpt><trkpt lat="44.7286518" lon="12.1728785"><ele>4.5</ele><time>2026-04-12T15:16:52.005Z</time></trkpt><trkpt lat="44.7285909" lon="12.1729112"><ele>4.666666666666667</ele><time>2026-04-12T15:16:56.006Z</time></trkpt><trkpt lat="44.7285152" lon="12.1729455"><ele>4.833333333333334</ele><time>2026-04-12T15:16:59.007Z</time></trkpt><trkpt lat="44.7284393" lon="12.1729859"><ele>5.0</ele><time>2026-04-12T15:17:03.005Z</time></trkpt><trkpt lat="44.7283616" lon="12.1729973"><ele>5.0</ele><time>2026-04-12T15:17:07.005Z</time></trkpt><trkpt lat="44.7283864" lon="12.1728875"><ele>5.0</ele><time>2026-04-12T15:17:11.005Z</time></trkpt><trkpt lat="44.7284546" lon="12.1728315"><ele>5.0</ele><time>2026-04-12T15:17:13.005Z</time></trkpt><trkpt lat="44.728533" lon="12.1727673"><ele>5.0</ele><time>2026-04-12T15:17:15.006Z</time></trkpt><trkpt lat="44.7286088" lon="12.1726962"><ele>5.0</ele><time>2026-04-12T15:17:17.005Z</time></trkpt><trkpt lat="44.7286259" lon="12.1725921"><ele>5.0</ele><time>2026-04-12T15:17:19.005Z</time></trkpt><trkpt lat="44.7286315" lon="12.1724911"><ele>5.0</ele><time>2026-04-12T15:17:21.005Z</time></trkpt><trkpt lat="44.7286973" lon="12.1724657"><ele>5.0</ele><time>2026-04-12T15:17:23.005Z</time></trkpt><trkpt lat="44.7287755" lon="12.1724463"><ele>5.0</ele><time>2026-04-12T15:17:25.006Z</time></trkpt><trkpt lat="44.7287319" lon="12.1723695"><ele>5.0</ele><time>2026-04-12T15:17:28.006Z</time></trkpt><trkpt lat="44.728632" lon="12.1723539"><ele>5.0</ele><time>2026-04-12T15:17:30.005Z</time></trkpt><trkpt lat="44.7285918" lon="12.172262"><ele>5.0</ele><time>2026-04-12T15:17:32.005Z</time></trkpt><trkpt lat="44.7286367" lon="12.1721287"><ele>5.0</ele><time>2026-04-12T15:17:34.005Z</time></trkpt><trkpt lat="44.7286816" lon="12.1720229"><ele>5.0</ele><time>2026-04-12T15:17:36.005Z</time></trkpt><trkpt lat="44.7287252" lon="12.1719041"><ele>5.0</ele><time>2026-04-12T15:17:38.006Z</time></trkpt><trkpt lat="44.7287615" lon="12.1718037"><ele>5.0</ele><time>2026-04-12T15:17:40.006Z</time></trkpt><trkpt lat="44.7288027" lon="12.1717159"><ele>5.0</ele><time>2026-04-12T15:17:42.005Z</time></trkpt><trkpt lat="44.7288353" lon="12.171625"><ele>5.0</ele><time>2026-04-12T15:17:44.005Z</time></trkpt><trkpt lat="44.7289105" lon="12.1715198"><ele>4.666666666666667</ele><time>2026-04-12T15:17:46.007Z</time></trkpt><trkpt lat="44.7289769" lon="12.1714305"><ele>4.333333333333334</ele><time>2026-04-12T15:17:48.006Z</time></trkpt><trkpt lat="44.7290274" lon="12.1713735"><ele>4.0</ele><time>2026-04-12T15:17:49.006Z</time></trkpt><trkpt lat="44.729079" lon="12.1713157"><ele>3.666666666666667</ele><time>2026-04-12T15:17:50.006Z</time></trkpt><trkpt lat="44.729168" lon="12.1712111"><ele>3.3333333333333335</ele><time>2026-04-12T15:17:52.005Z</time></trkpt><trkpt lat="44.7292166" lon="12.1711461"><ele>3.0</ele><time>2026-04-12T15:17:53.005Z</time></trkpt><trkpt lat="44.7292293" lon="12.1710438"><ele>3.0</ele><time>2026-04-12T15:17:55.005Z</time></trkpt><trkpt lat="44.7291912" lon="12.1709276"><ele>3.0</ele><time>2026-04-12T15:17:57.005Z</time></trkpt><trkpt lat="44.7291387" lon="12.1708126"><ele>3.0</ele><time>2026-04-12T15:17:59.006Z</time></trkpt><trkpt lat="44.7291184" lon="12.1707245"><ele>3.0</ele><time>2026-04-12T15:18:01.006Z</time></trkpt><trkpt lat="44.7291438" lon="12.1706433"><ele>3.0</ele><time>2026-04-12T15:18:03.006Z</time></trkpt><trkpt lat="44.729215" lon="12.1706758"><ele>3.0</ele><time>2026-04-12T15:18:06.006Z</time></trkpt><trkpt lat="44.7292149" lon="12.1707903"><ele>2.9999999999999996</ele><time>2026-04-12T15:18:28.006Z</time></trkpt><trkpt lat="44.7291838" lon="12.1708737"><ele>3.0</ele><time>2026-04-12T15:18:31.006Z</time></trkpt><trkpt lat="44.729138" lon="12.170935"><ele>3.0</ele><time>2026-04-12T15:18:34.006Z</time></trkpt><trkpt lat="44.7291134" lon="12.1710286"><ele>3.0</ele><time>2026-04-12T15:18:51.006Z</time></trkpt><trkpt lat="44.7291767" lon="12.1710257"><ele>3.0</ele><time>2026-04-12T15:20:57.005Z</time></trkpt><trkpt lat="44.7291545" lon="12.1709122"><ele>2.9999999999999996</ele><time>2026-04-12T15:20:59.006Z</time></trkpt><trkpt lat="44.7291304" lon="12.1708303"><ele>3.0</ele><time>2026-04-12T15:21:00.006Z</time></trkpt><trkpt lat="44.7291295" lon="12.1706832"><ele>2.3333333333333335</ele><time>2026-04-12T15:21:02.005Z</time></trkpt><trkpt lat="44.729215" lon="12.1706805"><ele>1.6666666666666667</ele><time>2026-04-12T15:21:05.006Z</time></trkpt><trkpt lat="44.7292793" lon="12.1706647"><ele>1.0</ele><time>2026-04-12T15:21:07.006Z</time></trkpt><trkpt lat="44.7293115" lon="12.1705218"><ele>0.33333333333333337</ele><time>2026-04-12T15:21:09.005Z</time></trkpt><trkpt lat="44.7293517" lon="12.1703939"><ele>-0.33333333333333326</ele><time>2026-04-12T15:21:11.006Z</time></trkpt><trkpt lat="44.7294175" lon="12.1703867"><ele>-1.0</ele><time>2026-04-12T15:21:13.005Z</time></trkpt><trkpt lat="44.7294351" lon="12.170481"><ele>-1.2000000000000002</ele><time>2026-04-12T15:21:15.005Z</time></trkpt><trkpt lat="44.7294034" lon="12.1706851"><ele>-1.4000000000000001</ele><time>2026-04-12T15:21:17.006Z</time></trkpt><trkpt lat="44.7293917" lon="12.1707912"><ele>-1.6</ele><time>2026-04-12T15:21:18.005Z</time></trkpt><trkpt lat="44.7293887" lon="12.1709166"><ele>-1.8</ele><time>2026-04-12T15:21:19.006Z</time></trkpt><trkpt lat="44.7294111" lon="12.1710273"><ele>-2.0</ele><time>2026-04-12T15:21:21.005Z</time></trkpt><trkpt lat="44.7294728" lon="12.1709987"><ele>-1.9999999999999998</ele><time>2026-04-12T15:21:23.005Z</time></trkpt><trkpt lat="44.7295307" lon="12.1710357"><ele>-2.0</ele><time>2026-04-12T15:21:25.006Z</time></trkpt><trkpt lat="44.7295357" lon="12.1711679"><ele>-2.0</ele><time>2026-04-12T15:21:27.006Z</time></trkpt><trkpt lat="44.7295178" lon="12.1712908"><ele>-2.0</ele><time>2026-04-12T15:21:28.005Z</time></trkpt><trkpt lat="44.7295121" lon="12.1714675"><ele>-1.9999999999999998</ele><time>2026-04-12T15:21:30.005Z</time></trkpt><trkpt lat="44.7295227" lon="12.1715697"><ele>-2.0</ele><time>2026-04-12T15:21:31.006Z</time></trkpt><trkpt lat="44.7295477" lon="12.1716689"><ele>-1.2000000000000002</ele><time>2026-04-12T15:21:32.006Z</time></trkpt><trkpt lat="44.7296168" lon="12.1717404"><ele>-0.40000000000000013</ele><time>2026-04-12T15:21:34.006Z</time></trkpt><trkpt lat="44.7297325" lon="12.1717076"><ele>0.40000000000000013</ele><time>2026-04-12T15:21:36.005Z</time></trkpt><trkpt lat="44.7298325" lon="12.1717198"><ele>1.2000000000000002</ele><time>2026-04-12T15:21:38.006Z</time></trkpt><trkpt lat="44.7299317" lon="12.1717346"><ele>2.0</ele><time>2026-04-12T15:21:40.005Z</time></trkpt><trkpt lat="44.7300048" lon="12.171776"><ele>1.9999999999999998</ele><time>2026-04-12T15:21:42.007Z</time></trkpt><trkpt lat="44.7300443" lon="12.1718867"><ele>2.0</ele><time>2026-04-12T15:21:44.005Z</time></trkpt><trkpt lat="44.7301226" lon="12.1718847"><ele>2.0</ele><time>2026-04-12T15:21:47.006Z</time></trkpt><trkpt lat="44.7301898" lon="12.1718794"><ele>2.0</ele><time>2026-04-12T15:21:49.006Z</time></trkpt><trkpt lat="44.7302706" lon="12.1718691"><ele>1.9999999999999998</ele><time>2026-04-12T15:21:51.005Z</time></trkpt><trkpt lat="44.7303544" lon="12.171858"><ele>2.0</ele><time>2026-04-12T15:21:54.005Z</time></trkpt><trkpt lat="44.7304237" lon="12.171893"><ele>2.0</ele><time>2026-04-12T15:21:57.006Z</time></trkpt><trkpt lat="44.7303661" lon="12.1719587"><ele>2.0</ele><time>2026-04-12T15:22:00.005Z</time></trkpt><trkpt lat="44.7302691" lon="12.1720048"><ele>2.0</ele><time>2026-04-12T15:22:03.005Z</time></trkpt><trkpt lat="44.7301774" lon="12.1720573"><ele>2.0</ele><time>2026-04-12T15:22:05.005Z</time></trkpt><trkpt lat="44.7300862" lon="12.1721129"><ele>2.0</ele><time>2026-04-12T15:22:07.006Z</time></trkpt><trkpt lat="44.7300158" lon="12.1721654"><ele>1.9999999999999998</ele><time>2026-04-12T15:22:08.006Z</time></trkpt><trkpt lat="44.7299476" lon="12.1722283"><ele>2.0</ele><time>2026-04-12T15:22:09.006Z</time></trkpt><trkpt lat="44.7298739" lon="12.1722929"><ele>2.0</ele><time>2026-04-12T15:22:10.005Z</time></trkpt><trkpt lat="44.7298011" lon="12.1723852"><ele>2.0</ele><time>2026-04-12T15:22:12.006Z</time></trkpt><trkpt lat="44.7298261" lon="12.1724691"><ele>1.9999999999999998</ele><time>2026-04-12T15:22:14.006Z</time></trkpt><trkpt lat="44.7299102" lon="12.1724531"><ele>2.0</ele><time>2026-04-12T15:22:16.006Z</time></trkpt><trkpt lat="44.7299741" lon="12.1724922"><ele>2.0</ele><time>2026-04-12T15:22:18.005Z</time></trkpt><trkpt lat="44.729937" lon="12.1725769"><ele>2.0</ele><time>2026-04-12T15:22:20.005Z</time></trkpt><trkpt lat="44.7298123" lon="12.1726108"><ele>2.0</ele><time>2026-04-12T15:22:22.006Z</time></trkpt><trkpt lat="44.7297484" lon="12.1725951"><ele>2.0</ele><time>2026-04-12T15:22:24.006Z</time></trkpt><trkpt lat="44.7297337" lon="12.1724562"><ele>2.0</ele><time>2026-04-12T15:22:26.006Z</time></trkpt><trkpt lat="44.7297466" lon="12.1723037"><ele>2.0</ele><time>2026-04-12T15:22:27.006Z</time></trkpt><trkpt lat="44.7297561" lon="12.1721695"><ele>2.0</ele><time>2026-04-12T15:22:28.005Z</time></trkpt><trkpt lat="44.7297382" lon="12.1720389"><ele>2.0</ele><time>2026-04-12T15:22:30.005Z</time></trkpt><trkpt lat="44.729635" lon="12.1721238"><ele>2.0</ele><time>2026-04-12T15:22:33.005Z</time></trkpt><trkpt lat="44.7295726" lon="12.1721912"><ele>2.0</ele><time>2026-04-12T15:22:35.005Z</time></trkpt><trkpt lat="44.72959" lon="12.1723088"><ele>3.0</ele><time>2026-04-12T15:22:37.006Z</time></trkpt><trkpt lat="44.7296244" lon="12.1724046"><ele>4.0</ele><time>2026-04-12T15:22:38.006Z</time></trkpt><trkpt lat="44.7296816" lon="12.1725655"><ele>4.999999999999999</ele><time>2026-04-12T15:22:39.006Z</time></trkpt><trkpt lat="44.7297274" lon="12.1726938"><ele>6.0</ele><time>2026-04-12T15:22:40.005Z</time></trkpt><trkpt lat="44.7297624" lon="12.1727759"><ele>7.0</ele><time>2026-04-12T15:22:41.005Z</time></trkpt><trkpt lat="44.7298366" lon="12.1728525"><ele>7.0</ele><time>2026-04-12T15:22:43.006Z</time></trkpt><trkpt lat="44.7299158" lon="12.172788"><ele>6.999999999999999</ele><time>2026-04-12T15:22:45.005Z</time></trkpt><trkpt lat="44.7299726" lon="12.1727097"><ele>6.999999999999999</ele><time>2026-04-12T15:22:46.006Z</time></trkpt><trkpt lat="44.7300321" lon="12.1726707"><ele>7.0</ele><time>2026-04-12T15:22:47.005Z</time></trkpt><trkpt lat="44.7301243" lon="12.1726982"><ele>7.0</ele><time>2026-04-12T15:22:49.006Z</time></trkpt><trkpt lat="44.7301857" lon="12.1728744"><ele>7.0</ele><time>2026-04-12T15:22:51.005Z</time></trkpt><trkpt lat="44.7302115" lon="12.1730279"><ele>6.999999999999999</ele><time>2026-04-12T15:22:52.006Z</time></trkpt><trkpt lat="44.7302426" lon="12.1731466"><ele>6.999999999999999</ele><time>2026-04-12T15:22:53.005Z</time></trkpt><trkpt lat="44.7303053" lon="12.1732556"><ele>7.0</ele><time>2026-04-12T15:22:55.006Z</time></trkpt><trkpt lat="44.7303868" lon="12.1732764"><ele>7.0</ele><time>2026-04-12T15:22:57.005Z</time></trkpt><trkpt lat="44.7304704" lon="12.1732819"><ele>5.333333333333334</ele><time>2026-04-12T15:23:00.006Z</time></trkpt><trkpt lat="44.7305622" lon="12.1733078"><ele>3.666666666666667</ele><time>2026-04-12T15:23:04.005Z</time></trkpt><trkpt lat="44.7306271" lon="12.1732772"><ele>2.0</ele><time>2026-04-12T15:23:07.006Z</time></trkpt><trkpt lat="44.730675" lon="12.1732102"><ele>0.3333333333333335</ele><time>2026-04-12T15:23:10.006Z</time></trkpt><trkpt lat="44.7307347" lon="12.1733091"><ele>-1.3333333333333333</ele><time>2026-04-12T15:23:14.005Z</time></trkpt><trkpt lat="44.7307444" lon="12.1734572"><ele>-3.0</ele><time>2026-04-12T15:23:16.005Z</time></trkpt><trkpt lat="44.7308017" lon="12.1734109"><ele>-2.9999999999999996</ele><time>2026-04-12T15:23:21.005Z</time></trkpt><trkpt lat="44.7307963" lon="12.1732884"><ele>-3.0</ele><time>2026-04-12T15:23:23.005Z</time></trkpt><trkpt lat="44.7307707" lon="12.1732022"><ele>-3.0</ele><time>2026-04-12T15:23:26.006Z</time></trkpt><trkpt lat="44.7307421" lon="12.1731164"><ele>-3.0</ele><time>2026-04-12T15:24:21.006Z</time></trkpt><trkpt lat="44.7306975" lon="12.1730288"><ele>-3.0</ele><time>2026-04-12T15:24:23.005Z</time></trkpt><trkpt lat="44.730668" lon="12.1729431"><ele>-2.9999999999999996</ele><time>2026-04-12T15:24:25.006Z</time></trkpt><trkpt lat="44.7307513" lon="12.1729386"><ele>-3.0</ele><time>2026-04-12T15:24:28.006Z</time></trkpt><trkpt lat="44.7307743" lon="12.1730765"><ele>-2.9999999999999996</ele><time>2026-04-12T15:24:30.005Z</time></trkpt><trkpt lat="44.7307979" lon="12.1731639"><ele>-3.0</ele><time>2026-04-12T15:24:31.006Z</time></trkpt><trkpt lat="44.7308377" lon="12.1732913"><ele>-3.0</ele><time>2026-04-12T15:24:33.006Z</time></trkpt><trkpt lat="44.7308642" lon="12.1733767"><ele>-3.0</ele><time>2026-04-12T15:24:36.006Z</time></trkpt><trkpt lat="44.7308725" lon="12.1734795"><ele>-3.0</ele><time>2026-04-12T15:24:39.006Z</time></trkpt><trkpt lat="44.7308159" lon="12.1735194"><ele>-2.9999999999999996</ele><time>2026-04-12T15:24:41.006Z</time></trkpt><trkpt lat="44.7307478" lon="12.1735618"><ele>-3.0</ele><time>2026-04-12T15:24:43.005Z</time></trkpt><trkpt lat="44.7306728" lon="12.173549"><ele>-3.0</ele><time>2026-04-12T15:24:46.005Z</time></trkpt><trkpt lat="44.7306103" lon="12.1734856"><ele>-3.0</ele><time>2026-04-12T15:24:48.005Z</time></trkpt><trkpt lat="44.7305345" lon="12.1733867"><ele>-3.0</ele><time>2026-04-12T15:24:50.006Z</time></trkpt><trkpt lat="44.7304626" lon="12.1733158"><ele>-3.0</ele><time>2026-04-12T15:24:52.005Z</time></trkpt><trkpt lat="44.7303935" lon="12.1732765"><ele>-3.0</ele><time>2026-04-12T15:24:54.005Z</time></trkpt><trkpt lat="44.7303049" lon="12.1732688"><ele>-3.0</ele><time>2026-04-12T15:24:56.005Z</time></trkpt><trkpt lat="44.7302434" lon="12.1732257"><ele>-1.3333333333333333</ele><time>2026-04-12T15:24:58.006Z</time></trkpt><trkpt lat="44.7301547" lon="12.1731861"><ele>0.3333333333333335</ele><time>2026-04-12T15:25:01.005Z</time></trkpt><trkpt lat="44.730118" lon="12.1730684"><ele>2.0</ele><time>2026-04-12T15:25:04.006Z</time></trkpt><trkpt lat="44.7300956" lon="12.1729845"><ele>3.666666666666667</ele><time>2026-04-12T15:25:06.007Z</time></trkpt><trkpt lat="44.7300383" lon="12.1728848"><ele>5.333333333333334</ele><time>2026-04-12T15:25:08.006Z</time></trkpt><trkpt lat="44.7299544" lon="12.1729053"><ele>7.0</ele><time>2026-04-12T15:25:11.006Z</time></trkpt><trkpt lat="44.7299328" lon="12.1729914"><ele>7.000000000000001</ele><time>2026-04-12T15:25:13.006Z</time></trkpt><trkpt lat="44.7299408" lon="12.1730903"><ele>7.0</ele><time>2026-04-12T15:25:15.005Z</time></trkpt><trkpt lat="44.729964" lon="12.1731947"><ele>7.0</ele><time>2026-04-12T15:25:17.005Z</time></trkpt><trkpt lat="44.7299919" lon="12.1733115"><ele>7.0</ele><time>2026-04-12T15:25:19.005Z</time></trkpt><trkpt lat="44.7300319" lon="12.1734039"><ele>7.000000000000001</ele><time>2026-04-12T15:25:21.006Z</time></trkpt><trkpt lat="44.7300742" lon="12.1734769"><ele>7.0</ele><time>2026-04-12T15:25:24.006Z</time></trkpt><trkpt lat="44.7301242" lon="12.1735727"><ele>6.666666666666667</ele><time>2026-04-12T15:25:38.004Z</time></trkpt><trkpt lat="44.7301623" lon="12.1736716"><ele>6.333333333333334</ele><time>2026-04-12T15:25:40.005Z</time></trkpt><trkpt lat="44.7302034" lon="12.173773"><ele>6.0</ele><time>2026-04-12T15:25:42.004Z</time></trkpt><trkpt lat="44.7303147" lon="12.1737791"><ele>5.666666666666667</ele><time>2026-04-12T15:25:45.004Z</time></trkpt><trkpt lat="44.7303777" lon="12.1737456"><ele>5.333333333333334</ele><time>2026-04-12T15:25:46.004Z</time></trkpt><trkpt lat="44.7304663" lon="12.1736948"><ele>5.0</ele><time>2026-04-12T15:25:47.004Z</time></trkpt><trkpt lat="44.7305251" lon="12.1736561"><ele>3.666666666666667</ele><time>2026-04-12T15:25:48.005Z</time></trkpt><trkpt lat="44.7306243" lon="12.1735921"><ele>2.3333333333333335</ele><time>2026-04-12T15:25:50.004Z</time></trkpt><trkpt lat="44.7306954" lon="12.1735689"><ele>1.0</ele><time>2026-04-12T15:25:52.004Z</time></trkpt><trkpt lat="44.730731" lon="12.1734853"><ele>-0.33333333333333326</ele><time>2026-04-12T15:38:29.004Z</time></trkpt><trkpt lat="44.7307343" lon="12.1733714"><ele>-1.6666666666666665</ele><time>2026-04-12T15:38:31.004Z</time></trkpt><trkpt lat="44.7307179" lon="12.1732461"><ele>-3.0</ele><time>2026-04-12T15:38:33.005Z</time></trkpt><trkpt lat="44.7306965" lon="12.1731607"><ele>-3.0</ele><time>2026-04-12T15:38:34.004Z</time></trkpt><trkpt lat="44.7306717" lon="12.1730533"><ele>-3.0</ele><time>2026-04-12T15:38:35.005Z</time></trkpt><trkpt lat="44.7306418" lon="12.1729347"><ele>-3.0</ele><time>2026-04-12T15:38:36.004Z</time></trkpt><trkpt lat="44.7306087" lon="12.1728051"><ele>-3.0</ele><time>2026-04-12T15:38:37.005Z</time></trkpt><trkpt lat="44.7305738" lon="12.1726683"><ele>-3.0</ele><time>2026-04-12T15:38:38.005Z</time></trkpt><trkpt lat="44.7305321" lon="12.1725193"><ele>-3.0</ele><time>2026-04-12T15:38:39.004Z</time></trkpt><trkpt lat="44.730487" lon="12.1723589"><ele>-3.0</ele><time>2026-04-12T15:38:40.005Z</time></trkpt><trkpt lat="44.7304389" lon="12.1721926"><ele>-3.0</ele><time>2026-04-12T15:38:41.005Z</time></trkpt><trkpt lat="44.730395" lon="12.1720365"><ele>-3.0</ele><time>2026-04-12T15:38:42.004Z</time></trkpt><trkpt lat="44.7303506" lon="12.1718723"><ele>-2.75</ele><time>2026-04-12T15:38:43.005Z</time></trkpt><trkpt lat="44.7303012" lon="12.1716999"><ele>-2.5</ele><time>2026-04-12T15:38:44.004Z</time></trkpt><trkpt lat="44.7302519" lon="12.1715259"><ele>-2.25</ele><time>2026-04-12T15:38:45.006Z</time></trkpt><trkpt lat="44.7302029" lon="12.1713494"><ele>-2.0</ele><time>2026-04-12T15:38:46.005Z</time></trkpt><trkpt lat="44.7301503" lon="12.1711702"><ele>-2.0</ele><time>2026-04-12T15:38:47.004Z</time></trkpt><trkpt lat="44.7300969" lon="12.1709888"><ele>-2.0</ele><time>2026-04-12T15:38:48.005Z</time></trkpt><trkpt lat="44.73005" lon="12.1708259"><ele>-2.0</ele><time>2026-04-12T15:38:49.004Z</time></trkpt><trkpt lat="44.7300026" lon="12.1706657"><ele>-2.0</ele><time>2026-04-12T15:38:50.005Z</time></trkpt><trkpt lat="44.729955" lon="12.1705007"><ele>-2.0</ele><time>2026-04-12T15:38:51.006Z</time></trkpt><trkpt lat="44.7299103" lon="12.170346"><ele>-2.0</ele><time>2026-04-12T15:38:52.004Z</time></trkpt><trkpt lat="44.7298696" lon="12.1702074"><ele>-2.0</ele><time>2026-04-12T15:38:53.004Z</time></trkpt><trkpt lat="44.7298335" lon="12.170081"><ele>-2.0</ele><time>2026-04-12T15:38:54.005Z</time></trkpt><trkpt lat="44.7298054" lon="12.1699589"><ele>-2.0</ele><time>2026-04-12T15:38:55.004Z</time></trkpt><trkpt lat="44.729787" lon="12.1698304"><ele>-1.9999999999999998</ele><time>2026-04-12T15:38:56.004Z</time></trkpt><trkpt lat="44.7297807" lon="12.1697033"><ele>-2.0</ele><time>2026-04-12T15:38:57.005Z</time></trkpt><trkpt lat="44.7297785" lon="12.1695923"><ele>-2.0</ele><time>2026-04-12T15:38:58.004Z</time></trkpt><trkpt lat="44.7297857" lon="12.1694881"><ele>-2.0</ele><time>2026-04-12T15:38:59.004Z</time></trkpt><trkpt lat="44.729801" lon="12.1693915"><ele>-1.9999999999999998</ele><time>2026-04-12T15:39:00.004Z</time></trkpt><trkpt lat="44.7298242" lon="12.1692902"><ele>-2.0</ele><time>2026-04-12T15:39:01.005Z</time></trkpt><trkpt lat="44.7298542" lon="12.1692013"><ele>-2.0</ele><time>2026-04-12T15:39:02.005Z</time></trkpt><trkpt lat="44.7298575" lon="12.1690651"><ele>-2.0</ele><time>2026-04-12T15:39:04.005Z</time></trkpt><trkpt lat="44.7297629" lon="12.1690388"><ele>-2.0</ele><time>2026-04-12T15:39:07.004Z</time></trkpt><trkpt lat="44.7297013" lon="12.1690886"><ele>-2.0</ele><time>2026-04-12T15:39:08.005Z</time></trkpt><trkpt lat="44.7296123" lon="12.1691542"><ele>-2.0</ele><time>2026-04-12T15:39:09.005Z</time></trkpt><trkpt lat="44.7295193" lon="12.1692205"><ele>-2.0</ele><time>2026-04-12T15:39:10.004Z</time></trkpt><trkpt lat="44.7294203" lon="12.1692951"><ele>-2.0</ele><time>2026-04-12T15:39:11.005Z</time></trkpt><trkpt lat="44.7293083" lon="12.1693761"><ele>-2.0</ele><time>2026-04-12T15:39:12.004Z</time></trkpt><trkpt lat="44.7291872" lon="12.1694629"><ele>-2.0</ele><time>2026-04-12T15:39:13.004Z</time></trkpt><trkpt lat="44.7290604" lon="12.16956"><ele>-1.6666666666666665</ele><time>2026-04-12T15:39:14.005Z</time></trkpt><trkpt lat="44.7289213" lon="12.1696639"><ele>-1.3333333333333333</ele><time>2026-04-12T15:39:15.004Z</time></trkpt><trkpt lat="44.7287759" lon="12.1697712"><ele>-1.0</ele><time>2026-04-12T15:39:16.004Z</time></trkpt><trkpt lat="44.7286263" lon="12.1698841"><ele>-1.0</ele><time>2026-04-12T15:39:17.005Z</time></trkpt><trkpt lat="44.7284784" lon="12.1699933"><ele>-1.0</ele><time>2026-04-12T15:39:18.004Z</time></trkpt><trkpt lat="44.7283356" lon="12.1700957"><ele>-1.0</ele><time>2026-04-12T15:39:19.004Z</time></trkpt><trkpt lat="44.7281944" lon="12.1702028"><ele>-1.0</ele><time>2026-04-12T15:39:20.005Z</time></trkpt><trkpt lat="44.7280534" lon="12.1703106"><ele>-1.0</ele><time>2026-04-12T15:39:21.005Z</time></trkpt><trkpt lat="44.727909" lon="12.1704166"><ele>-1.0</ele><time>2026-04-12T15:39:22.004Z</time></trkpt><trkpt lat="44.7277659" lon="12.1705239"><ele>-1.0</ele><time>2026-04-12T15:39:23.005Z</time></trkpt><trkpt lat="44.7276315" lon="12.1706209"><ele>-1.0</ele><time>2026-04-12T15:39:24.004Z</time></trkpt><trkpt lat="44.727503" lon="12.1707177"><ele>-1.0</ele><time>2026-04-12T15:39:25.005Z</time></trkpt><trkpt lat="44.7273775" lon="12.1708183"><ele>-1.0</ele><time>2026-04-12T15:39:26.004Z</time></trkpt><trkpt lat="44.7272565" lon="12.1709219"><ele>-1.0</ele><time>2026-04-12T15:39:27.004Z</time></trkpt><trkpt lat="44.727142" lon="12.1710275"><ele>-1.0</ele><time>2026-04-12T15:39:28.005Z</time></trkpt><trkpt lat="44.7270328" lon="12.1711219"><ele>-1.0</ele><time>2026-04-12T15:39:29.005Z</time></trkpt><trkpt lat="44.7269256" lon="12.1712088"><ele>-1.0</ele><time>2026-04-12T15:39:30.005Z</time></trkpt><trkpt lat="44.7268186" lon="12.1713042"><ele>-1.2000000000000002</ele><time>2026-04-12T15:39:31.005Z</time></trkpt><trkpt lat="44.7267167" lon="12.1714006"><ele>-1.4000000000000001</ele><time>2026-04-12T15:39:32.005Z</time></trkpt><trkpt lat="44.7266242" lon="12.1714904"><ele>-1.6</ele><time>2026-04-12T15:39:33.005Z</time></trkpt><trkpt lat="44.7265412" lon="12.1715716"><ele>-1.8</ele><time>2026-04-12T15:39:34.005Z</time></trkpt><trkpt lat="44.7264647" lon="12.1716445"><ele>-2.0</ele><time>2026-04-12T15:39:35.004Z</time></trkpt><trkpt lat="44.7263947" lon="12.1717082"><ele>-1.9999999999999998</ele><time>2026-04-12T15:39:36.004Z</time></trkpt><trkpt lat="44.7263325" lon="12.1717552"><ele>-2.0</ele><time>2026-04-12T15:39:37.004Z</time></trkpt><trkpt lat="44.7262706" lon="12.1717775"><ele>-2.0</ele><time>2026-04-12T15:39:38.005Z</time></trkpt><trkpt lat="44.7262001" lon="12.171788"><ele>-2.0</ele><time>2026-04-12T15:39:39.005Z</time></trkpt><trkpt lat="44.726121" lon="12.1718033"><ele>-1.9999999999999998</ele><time>2026-04-12T15:39:40.004Z</time></trkpt><trkpt lat="44.7260352" lon="12.1718402"><ele>-2.0</ele><time>2026-04-12T15:39:41.005Z</time></trkpt><trkpt lat="44.7259492" lon="12.1719016"><ele>-2.0</ele><time>2026-04-12T15:39:42.005Z</time></trkpt><trkpt lat="44.7258524" lon="12.1719799"><ele>-2.0</ele><time>2026-04-12T15:39:43.005Z</time></trkpt><trkpt lat="44.7257446" lon="12.1720661"><ele>-2.0</ele><time>2026-04-12T15:39:44.004Z</time></trkpt><trkpt lat="44.7256305" lon="12.1721595"><ele>-2.0</ele><time>2026-04-12T15:39:45.005Z</time></trkpt><trkpt lat="44.7255088" lon="12.1722575"><ele>-2.0</ele><time>2026-04-12T15:39:46.004Z</time></trkpt><trkpt lat="44.7253834" lon="12.1723548"><ele>-2.0</ele><time>2026-04-12T15:39:47.004Z</time></trkpt><trkpt lat="44.7252559" lon="12.1724515"><ele>-2.0</ele><time>2026-04-12T15:39:48.006Z</time></trkpt><trkpt lat="44.7251369" lon="12.1725463"><ele>-2.0</ele><time>2026-04-12T15:39:49.004Z</time></trkpt><trkpt lat="44.7250244" lon="12.1726427"><ele>-2.5</ele><time>2026-04-12T15:39:50.004Z</time></trkpt><trkpt lat="44.7249143" lon="12.1727379"><ele>-3.0</ele><time>2026-04-12T15:39:51.005Z</time></trkpt><trkpt lat="44.7248065" lon="12.1728232"><ele>-3.5</ele><time>2026-04-12T15:39:52.004Z</time></trkpt><trkpt lat="44.7246996" lon="12.1728971"><ele>-4.0</ele><time>2026-04-12T15:39:53.005Z</time></trkpt><trkpt lat="44.7246061" lon="12.1729578"><ele>-4.0</ele><time>2026-04-12T15:39:54.004Z</time></trkpt><trkpt lat="44.7245246" lon="12.17301"><ele>-4.0</ele><time>2026-04-12T15:39:55.005Z</time></trkpt><trkpt lat="44.724426" lon="12.1730637"><ele>-4.0</ele><time>2026-04-12T15:39:56.005Z</time></trkpt><trkpt lat="44.7243034" lon="12.1731191"><ele>-4.0</ele><time>2026-04-12T15:39:57.005Z</time></trkpt><trkpt lat="44.7241701" lon="12.1731797"><ele>-3.5</ele><time>2026-04-12T15:39:58.004Z</time></trkpt><trkpt lat="44.7240335" lon="12.1732461"><ele>-3.0</ele><time>2026-04-12T15:39:59.004Z</time></trkpt><trkpt lat="44.723901" lon="12.1733104"><ele>-2.5</ele><time>2026-04-12T15:40:00.004Z</time></trkpt><trkpt lat="44.723767" lon="12.1733744"><ele>-2.0</ele><time>2026-04-12T15:40:01.004Z</time></trkpt><trkpt lat="44.7236253" lon="12.1734399"><ele>-2.333333333333333</ele><time>2026-04-12T15:40:02.004Z</time></trkpt><trkpt lat="44.7234591" lon="12.1735071"><ele>-2.6666666666666665</ele><time>2026-04-12T15:40:03.005Z</time></trkpt><trkpt lat="44.7232818" lon="12.173573"><ele>-3.0</ele><time>2026-04-12T15:40:04.005Z</time></trkpt><trkpt lat="44.723121" lon="12.1736356"><ele>-3.0</ele><time>2026-04-12T15:40:05.005Z</time></trkpt><trkpt lat="44.7229645" lon="12.1737017"><ele>-3.0</ele><time>2026-04-12T15:40:06.005Z</time></trkpt><trkpt lat="44.7228067" lon="12.173768"><ele>-3.0</ele><time>2026-04-12T15:40:07.006Z</time></trkpt><trkpt lat="44.7226545" lon="12.1738324"><ele>-3.0</ele><time>2026-04-12T15:40:08.005Z</time></trkpt><trkpt lat="44.72251" lon="12.1738933"><ele>-3.0</ele><time>2026-04-12T15:40:09.004Z</time></trkpt><trkpt lat="44.7223716" lon="12.173953"><ele>-3.0</ele><time>2026-04-12T15:40:10.004Z</time></trkpt><trkpt lat="44.7222358" lon="12.174019"><ele>-3.0</ele><time>2026-04-12T15:40:11.005Z</time></trkpt><trkpt lat="44.722102" lon="12.174099"><ele>-3.0</ele><time>2026-04-12T15:40:12.005Z</time></trkpt><trkpt lat="44.7219611" lon="12.1741998"><ele>-3.0</ele><time>2026-04-12T15:40:13.004Z</time></trkpt><trkpt lat="44.7218141" lon="12.1743086"><ele>-3.0</ele><time>2026-04-12T15:40:14.003Z</time></trkpt><trkpt lat="44.7216701" lon="12.1744215"><ele>-3.333333333333333</ele><time>2026-04-12T15:40:15.003Z</time></trkpt><trkpt lat="44.7215271" lon="12.174537"><ele>-3.6666666666666665</ele><time>2026-04-12T15:40:16.004Z</time></trkpt><trkpt lat="44.7213831" lon="12.1746536"><ele>-4.0</ele><time>2026-04-12T15:40:17.003Z</time></trkpt><trkpt lat="44.7212385" lon="12.1747715"><ele>-4.0</ele><time>2026-04-12T15:40:18.004Z</time></trkpt><trkpt lat="44.7210942" lon="12.1748923"><ele>-4.0</ele><time>2026-04-12T15:40:19.004Z</time></trkpt><trkpt lat="44.7209531" lon="12.1750089"><ele>-4.0</ele><time>2026-04-12T15:40:20.003Z</time></trkpt><trkpt lat="44.7208167" lon="12.1751228"><ele>-4.0</ele><time>2026-04-12T15:40:21.003Z</time></trkpt><trkpt lat="44.7206821" lon="12.1752369"><ele>-4.0</ele><time>2026-04-12T15:40:22.003Z</time></trkpt><trkpt lat="44.7205484" lon="12.1753548"><ele>-4.0</ele><time>2026-04-12T15:40:23.003Z</time></trkpt><trkpt lat="44.7204121" lon="12.1754707"><ele>-4.0</ele><time>2026-04-12T15:40:24.003Z</time></trkpt><trkpt lat="44.7202692" lon="12.1755798"><ele>-4.0</ele><time>2026-04-12T15:40:25.004Z</time></trkpt><trkpt lat="44.7201225" lon="12.1756844"><ele>-4.0</ele><time>2026-04-12T15:40:26.003Z</time></trkpt><trkpt lat="44.7199814" lon="12.1757861"><ele>-4.0</ele><time>2026-04-12T15:40:27.003Z</time></trkpt><trkpt lat="44.7198528" lon="12.1758906"><ele>-4.0</ele><time>2026-04-12T15:40:28.003Z</time></trkpt><trkpt lat="44.7197274" lon="12.1760079"><ele>-4.0</ele><time>2026-04-12T15:40:29.004Z</time></trkpt><trkpt lat="44.7195963" lon="12.1761331"><ele>-4.0</ele><time>2026-04-12T15:40:30.003Z</time></trkpt><trkpt lat="44.7194618" lon="12.1762567"><ele>-4.0</ele><time>2026-04-12T15:40:31.003Z</time></trkpt><trkpt lat="44.7193241" lon="12.1763751"><ele>-4.0</ele><time>2026-04-12T15:40:32.004Z</time></trkpt><trkpt lat="44.7191868" lon="12.1764844"><ele>-3.75</ele><time>2026-04-12T15:40:33.004Z</time></trkpt><trkpt lat="44.7190593" lon="12.1765746"><ele>-3.5</ele><time>2026-04-12T15:40:34.003Z</time></trkpt><trkpt lat="44.7189422" lon="12.1766525"><ele>-3.25</ele><time>2026-04-12T15:40:35.004Z</time></trkpt><trkpt lat="44.7188342" lon="12.1767334"><ele>-3.0</ele><time>2026-04-12T15:40:36.003Z</time></trkpt><trkpt lat="44.7187383" lon="12.1768177"><ele>-3.0</ele><time>2026-04-12T15:40:37.004Z</time></trkpt><trkpt lat="44.7186491" lon="12.17692"><ele>-3.0</ele><time>2026-04-12T15:40:38.003Z</time></trkpt><trkpt lat="44.7185528" lon="12.1770438"><ele>-3.0</ele><time>2026-04-12T15:40:39.003Z</time></trkpt><trkpt lat="44.7184426" lon="12.1771618"><ele>-3.0</ele><time>2026-04-12T15:40:40.003Z</time></trkpt><trkpt lat="44.7183221" lon="12.177261"><ele>-3.25</ele><time>2026-04-12T15:40:41.003Z</time></trkpt><trkpt lat="44.7181907" lon="12.1773565"><ele>-3.5</ele><time>2026-04-12T15:40:42.003Z</time></trkpt><trkpt lat="44.7180648" lon="12.1774519"><ele>-3.75</ele><time>2026-04-12T15:40:43.003Z</time></trkpt><trkpt lat="44.7179565" lon="12.1775372"><ele>-4.0</ele><time>2026-04-12T15:40:44.003Z</time></trkpt><trkpt lat="44.7178628" lon="12.1776089"><ele>-3.9999999999999996</ele><time>2026-04-12T15:40:45.003Z</time></trkpt><trkpt lat="44.7178005" lon="12.1776589"><ele>-4.0</ele><time>2026-04-12T15:40:46.003Z</time></trkpt><trkpt lat="44.7177867" lon="12.1777575"><ele>-4.0</ele><time>2026-04-12T15:40:48.004Z</time></trkpt><trkpt lat="44.717808" lon="12.1779056"><ele>-4.0</ele><time>2026-04-12T15:40:50.004Z</time></trkpt><trkpt lat="44.7177273" lon="12.177971"><ele>-3.9999999999999996</ele><time>2026-04-12T15:40:52.004Z</time></trkpt><trkpt lat="44.7176473" lon="12.1779987"><ele>-4.0</ele><time>2026-04-12T15:40:53.003Z</time></trkpt><trkpt lat="44.7175369" lon="12.1780428"><ele>-4.2</ele><time>2026-04-12T15:40:54.004Z</time></trkpt><trkpt lat="44.7174284" lon="12.1780847"><ele>-4.4</ele><time>2026-04-12T15:40:55.003Z</time></trkpt><trkpt lat="44.7173145" lon="12.1781217"><ele>-4.6</ele><time>2026-04-12T15:40:56.004Z</time></trkpt><trkpt lat="44.7171999" lon="12.1781601"><ele>-4.8</ele><time>2026-04-12T15:40:57.003Z</time></trkpt><trkpt lat="44.7171127" lon="12.1781952"><ele>-5.0</ele><time>2026-04-12T15:40:58.003Z</time></trkpt><trkpt lat="44.7170351" lon="12.1782233"><ele>-4.833333333333334</ele><time>2026-04-12T15:40:59.004Z</time></trkpt><trkpt lat="44.7169642" lon="12.1782411"><ele>-4.666666666666667</ele><time>2026-04-12T15:41:00.003Z</time></trkpt><trkpt lat="44.716867" lon="12.1782683"><ele>-4.5</ele><time>2026-04-12T15:41:02.003Z</time></trkpt><trkpt lat="44.716791" lon="12.178302"><ele>-4.333333333333333</ele><time>2026-04-12T15:41:04.003Z</time></trkpt><trkpt lat="44.7167045" lon="12.1783218"><ele>-4.166666666666666</ele><time>2026-04-12T15:41:06.003Z</time></trkpt><trkpt lat="44.7166314" lon="12.1783265"><ele>-4.0</ele><time>2026-04-12T15:41:08.003Z</time></trkpt><trkpt lat="44.7165414" lon="12.1783511"><ele>-3.9999999999999996</ele><time>2026-04-12T15:41:11.003Z</time></trkpt><trkpt lat="44.7164482" lon="12.1783669"><ele>-4.0</ele><time>2026-04-12T15:41:14.004Z</time></trkpt><trkpt lat="44.7163851" lon="12.1783716"><ele>-4.0</ele><time>2026-04-12T15:41:16.004Z</time></trkpt><trkpt lat="44.7163169" lon="12.1783891"><ele>-4.0</ele><time>2026-04-12T15:41:18.004Z</time></trkpt><trkpt lat="44.716238" lon="12.1783956"><ele>-3.9999999999999996</ele><time>2026-04-12T15:41:20.003Z</time></trkpt><trkpt lat="44.7161705" lon="12.1784058"><ele>-4.0</ele><time>2026-04-12T15:41:22.003Z</time></trkpt><trkpt lat="44.7160812" lon="12.1784241"><ele>-4.166666666666666</ele><time>2026-04-12T15:41:25.004Z</time></trkpt><trkpt lat="44.7159993" lon="12.1784312"><ele>-4.333333333333333</ele><time>2026-04-12T15:41:28.004Z</time></trkpt><trkpt lat="44.7159128" lon="12.1784586"><ele>-4.5</ele><time>2026-04-12T15:41:49.004Z</time></trkpt><trkpt lat="44.7158228" lon="12.1784735"><ele>-4.666666666666667</ele><time>2026-04-12T15:41:51.003Z</time></trkpt><trkpt lat="44.7157526" lon="12.1784894"><ele>-4.833333333333334</ele><time>2026-04-12T15:41:52.003Z</time></trkpt><trkpt lat="44.7156707" lon="12.1785033"><ele>-5.0</ele><time>2026-04-12T15:41:53.003Z</time></trkpt><trkpt lat="44.7155935" lon="12.1785164"><ele>-5.0</ele><time>2026-04-12T15:41:54.003Z</time></trkpt><trkpt lat="44.7155064" lon="12.1785297"><ele>-5.0</ele><time>2026-04-12T15:41:55.003Z</time></trkpt><trkpt lat="44.7153899" lon="12.1785446"><ele>-5.0</ele><time>2026-04-12T15:41:56.003Z</time></trkpt><trkpt lat="44.71525" lon="12.1785693"><ele>-5.0</ele><time>2026-04-12T15:41:57.003Z</time></trkpt><trkpt lat="44.7150832" lon="12.1785999"><ele>-5.0</ele><time>2026-04-12T15:41:58.003Z</time></trkpt><trkpt lat="44.7149041" lon="12.1786324"><ele>-5.0</ele><time>2026-04-12T15:41:59.003Z</time></trkpt><trkpt lat="44.7147552" lon="12.1786605"><ele>-5.0</ele><time>2026-04-12T15:42:00.003Z</time></trkpt><trkpt lat="44.7146101" lon="12.178683"><ele>-5.0</ele><time>2026-04-12T15:42:01.004Z</time></trkpt><trkpt lat="44.7144685" lon="12.1787072"><ele>-5.0</ele><time>2026-04-12T15:42:02.003Z</time></trkpt><trkpt lat="44.714332" lon="12.1787304"><ele>-5.0</ele><time>2026-04-12T15:42:03.004Z</time></trkpt><trkpt lat="44.7142102" lon="12.1787491"><ele>-5.0</ele><time>2026-04-12T15:42:04.004Z</time></trkpt><trkpt lat="44.7140936" lon="12.1787628"><ele>-4.6</ele><time>2026-04-12T15:42:05.004Z</time></trkpt><trkpt lat="44.7139858" lon="12.1787682"><ele>-4.2</ele><time>2026-04-12T15:42:06.003Z</time></trkpt><trkpt lat="44.7138869" lon="12.1787637"><ele>-3.8</ele><time>2026-04-12T15:42:07.003Z</time></trkpt><trkpt lat="44.7137953" lon="12.1787615"><ele>-3.4</ele><time>2026-04-12T15:42:08.004Z</time></trkpt><trkpt lat="44.7136954" lon="12.1787567"><ele>-3.0</ele><time>2026-04-12T15:42:09.003Z</time></trkpt><trkpt lat="44.7135866" lon="12.1787455"><ele>-3.0</ele><time>2026-04-12T15:42:10.004Z</time></trkpt><trkpt lat="44.7134537" lon="12.178712"><ele>-3.0</ele><time>2026-04-12T15:42:11.003Z</time></trkpt><trkpt lat="44.7133095" lon="12.1786746"><ele>-3.0</ele><time>2026-04-12T15:42:12.005Z</time></trkpt><trkpt lat="44.7131832" lon="12.1786392"><ele>-3.0</ele><time>2026-04-12T15:42:13.004Z</time></trkpt><trkpt lat="44.7130614" lon="12.1786005"><ele>-3.0</ele><time>2026-04-12T15:42:14.004Z</time></trkpt><trkpt lat="44.7129377" lon="12.1785557"><ele>-3.0</ele><time>2026-04-12T15:42:15.004Z</time></trkpt><trkpt lat="44.7128148" lon="12.1785144"><ele>-3.0</ele><time>2026-04-12T15:42:16.004Z</time></trkpt><trkpt lat="44.7127053" lon="12.1784829"><ele>-3.0</ele><time>2026-04-12T15:42:17.004Z</time></trkpt><trkpt lat="44.7126019" lon="12.1784615"><ele>-2.8</ele><time>2026-04-12T15:42:18.003Z</time></trkpt><trkpt lat="44.7125059" lon="12.1784417"><ele>-2.5999999999999996</ele><time>2026-04-12T15:42:19.003Z</time></trkpt><trkpt lat="44.7124214" lon="12.1784147"><ele>-2.4000000000000004</ele><time>2026-04-12T15:42:20.003Z</time></trkpt><trkpt lat="44.7123404" lon="12.1783654"><ele>-2.2</ele><time>2026-04-12T15:42:21.003Z</time></trkpt><trkpt lat="44.7122558" lon="12.1783029"><ele>-2.0</ele><time>2026-04-12T15:42:22.005Z</time></trkpt><trkpt lat="44.7121605" lon="12.1782494"><ele>-2.0</ele><time>2026-04-12T15:42:23.004Z</time></trkpt><trkpt lat="44.7120428" lon="12.1782116"><ele>-2.0</ele><time>2026-04-12T15:42:24.003Z</time></trkpt><trkpt lat="44.7119344" lon="12.1781693"><ele>-2.0</ele><time>2026-04-12T15:42:25.004Z</time></trkpt><trkpt lat="44.7118364" lon="12.1781331"><ele>-2.0</ele><time>2026-04-12T15:42:26.003Z</time></trkpt><trkpt lat="44.7117454" lon="12.178107"><ele>-2.0</ele><time>2026-04-12T15:42:27.004Z</time></trkpt><trkpt lat="44.7116631" lon="12.1780893"><ele>-2.1666666666666665</ele><time>2026-04-12T15:42:28.003Z</time></trkpt><trkpt lat="44.7115789" lon="12.1780773"><ele>-2.333333333333333</ele><time>2026-04-12T15:42:29.004Z</time></trkpt><trkpt lat="44.7114911" lon="12.1780687"><ele>-2.5</ele><time>2026-04-12T15:42:30.003Z</time></trkpt><trkpt lat="44.7114074" lon="12.1780665"><ele>-2.6666666666666665</ele><time>2026-04-12T15:42:31.004Z</time></trkpt><trkpt lat="44.7113227" lon="12.1780611"><ele>-2.8333333333333335</ele><time>2026-04-12T15:42:32.003Z</time></trkpt><trkpt lat="44.7112287" lon="12.1780839"><ele>-3.0</ele><time>2026-04-12T15:42:33.004Z</time></trkpt><trkpt lat="44.7111593" lon="12.1780716"><ele>-3.0</ele><time>2026-04-12T15:42:34.004Z</time></trkpt><trkpt lat="44.7110852" lon="12.1780791"><ele>-3.0</ele><time>2026-04-12T15:42:35.003Z</time></trkpt><trkpt lat="44.711012" lon="12.1780688"><ele>-3.0</ele><time>2026-04-12T15:42:36.003Z</time></trkpt><trkpt lat="44.7109207" lon="12.1780746"><ele>-3.0</ele><time>2026-04-12T15:42:37.004Z</time></trkpt><trkpt lat="44.7108383" lon="12.1780828"><ele>-3.0</ele><time>2026-04-12T15:42:38.003Z</time></trkpt><trkpt lat="44.7107573" lon="12.1781"><ele>-3.0</ele><time>2026-04-12T15:42:39.004Z</time></trkpt><trkpt lat="44.7106701" lon="12.178132"><ele>-3.0</ele><time>2026-04-12T15:42:40.003Z</time></trkpt><trkpt lat="44.7105909" lon="12.1781736"><ele>-3.0</ele><time>2026-04-12T15:42:41.003Z</time></trkpt><trkpt lat="44.7105079" lon="12.1782089"><ele>-3.0</ele><time>2026-04-12T15:42:42.003Z</time></trkpt><trkpt lat="44.7104289" lon="12.1782483"><ele>-3.0</ele><time>2026-04-12T15:42:43.004Z</time></trkpt><trkpt lat="44.7103593" lon="12.1783023"><ele>-3.0</ele><time>2026-04-12T15:42:44.003Z</time></trkpt><trkpt lat="44.7102786" lon="12.1783791"><ele>-3.0</ele><time>2026-04-12T15:42:45.003Z</time></trkpt><trkpt lat="44.7101943" lon="12.1784532"><ele>-3.0</ele><time>2026-04-12T15:42:46.003Z</time></trkpt><trkpt lat="44.7101146" lon="12.1785135"><ele>-3.0</ele><time>2026-04-12T15:42:47.003Z</time></trkpt><trkpt lat="44.7100434" lon="12.1785666"><ele>-3.0</ele><time>2026-04-12T15:42:48.003Z</time></trkpt><trkpt lat="44.709978" lon="12.1786075"><ele>-3.0</ele><time>2026-04-12T15:42:49.003Z</time></trkpt><trkpt lat="44.709902" lon="12.1786477"><ele>-3.0</ele><time>2026-04-12T15:42:50.003Z</time></trkpt><trkpt lat="44.709829" lon="12.1786734"><ele>-3.0</ele><time>2026-04-12T15:42:51.003Z</time></trkpt><trkpt lat="44.7097449" lon="12.1787418"><ele>-3.0</ele><time>2026-04-12T15:42:53.003Z</time></trkpt><trkpt lat="44.709731" lon="12.1788535"><ele>-3.0</ele><time>2026-04-12T15:42:55.004Z</time></trkpt><trkpt lat="44.7097475" lon="12.1789574"><ele>-3.0</ele><time>2026-04-12T15:42:58.003Z</time></trkpt><trkpt lat="44.7096832" lon="12.1790209"><ele>-3.0</ele><time>2026-04-12T15:43:00.003Z</time></trkpt><trkpt lat="44.7095956" lon="12.1790626"><ele>-3.0</ele><time>2026-04-12T15:43:01.004Z</time></trkpt><trkpt lat="44.7094908" lon="12.1791193"><ele>-3.0</ele><time>2026-04-12T15:43:02.004Z</time></trkpt><trkpt lat="44.7093676" lon="12.1791894"><ele>-2.3333333333333335</ele><time>2026-04-12T15:43:03.004Z</time></trkpt><trkpt lat="44.7092253" lon="12.1792717"><ele>-1.6666666666666665</ele><time>2026-04-12T15:43:04.004Z</time></trkpt><trkpt lat="44.7090706" lon="12.17936"><ele>-1.0</ele><time>2026-04-12T15:43:05.004Z</time></trkpt><trkpt lat="44.7089258" lon="12.1794409"><ele>-1.0</ele><time>2026-04-12T15:43:06.005Z</time></trkpt><trkpt lat="44.7087967" lon="12.1795158"><ele>-1.0</ele><time>2026-04-12T15:43:07.003Z</time></trkpt><trkpt lat="44.7086871" lon="12.1795694"><ele>-1.0</ele><time>2026-04-12T15:43:08.003Z</time></trkpt><trkpt lat="44.7086001" lon="12.1796166"><ele>-1.0</ele><time>2026-04-12T15:43:09.003Z</time></trkpt><trkpt lat="44.7085245" lon="12.1796591"><ele>-1.0</ele><time>2026-04-12T15:43:10.004Z</time></trkpt><trkpt lat="44.7084596" lon="12.1796977"><ele>-1.2000000000000002</ele><time>2026-04-12T15:43:11.004Z</time></trkpt><trkpt lat="44.7083991" lon="12.1798032"><ele>-1.4000000000000001</ele><time>2026-04-12T15:43:13.004Z</time></trkpt><trkpt lat="44.7084008" lon="12.1799458"><ele>-1.6</ele><time>2026-04-12T15:43:15.003Z</time></trkpt><trkpt lat="44.7084187" lon="12.1800511"><ele>-1.8</ele><time>2026-04-12T15:43:16.003Z</time></trkpt><trkpt lat="44.7084558" lon="12.1801878"><ele>-2.0</ele><time>2026-04-12T15:43:17.003Z</time></trkpt><trkpt lat="44.7085031" lon="12.1803549"><ele>-2.333333333333333</ele><time>2026-04-12T15:43:18.004Z</time></trkpt><trkpt lat="44.7085593" lon="12.1805563"><ele>-2.6666666666666665</ele><time>2026-04-12T15:43:19.003Z</time></trkpt><trkpt lat="44.7086185" lon="12.1807655"><ele>-3.0</ele><time>2026-04-12T15:43:20.003Z</time></trkpt><trkpt lat="44.7086731" lon="12.1809508"><ele>-3.333333333333333</ele><time>2026-04-12T15:43:21.003Z</time></trkpt><trkpt lat="44.7087274" lon="12.1811376"><ele>-3.6666666666666665</ele><time>2026-04-12T15:43:22.004Z</time></trkpt><trkpt lat="44.7087821" lon="12.1813369"><ele>-4.0</ele><time>2026-04-12T15:43:23.003Z</time></trkpt><trkpt lat="44.7088395" lon="12.1815396"><ele>-4.0</ele><time>2026-04-12T15:43:24.003Z</time></trkpt><trkpt lat="44.7088979" lon="12.1817455"><ele>-4.0</ele><time>2026-04-12T15:43:25.003Z</time></trkpt><trkpt lat="44.7089575" lon="12.1819543"><ele>-4.0</ele><time>2026-04-12T15:43:26.004Z</time></trkpt><trkpt lat="44.709016" lon="12.1821633"><ele>-4.0</ele><time>2026-04-12T15:43:27.004Z</time></trkpt><trkpt lat="44.7090767" lon="12.1823701"><ele>-4.0</ele><time>2026-04-12T15:43:28.004Z</time></trkpt><trkpt lat="44.7091367" lon="12.1825763"><ele>-4.0</ele><time>2026-04-12T15:43:29.003Z</time></trkpt><trkpt lat="44.7091968" lon="12.1827817"><ele>-4.0</ele><time>2026-04-12T15:43:30.004Z</time></trkpt><trkpt lat="44.7092568" lon="12.182986"><ele>-4.0</ele><time>2026-04-12T15:43:31.004Z</time></trkpt><trkpt lat="44.7093158" lon="12.1831923"><ele>-4.0</ele><time>2026-04-12T15:43:32.003Z</time></trkpt><trkpt lat="44.7093752" lon="12.1833978"><ele>-3.6666666666666665</ele><time>2026-04-12T15:43:33.005Z</time></trkpt><trkpt lat="44.7094351" lon="12.1836037"><ele>-3.333333333333333</ele><time>2026-04-12T15:43:34.003Z</time></trkpt><trkpt lat="44.7094962" lon="12.1838109"><ele>-3.0</ele><time>2026-04-12T15:43:35.003Z</time></trkpt><trkpt lat="44.7095565" lon="12.1840197"><ele>-3.0</ele><time>2026-04-12T15:43:36.003Z</time></trkpt><trkpt lat="44.7096136" lon="12.1842237"><ele>-3.0</ele><time>2026-04-12T15:43:37.003Z</time></trkpt><trkpt lat="44.7096644" lon="12.184407"><ele>-3.0</ele><time>2026-04-12T15:43:38.004Z</time></trkpt><trkpt lat="44.7097078" lon="12.1845684"><ele>-3.0</ele><time>2026-04-12T15:43:39.004Z</time></trkpt><trkpt lat="44.709746" lon="12.184705"><ele>-3.0</ele><time>2026-04-12T15:43:40.003Z</time></trkpt><trkpt lat="44.7097832" lon="12.1848292"><ele>-3.0</ele><time>2026-04-12T15:43:41.004Z</time></trkpt><trkpt lat="44.7098072" lon="12.1849428"><ele>-3.0</ele><time>2026-04-12T15:43:42.004Z</time></trkpt><trkpt lat="44.709812" lon="12.1850555"><ele>-3.0</ele><time>2026-04-12T15:43:43.003Z</time></trkpt><trkpt lat="44.7097992" lon="12.1851684"><ele>-3.0</ele><time>2026-04-12T15:43:44.003Z</time></trkpt><trkpt lat="44.7097708" lon="12.1852999"><ele>-3.0</ele><time>2026-04-12T15:43:45.004Z</time></trkpt><trkpt lat="44.7097368" lon="12.1854524"><ele>-3.0</ele><time>2026-04-12T15:43:46.003Z</time></trkpt><trkpt lat="44.7096962" lon="12.1856238"><ele>-3.0</ele><time>2026-04-12T15:43:47.004Z</time></trkpt><trkpt lat="44.7096517" lon="12.185813"><ele>-3.0</ele><time>2026-04-12T15:43:48.003Z</time></trkpt><trkpt lat="44.7096035" lon="12.1860127"><ele>-3.0</ele><time>2026-04-12T15:43:49.003Z</time></trkpt><trkpt lat="44.7095552" lon="12.1862209"><ele>-3.0</ele><time>2026-04-12T15:43:50.003Z</time></trkpt><trkpt lat="44.7095033" lon="12.1864349"><ele>-3.0</ele><time>2026-04-12T15:43:51.005Z</time></trkpt><trkpt lat="44.7094524" lon="12.1866513"><ele>-3.0</ele><time>2026-04-12T15:43:52.004Z</time></trkpt><trkpt lat="44.7093997" lon="12.186865"><ele>-3.0</ele><time>2026-04-12T15:43:53.004Z</time></trkpt><trkpt lat="44.709343" lon="12.1870779"><ele>-3.0</ele><time>2026-04-12T15:43:54.003Z</time></trkpt><trkpt lat="44.7092883" lon="12.1872894"><ele>-3.0</ele><time>2026-04-12T15:43:55.003Z</time></trkpt><trkpt lat="44.7092346" lon="12.1874993"><ele>-3.0</ele><time>2026-04-12T15:43:56.003Z</time></trkpt><trkpt lat="44.7091796" lon="12.1877079"><ele>-3.0</ele><time>2026-04-12T15:43:57.003Z</time></trkpt><trkpt lat="44.7091264" lon="12.1879117"><ele>-3.0</ele><time>2026-04-12T15:43:58.004Z</time></trkpt><trkpt lat="44.709075" lon="12.188098"><ele>-2.8</ele><time>2026-04-12T15:43:59.003Z</time></trkpt><trkpt lat="44.7090274" lon="12.1882696"><ele>-2.5999999999999996</ele><time>2026-04-12T15:44:00.003Z</time></trkpt><trkpt lat="44.7089891" lon="12.1884151"><ele>-2.4000000000000004</ele><time>2026-04-12T15:44:01.003Z</time></trkpt><trkpt lat="44.7089593" lon="12.1885335"><ele>-2.2</ele><time>2026-04-12T15:44:02.004Z</time></trkpt><trkpt lat="44.7089425" lon="12.1886242"><ele>-2.0</ele><time>2026-04-12T15:44:03.004Z</time></trkpt><trkpt lat="44.7089868" lon="12.1887473"><ele>-2.0</ele><time>2026-04-12T15:44:05.003Z</time></trkpt><trkpt lat="44.7091069" lon="12.1888173"><ele>-2.0</ele><time>2026-04-12T15:44:07.003Z</time></trkpt><trkpt lat="44.7091836" lon="12.1888629"><ele>-2.0</ele><time>2026-04-12T15:44:08.004Z</time></trkpt><trkpt lat="44.7092551" lon="12.1889018"><ele>-2.0</ele><time>2026-04-12T15:44:09.004Z</time></trkpt><trkpt lat="44.7093291" lon="12.1889123"><ele>-2.0</ele><time>2026-04-12T15:44:10.003Z</time></trkpt><trkpt lat="44.7094333" lon="12.1888586"><ele>-2.4000000000000004</ele><time>2026-04-12T15:44:12.003Z</time></trkpt><trkpt lat="44.7094725" lon="12.1887808"><ele>-2.8000000000000003</ele><time>2026-04-12T15:44:13.003Z</time></trkpt><trkpt lat="44.7095277" lon="12.1886704"><ele>-3.2</ele><time>2026-04-12T15:44:14.004Z</time></trkpt><trkpt lat="44.7095928" lon="12.1885907"><ele>-3.6</ele><time>2026-04-12T15:44:15.004Z</time></trkpt><trkpt lat="44.7096865" lon="12.1885143"><ele>-4.0</ele><time>2026-04-12T15:44:16.004Z</time></trkpt><trkpt lat="44.7098142" lon="12.1884312"><ele>-4.0</ele><time>2026-04-12T15:44:17.003Z</time></trkpt><trkpt lat="44.7099716" lon="12.188343"><ele>-4.0</ele><time>2026-04-12T15:44:18.004Z</time></trkpt><trkpt lat="44.7101594" lon="12.1882371"><ele>-4.0</ele><time>2026-04-12T15:44:19.003Z</time></trkpt><trkpt lat="44.7103571" lon="12.1881262"><ele>-4.0</ele><time>2026-04-12T15:44:20.003Z</time></trkpt><trkpt lat="44.710522" lon="12.1880322"><ele>-4.0</ele><time>2026-04-12T15:44:21.003Z</time></trkpt><trkpt lat="44.7106572" lon="12.1879518"><ele>-4.0</ele><time>2026-04-12T15:44:22.003Z</time></trkpt><trkpt lat="44.7107789" lon="12.1878797"><ele>-4.0</ele><time>2026-04-12T15:44:23.003Z</time></trkpt><trkpt lat="44.7108994" lon="12.1878142"><ele>-4.0</ele><time>2026-04-12T15:44:24.003Z</time></trkpt><trkpt lat="44.7110062" lon="12.1877567"><ele>-4.0</ele><time>2026-04-12T15:44:25.003Z</time></trkpt><trkpt lat="44.7111012" lon="12.1876992"><ele>-4.0</ele><time>2026-04-12T15:44:26.005Z</time></trkpt><trkpt lat="44.7111959" lon="12.1876452"><ele>-4.0</ele><time>2026-04-12T15:44:27.003Z</time></trkpt><trkpt lat="44.7113201" lon="12.1875769"><ele>-4.0</ele><time>2026-04-12T15:44:28.003Z</time></trkpt><trkpt lat="44.7114547" lon="12.1875012"><ele>-4.0</ele><time>2026-04-12T15:44:29.003Z</time></trkpt><trkpt lat="44.7116036" lon="12.1874179"><ele>-4.0</ele><time>2026-04-12T15:44:30.003Z</time></trkpt><trkpt lat="44.7117562" lon="12.1873325"><ele>-4.0</ele><time>2026-04-12T15:44:31.003Z</time></trkpt><trkpt lat="44.7119019" lon="12.1872495"><ele>-4.0</ele><time>2026-04-12T15:44:32.003Z</time></trkpt><trkpt lat="44.7120385" lon="12.1871707"><ele>-4.0</ele><time>2026-04-12T15:44:33.003Z</time></trkpt><trkpt lat="44.7121661" lon="12.1870985"><ele>-4.0</ele><time>2026-04-12T15:44:34.003Z</time></trkpt><trkpt lat="44.7122854" lon="12.1870318"><ele>-4.0</ele><time>2026-04-12T15:44:35.003Z</time></trkpt><trkpt lat="44.7123922" lon="12.186972"><ele>-4.0</ele><time>2026-04-12T15:44:36.004Z</time></trkpt><trkpt lat="44.7124892" lon="12.1869181"><ele>-4.0</ele><time>2026-04-12T15:44:37.005Z</time></trkpt><trkpt lat="44.7125706" lon="12.1868721"><ele>-4.0</ele><time>2026-04-12T15:44:38.003Z</time></trkpt><trkpt lat="44.7126366" lon="12.1868353"><ele>-4.0</ele><time>2026-04-12T15:44:39.004Z</time></trkpt><trkpt lat="44.7127317" lon="12.1867858"><ele>-3.9999999999999996</ele><time>2026-04-12T15:44:41.005Z</time></trkpt><trkpt lat="44.7128045" lon="12.1867396"><ele>-4.0</ele><time>2026-04-12T15:44:44.004Z</time></trkpt><trkpt lat="44.7128777" lon="12.1867335"><ele>-4.0</ele><time>2026-04-12T15:44:46.004Z</time></trkpt><trkpt lat="44.7129266" lon="12.1868379"><ele>-4.0</ele><time>2026-04-12T15:44:48.004Z</time></trkpt><trkpt lat="44.712951" lon="12.1869559"><ele>-3.9999999999999996</ele><time>2026-04-12T15:44:49.005Z</time></trkpt><trkpt lat="44.7129889" lon="12.1870932"><ele>-4.0</ele><time>2026-04-12T15:44:50.003Z</time></trkpt><trkpt lat="44.7130356" lon="12.1872539"><ele>-4.0</ele><time>2026-04-12T15:44:51.003Z</time></trkpt><trkpt lat="44.7130838" lon="12.1874227"><ele>-4.0</ele><time>2026-04-12T15:44:52.003Z</time></trkpt><trkpt lat="44.713133" lon="12.187592"><ele>-4.0</ele><time>2026-04-12T15:44:53.003Z</time></trkpt><trkpt lat="44.7131834" lon="12.1877592"><ele>-4.0</ele><time>2026-04-12T15:44:54.003Z</time></trkpt><trkpt lat="44.7132368" lon="12.1879291"><ele>-4.0</ele><time>2026-04-12T15:44:55.004Z</time></trkpt><trkpt lat="44.7132879" lon="12.1880989"><ele>-4.0</ele><time>2026-04-12T15:44:56.003Z</time></trkpt><trkpt lat="44.7133414" lon="12.1882684"><ele>-4.0</ele><time>2026-04-12T15:44:57.003Z</time></trkpt><trkpt lat="44.7134048" lon="12.1884275"><ele>-4.0</ele><time>2026-04-12T15:44:58.003Z</time></trkpt><trkpt lat="44.7134647" lon="12.1885872"><ele>-4.25</ele><time>2026-04-12T15:44:59.004Z</time></trkpt><trkpt lat="44.7135169" lon="12.1887489"><ele>-4.5</ele><time>2026-04-12T15:45:00.004Z</time></trkpt><trkpt lat="44.7135702" lon="12.1889016"><ele>-4.75</ele><time>2026-04-12T15:45:01.004Z</time></trkpt><trkpt lat="44.7136247" lon="12.1890331"><ele>-5.0</ele><time>2026-04-12T15:45:02.003Z</time></trkpt><trkpt lat="44.7136806" lon="12.1891566"><ele>-4.5</ele><time>2026-04-12T15:45:03.004Z</time></trkpt><trkpt lat="44.7137246" lon="12.1892707"><ele>-4.0</ele><time>2026-04-12T15:45:04.003Z</time></trkpt><trkpt lat="44.7137588" lon="12.1893818"><ele>-3.5</ele><time>2026-04-12T15:45:05.004Z</time></trkpt><trkpt lat="44.7137793" lon="12.1894909"><ele>-3.0</ele><time>2026-04-12T15:45:06.004Z</time></trkpt><trkpt lat="44.7137914" lon="12.1896136"><ele>-2.5</ele><time>2026-04-12T15:45:07.005Z</time></trkpt><trkpt lat="44.713805" lon="12.1897431"><ele>-2.0</ele><time>2026-04-12T15:45:08.004Z</time></trkpt><trkpt lat="44.7138333" lon="12.1898759"><ele>-2.0</ele><time>2026-04-12T15:45:09.003Z</time></trkpt><trkpt lat="44.7138706" lon="12.1900275"><ele>-2.0</ele><time>2026-04-12T15:45:10.003Z</time></trkpt><trkpt lat="44.7139138" lon="12.1901872"><ele>-2.0</ele><time>2026-04-12T15:45:11.004Z</time></trkpt><trkpt lat="44.7139585" lon="12.1903567"><ele>-2.0</ele><time>2026-04-12T15:45:12.003Z</time></trkpt><trkpt lat="44.7140011" lon="12.1905328"><ele>-2.333333333333333</ele><time>2026-04-12T15:45:13.003Z</time></trkpt><trkpt lat="44.7140539" lon="12.1907232"><ele>-2.6666666666666665</ele><time>2026-04-12T15:45:14.004Z</time></trkpt><trkpt lat="44.7141115" lon="12.1909279"><ele>-3.0</ele><time>2026-04-12T15:45:15.004Z</time></trkpt><trkpt lat="44.7141689" lon="12.1911398"><ele>-3.0</ele><time>2026-04-12T15:45:16.004Z</time></trkpt><trkpt lat="44.7142297" lon="12.1913522"><ele>-3.0</ele><time>2026-04-12T15:45:17.004Z</time></trkpt><trkpt lat="44.7142936" lon="12.1915742"><ele>-3.0</ele><time>2026-04-12T15:45:18.003Z</time></trkpt><trkpt lat="44.7143581" lon="12.1917985"><ele>-3.0</ele><time>2026-04-12T15:45:19.003Z</time></trkpt><trkpt lat="44.7144228" lon="12.1920219"><ele>-3.0</ele><time>2026-04-12T15:45:20.003Z</time></trkpt><trkpt lat="44.7144873" lon="12.1922483"><ele>-3.0</ele><time>2026-04-12T15:45:21.003Z</time></trkpt><trkpt lat="44.7145525" lon="12.1924754"><ele>-3.0</ele><time>2026-04-12T15:45:22.005Z</time></trkpt><trkpt lat="44.7146185" lon="12.1927051"><ele>-3.0</ele><time>2026-04-12T15:45:23.003Z</time></trkpt><trkpt lat="44.7146837" lon="12.1929362"><ele>-3.0</ele><time>2026-04-12T15:45:24.004Z</time></trkpt><trkpt lat="44.7147497" lon="12.193165"><ele>-3.0</ele><time>2026-04-12T15:45:25.004Z</time></trkpt><trkpt lat="44.7148171" lon="12.193394"><ele>-3.0</ele><time>2026-04-12T15:45:26.003Z</time></trkpt><trkpt lat="44.7148851" lon="12.193625"><ele>-3.0</ele><time>2026-04-12T15:45:27.004Z</time></trkpt><trkpt lat="44.714953" lon="12.1938555"><ele>-3.333333333333333</ele><time>2026-04-12T15:45:28.003Z</time></trkpt><trkpt lat="44.7150204" lon="12.1940882"><ele>-3.6666666666666665</ele><time>2026-04-12T15:45:29.003Z</time></trkpt><trkpt lat="44.7150853" lon="12.1943202"><ele>-4.0</ele><time>2026-04-12T15:45:30.003Z</time></trkpt><trkpt lat="44.7151447" lon="12.1945296"><ele>-4.0</ele><time>2026-04-12T15:45:31.003Z</time></trkpt><trkpt lat="44.7151996" lon="12.1947152"><ele>-4.0</ele><time>2026-04-12T15:45:32.004Z</time></trkpt><trkpt lat="44.7152489" lon="12.1948817"><ele>-4.0</ele><time>2026-04-12T15:45:33.005Z</time></trkpt><trkpt lat="44.7152918" lon="12.1950266"><ele>-4.0</ele><time>2026-04-12T15:45:34.004Z</time></trkpt><trkpt lat="44.7153272" lon="12.1951547"><ele>-3.833333333333333</ele><time>2026-04-12T15:45:35.003Z</time></trkpt><trkpt lat="44.7153504" lon="12.1952688"><ele>-3.6666666666666665</ele><time>2026-04-12T15:45:36.003Z</time></trkpt><trkpt lat="44.715362" lon="12.1953629"><ele>-3.5</ele><time>2026-04-12T15:45:37.003Z</time></trkpt><trkpt lat="44.7153572" lon="12.1954735"><ele>-3.333333333333333</ele><time>2026-04-12T15:45:39.004Z</time></trkpt><trkpt lat="44.7152733" lon="12.1955646"><ele>-3.1666666666666665</ele><time>2026-04-12T15:45:43.004Z</time></trkpt><trkpt lat="44.715208" lon="12.1956068"><ele>-3.0</ele><time>2026-04-12T15:45:44.003Z</time></trkpt><trkpt lat="44.7151269" lon="12.1956587"><ele>-2.8</ele><time>2026-04-12T15:45:45.004Z</time></trkpt><trkpt lat="44.7150453" lon="12.1957151"><ele>-2.5999999999999996</ele><time>2026-04-12T15:45:46.005Z</time></trkpt><trkpt lat="44.7149598" lon="12.1957682"><ele>-2.4000000000000004</ele><time>2026-04-12T15:45:47.003Z</time></trkpt><trkpt lat="44.7148675" lon="12.1958168"><ele>-2.2</ele><time>2026-04-12T15:45:48.004Z</time></trkpt><trkpt lat="44.7147681" lon="12.195864"><ele>-2.0</ele><time>2026-04-12T15:45:49.003Z</time></trkpt><trkpt lat="44.7146666" lon="12.1959198"><ele>-2.0</ele><time>2026-04-12T15:45:50.003Z</time></trkpt><trkpt lat="44.7145658" lon="12.1959817"><ele>-2.0</ele><time>2026-04-12T15:45:51.003Z</time></trkpt><trkpt lat="44.7144637" lon="12.1960468"><ele>-2.0</ele><time>2026-04-12T15:45:52.003Z</time></trkpt><trkpt lat="44.7143553" lon="12.1961111"><ele>-2.0</ele><time>2026-04-12T15:45:53.004Z</time></trkpt><trkpt lat="44.7142405" lon="12.1961782"><ele>-2.0</ele><time>2026-04-12T15:45:54.003Z</time></trkpt><trkpt lat="44.7141214" lon="12.1962425"><ele>-2.0</ele><time>2026-04-12T15:45:55.005Z</time></trkpt><trkpt lat="44.7139984" lon="12.1963072"><ele>-2.0</ele><time>2026-04-12T15:45:56.004Z</time></trkpt><trkpt lat="44.7138745" lon="12.1963776"><ele>-2.0</ele><time>2026-04-12T15:45:57.003Z</time></trkpt><trkpt lat="44.7137607" lon="12.1964454"><ele>-2.5</ele><time>2026-04-12T15:45:58.003Z</time></trkpt><trkpt lat="44.7136562" lon="12.1965079"><ele>-3.0</ele><time>2026-04-12T15:45:59.003Z</time></trkpt><trkpt lat="44.7135452" lon="12.1965682"><ele>-3.5</ele><time>2026-04-12T15:46:00.004Z</time></trkpt><trkpt lat="44.7134276" lon="12.1966287"><ele>-4.0</ele><time>2026-04-12T15:46:01.003Z</time></trkpt><trkpt lat="44.7133094" lon="12.1966905"><ele>-4.0</ele><time>2026-04-12T15:46:02.003Z</time></trkpt><trkpt lat="44.713196" lon="12.1967549"><ele>-4.0</ele><time>2026-04-12T15:46:03.004Z</time></trkpt><trkpt lat="44.7130807" lon="12.1968283"><ele>-4.0</ele><time>2026-04-12T15:46:04.003Z</time></trkpt><trkpt lat="44.7129588" lon="12.1969033"><ele>-4.0</ele><time>2026-04-12T15:46:05.003Z</time></trkpt><trkpt lat="44.7128347" lon="12.1969752"><ele>-4.0</ele><time>2026-04-12T15:46:06.003Z</time></trkpt><trkpt lat="44.7127115" lon="12.1970448"><ele>-4.0</ele><time>2026-04-12T15:46:07.003Z</time></trkpt><trkpt lat="44.7125851" lon="12.1971172"><ele>-4.0</ele><time>2026-04-12T15:46:08.003Z</time></trkpt><trkpt lat="44.7124572" lon="12.1971925"><ele>-4.0</ele><time>2026-04-12T15:46:09.003Z</time></trkpt><trkpt lat="44.7123266" lon="12.1972678"><ele>-3.75</ele><time>2026-04-12T15:46:10.003Z</time></trkpt><trkpt lat="44.7121941" lon="12.1973442"><ele>-3.5</ele><time>2026-04-12T15:46:11.003Z</time></trkpt><trkpt lat="44.7120626" lon="12.1974196"><ele>-3.25</ele><time>2026-04-12T15:46:12.004Z</time></trkpt><trkpt lat="44.7119336" lon="12.1974922"><ele>-3.0</ele><time>2026-04-12T15:46:13.003Z</time></trkpt><trkpt lat="44.7118172" lon="12.1975576"><ele>-3.0</ele><time>2026-04-12T15:46:14.004Z</time></trkpt><trkpt lat="44.711704" lon="12.1976241"><ele>-3.0</ele><time>2026-04-12T15:46:15.004Z</time></trkpt><trkpt lat="44.7115826" lon="12.1976929"><ele>-3.0</ele><time>2026-04-12T15:46:16.004Z</time></trkpt><trkpt lat="44.7114581" lon="12.1977612"><ele>-3.0</ele><time>2026-04-12T15:46:17.003Z</time></trkpt><trkpt lat="44.7113384" lon="12.1978202"><ele>-3.0</ele><time>2026-04-12T15:46:18.003Z</time></trkpt><trkpt lat="44.7112228" lon="12.1978836"><ele>-3.0</ele><time>2026-04-12T15:46:19.003Z</time></trkpt><trkpt lat="44.7111043" lon="12.1979528"><ele>-3.0</ele><time>2026-04-12T15:46:20.004Z</time></trkpt><trkpt lat="44.7109829" lon="12.1980229"><ele>-3.0</ele><time>2026-04-12T15:46:21.003Z</time></trkpt><trkpt lat="44.7108572" lon="12.1981011"><ele>-3.0</ele><time>2026-04-12T15:46:22.003Z</time></trkpt><trkpt lat="44.710728" lon="12.1981811"><ele>-3.0</ele><time>2026-04-12T15:46:23.003Z</time></trkpt><trkpt lat="44.7105937" lon="12.1982566"><ele>-3.0</ele><time>2026-04-12T15:46:24.004Z</time></trkpt><trkpt lat="44.7104568" lon="12.1983317"><ele>-3.0</ele><time>2026-04-12T15:46:25.003Z</time></trkpt><trkpt lat="44.7103216" lon="12.1984085"><ele>-3.0</ele><time>2026-04-12T15:46:26.004Z</time></trkpt><trkpt lat="44.7101828" lon="12.1984869"><ele>-3.0</ele><time>2026-04-12T15:46:27.003Z</time></trkpt><trkpt lat="44.7100455" lon="12.1985647"><ele>-3.0</ele><time>2026-04-12T15:46:28.003Z</time></trkpt><trkpt lat="44.709913" lon="12.198643"><ele>-3.0</ele><time>2026-04-12T15:46:29.004Z</time></trkpt><trkpt lat="44.7097942" lon="12.1987091"><ele>-3.0</ele><time>2026-04-12T15:46:30.003Z</time></trkpt><trkpt lat="44.7096751" lon="12.1987763"><ele>-3.0</ele><time>2026-04-12T15:46:31.003Z</time></trkpt><trkpt lat="44.7095611" lon="12.1988399"><ele>-3.0</ele><time>2026-04-12T15:46:32.003Z</time></trkpt><trkpt lat="44.7094428" lon="12.1989058"><ele>-3.0</ele><time>2026-04-12T15:46:33.003Z</time></trkpt><trkpt lat="44.7093162" lon="12.1989777"><ele>-3.25</ele><time>2026-04-12T15:46:34.003Z</time></trkpt><trkpt lat="44.7091825" lon="12.1990507"><ele>-3.5</ele><time>2026-04-12T15:46:35.004Z</time></trkpt><trkpt lat="44.7090442" lon="12.1991288"><ele>-3.75</ele><time>2026-04-12T15:46:36.004Z</time></trkpt><trkpt lat="44.708905" lon="12.1992155"><ele>-4.0</ele><time>2026-04-12T15:46:37.004Z</time></trkpt><trkpt lat="44.708761" lon="12.1992991"><ele>-4.0</ele><time>2026-04-12T15:46:38.003Z</time></trkpt><trkpt lat="44.7086188" lon="12.1993783"><ele>-4.0</ele><time>2026-04-12T15:46:39.004Z</time></trkpt><trkpt lat="44.7084764" lon="12.1994579"><ele>-4.0</ele><time>2026-04-12T15:46:40.003Z</time></trkpt><trkpt lat="44.7083343" lon="12.1995396"><ele>-4.333333333333333</ele><time>2026-04-12T15:46:41.003Z</time></trkpt><trkpt lat="44.7081911" lon="12.1996237"><ele>-4.666666666666667</ele><time>2026-04-12T15:46:42.004Z</time></trkpt><trkpt lat="44.7080462" lon="12.1997059"><ele>-5.0</ele><time>2026-04-12T15:46:43.004Z</time></trkpt><trkpt lat="44.7078991" lon="12.1997846"><ele>-4.666666666666667</ele><time>2026-04-12T15:46:44.003Z</time></trkpt><trkpt lat="44.7077514" lon="12.1998668"><ele>-4.333333333333333</ele><time>2026-04-12T15:46:45.004Z</time></trkpt><trkpt lat="44.7076037" lon="12.1999523"><ele>-4.0</ele><time>2026-04-12T15:46:46.003Z</time></trkpt><trkpt lat="44.707456" lon="12.2000366"><ele>-4.0</ele><time>2026-04-12T15:46:47.003Z</time></trkpt><trkpt lat="44.7073065" lon="12.2001227"><ele>-4.0</ele><time>2026-04-12T15:46:48.003Z</time></trkpt><trkpt lat="44.7071574" lon="12.2002077"><ele>-4.0</ele><time>2026-04-12T15:46:49.004Z</time></trkpt><trkpt lat="44.7070067" lon="12.200292"><ele>-3.6666666666666665</ele><time>2026-04-12T15:46:50.003Z</time></trkpt><trkpt lat="44.7068558" lon="12.2003785"><ele>-3.333333333333333</ele><time>2026-04-12T15:46:51.004Z</time></trkpt><trkpt lat="44.706706" lon="12.2004641"><ele>-3.0</ele><time>2026-04-12T15:46:52.004Z</time></trkpt><trkpt lat="44.7065558" lon="12.2005534"><ele>-3.0</ele><time>2026-04-12T15:46:53.003Z</time></trkpt><trkpt lat="44.7064061" lon="12.2006455"><ele>-3.0</ele><time>2026-04-12T15:46:54.004Z</time></trkpt><trkpt lat="44.7062564" lon="12.2007318"><ele>-3.0</ele><time>2026-04-12T15:46:55.003Z</time></trkpt><trkpt lat="44.7061083" lon="12.2008204"><ele>-3.333333333333333</ele><time>2026-04-12T15:46:56.003Z</time></trkpt><trkpt lat="44.7059612" lon="12.2009051"><ele>-3.6666666666666665</ele><time>2026-04-12T15:46:57.003Z</time></trkpt><trkpt lat="44.7058148" lon="12.2009874"><ele>-4.0</ele><time>2026-04-12T15:46:58.003Z</time></trkpt><trkpt lat="44.7056773" lon="12.2010652"><ele>-4.0</ele><time>2026-04-12T15:46:59.003Z</time></trkpt><trkpt lat="44.7055452" lon="12.2011395"><ele>-4.0</ele><time>2026-04-12T15:47:00.004Z</time></trkpt><trkpt lat="44.7054142" lon="12.2012102"><ele>-4.0</ele><time>2026-04-12T15:47:01.003Z</time></trkpt><trkpt lat="44.7052978" lon="12.2012721"><ele>-4.0</ele><time>2026-04-12T15:47:02.004Z</time></trkpt><trkpt lat="44.7051958" lon="12.201329"><ele>-3.833333333333333</ele><time>2026-04-12T15:47:03.004Z</time></trkpt><trkpt lat="44.7051085" lon="12.201377"><ele>-3.6666666666666665</ele><time>2026-04-12T15:47:04.003Z</time></trkpt><trkpt lat="44.7050373" lon="12.2014196"><ele>-3.5</ele><time>2026-04-12T15:47:05.004Z</time></trkpt><trkpt lat="44.704964" lon="12.2015188"><ele>-3.333333333333333</ele><time>2026-04-12T15:47:07.003Z</time></trkpt><trkpt lat="44.7049641" lon="12.2016538"><ele>-3.1666666666666665</ele><time>2026-04-12T15:47:09.004Z</time></trkpt><trkpt lat="44.7049678" lon="12.2017569"><ele>-3.0</ele><time>2026-04-12T15:47:10.004Z</time></trkpt><trkpt lat="44.7049624" lon="12.2018674"><ele>-3.0</ele><time>2026-04-12T15:47:11.003Z</time></trkpt><trkpt lat="44.7049637" lon="12.2019565"><ele>-3.0</ele><time>2026-04-12T15:47:12.003Z</time></trkpt><trkpt lat="44.7049466" lon="12.2021091"><ele>-3.0</ele><time>2026-04-12T15:47:14.003Z</time></trkpt><trkpt lat="44.7048495" lon="12.2022514"><ele>-3.0</ele><time>2026-04-12T15:47:16.005Z</time></trkpt><trkpt lat="44.7047762" lon="12.2023123"><ele>-3.0</ele><time>2026-04-12T15:47:17.003Z</time></trkpt><trkpt lat="44.704718" lon="12.2023505"><ele>-3.0</ele><time>2026-04-12T15:47:18.004Z</time></trkpt><trkpt lat="44.7046559" lon="12.2023816"><ele>-3.0</ele><time>2026-04-12T15:47:19.004Z</time></trkpt><trkpt lat="44.704575" lon="12.2024195"><ele>-3.0</ele><time>2026-04-12T15:47:20.003Z</time></trkpt><trkpt lat="44.7044805" lon="12.2024672"><ele>-3.0</ele><time>2026-04-12T15:47:21.003Z</time></trkpt><trkpt lat="44.7043842" lon="12.2025178"><ele>-3.0</ele><time>2026-04-12T15:47:22.004Z</time></trkpt><trkpt lat="44.7042837" lon="12.2025757"><ele>-3.0</ele><time>2026-04-12T15:47:23.003Z</time></trkpt><trkpt lat="44.7041832" lon="12.2026312"><ele>-3.0</ele><time>2026-04-12T15:47:24.004Z</time></trkpt><trkpt lat="44.7040855" lon="12.2026879"><ele>-3.0</ele><time>2026-04-12T15:47:25.003Z</time></trkpt><trkpt lat="44.7039872" lon="12.2027461"><ele>-3.0</ele><time>2026-04-12T15:47:26.003Z</time></trkpt><trkpt lat="44.7038994" lon="12.2027993"><ele>-3.0</ele><time>2026-04-12T15:47:27.004Z</time></trkpt><trkpt lat="44.7038142" lon="12.2028531"><ele>-3.0</ele><time>2026-04-12T15:47:28.003Z</time></trkpt><trkpt lat="44.7037327" lon="12.202915"><ele>-3.0</ele><time>2026-04-12T15:47:29.005Z</time></trkpt><trkpt lat="44.703661" lon="12.2029895"><ele>-3.0</ele><time>2026-04-12T15:47:30.004Z</time></trkpt><trkpt lat="44.7035965" lon="12.2030762"><ele>-3.0</ele><time>2026-04-12T15:47:31.003Z</time></trkpt><trkpt lat="44.703539" lon="12.2031848"><ele>-3.0</ele><time>2026-04-12T15:47:32.003Z</time></trkpt><trkpt lat="44.7034738" lon="12.2033005"><ele>-3.0</ele><time>2026-04-12T15:47:33.003Z</time></trkpt><trkpt lat="44.7034086" lon="12.2034229"><ele>-3.0</ele><time>2026-04-12T15:47:34.003Z</time></trkpt><trkpt lat="44.7033413" lon="12.2035516"><ele>-3.0</ele><time>2026-04-12T15:47:35.004Z</time></trkpt><trkpt lat="44.7032701" lon="12.2036852"><ele>-3.0</ele><time>2026-04-12T15:47:36.003Z</time></trkpt><trkpt lat="44.7031994" lon="12.2038212"><ele>-3.0</ele><time>2026-04-12T15:47:37.004Z</time></trkpt><trkpt lat="44.7031285" lon="12.2039575"><ele>-3.0</ele><time>2026-04-12T15:47:38.003Z</time></trkpt><trkpt lat="44.7030593" lon="12.2040909"><ele>-3.0</ele><time>2026-04-12T15:47:39.005Z</time></trkpt><trkpt lat="44.7029906" lon="12.204226"><ele>-3.0</ele><time>2026-04-12T15:47:40.004Z</time></trkpt><trkpt lat="44.7029221" lon="12.2043617"><ele>-2.75</ele><time>2026-04-12T15:47:41.003Z</time></trkpt><trkpt lat="44.7028487" lon="12.2044957"><ele>-2.5</ele><time>2026-04-12T15:47:42.004Z</time></trkpt><trkpt lat="44.7027754" lon="12.2046296"><ele>-2.25</ele><time>2026-04-12T15:47:43.004Z</time></trkpt><trkpt lat="44.7026995" lon="12.2047678"><ele>-2.0</ele><time>2026-04-12T15:47:44.003Z</time></trkpt><trkpt lat="44.702622" lon="12.2049115"><ele>-2.0</ele><time>2026-04-12T15:47:45.004Z</time></trkpt><trkpt lat="44.7025404" lon="12.2050621"><ele>-2.0</ele><time>2026-04-12T15:47:46.004Z</time></trkpt><trkpt lat="44.7024585" lon="12.2052071"><ele>-2.0</ele><time>2026-04-12T15:47:47.003Z</time></trkpt><trkpt lat="44.7023773" lon="12.2053508"><ele>-2.0</ele><time>2026-04-12T15:47:48.003Z</time></trkpt><trkpt lat="44.7022964" lon="12.205497"><ele>-2.0</ele><time>2026-04-12T15:47:49.004Z</time></trkpt><trkpt lat="44.7022132" lon="12.205647"><ele>-2.0</ele><time>2026-04-12T15:47:50.003Z</time></trkpt><trkpt lat="44.7021235" lon="12.2057878"><ele>-2.0</ele><time>2026-04-12T15:47:51.003Z</time></trkpt><trkpt lat="44.7020198" lon="12.2059152"><ele>-2.0</ele><time>2026-04-12T15:47:52.004Z</time></trkpt><trkpt lat="44.7019187" lon="12.2060384"><ele>-2.0</ele><time>2026-04-12T15:47:53.003Z</time></trkpt><trkpt lat="44.7018366" lon="12.2061657"><ele>-2.0</ele><time>2026-04-12T15:47:54.004Z</time></trkpt><trkpt lat="44.7017639" lon="12.2062914"><ele>-2.0</ele><time>2026-04-12T15:47:55.003Z</time></trkpt><trkpt lat="44.7016941" lon="12.2064176"><ele>-2.0</ele><time>2026-04-12T15:47:56.003Z</time></trkpt><trkpt lat="44.7016214" lon="12.206555"><ele>-2.75</ele><time>2026-04-12T15:47:57.003Z</time></trkpt><trkpt lat="44.7015461" lon="12.2067019"><ele>-3.5</ele><time>2026-04-12T15:47:58.004Z</time></trkpt><trkpt lat="44.7014674" lon="12.2068502"><ele>-4.25</ele><time>2026-04-12T15:47:59.004Z</time></trkpt><trkpt lat="44.7013943" lon="12.2069882"><ele>-5.0</ele><time>2026-04-12T15:48:00.003Z</time></trkpt><trkpt lat="44.7013177" lon="12.2071381"><ele>-5.0</ele><time>2026-04-12T15:48:01.003Z</time></trkpt><trkpt lat="44.7012406" lon="12.2072909"><ele>-5.0</ele><time>2026-04-12T15:48:02.004Z</time></trkpt><trkpt lat="44.7011652" lon="12.2074573"><ele>-5.0</ele><time>2026-04-12T15:48:03.004Z</time></trkpt><trkpt lat="44.7010854" lon="12.2076341"><ele>-5.0</ele><time>2026-04-12T15:48:04.003Z</time></trkpt><trkpt lat="44.7010007" lon="12.2078134"><ele>-4.666666666666667</ele><time>2026-04-12T15:48:05.004Z</time></trkpt><trkpt lat="44.7009172" lon="12.2079898"><ele>-4.333333333333333</ele><time>2026-04-12T15:48:06.003Z</time></trkpt><trkpt lat="44.7008281" lon="12.2081617"><ele>-4.0</ele><time>2026-04-12T15:48:07.003Z</time></trkpt><trkpt lat="44.7007338" lon="12.2083334"><ele>-3.75</ele><time>2026-04-12T15:48:08.003Z</time></trkpt><trkpt lat="44.7006452" lon="12.2084989"><ele>-3.5</ele><time>2026-04-12T15:48:09.003Z</time></trkpt><trkpt lat="44.700558" lon="12.208663"><ele>-3.25</ele><time>2026-04-12T15:48:10.003Z</time></trkpt><trkpt lat="44.7004729" lon="12.2088254"><ele>-3.0</ele><time>2026-04-12T15:48:11.005Z</time></trkpt><trkpt lat="44.7003909" lon="12.2089789"><ele>-3.0</ele><time>2026-04-12T15:48:12.004Z</time></trkpt><trkpt lat="44.7003142" lon="12.2091247"><ele>-3.0</ele><time>2026-04-12T15:48:13.003Z</time></trkpt><trkpt lat="44.7002524" lon="12.2092475"><ele>-3.0</ele><time>2026-04-12T15:48:14.003Z</time></trkpt><trkpt lat="44.7002031" lon="12.209348"><ele>-3.0</ele><time>2026-04-12T15:48:15.003Z</time></trkpt><trkpt lat="44.7001478" lon="12.2094527"><ele>-3.0</ele><time>2026-04-12T15:48:16.004Z</time></trkpt><trkpt lat="44.7000979" lon="12.2095414"><ele>-3.0</ele><time>2026-04-12T15:48:17.003Z</time></trkpt><trkpt lat="44.7000569" lon="12.20963"><ele>-3.0</ele><time>2026-04-12T15:48:18.003Z</time></trkpt><trkpt lat="44.7000136" lon="12.2097164"><ele>-3.0</ele><time>2026-04-12T15:48:19.003Z</time></trkpt><trkpt lat="44.6999715" lon="12.2097925"><ele>-3.0</ele><time>2026-04-12T15:48:20.003Z</time></trkpt><trkpt lat="44.6999295" lon="12.2098755"><ele>-3.0</ele><time>2026-04-12T15:48:21.003Z</time></trkpt><trkpt lat="44.6998793" lon="12.2099755"><ele>-3.0</ele><time>2026-04-12T15:48:22.003Z</time></trkpt><trkpt lat="44.6998251" lon="12.2100808"><ele>-3.0</ele><time>2026-04-12T15:48:23.003Z</time></trkpt><trkpt lat="44.6997795" lon="12.2101731"><ele>-3.0</ele><time>2026-04-12T15:48:24.004Z</time></trkpt><trkpt lat="44.6997445" lon="12.2102537"><ele>-3.0</ele><time>2026-04-12T15:48:25.004Z</time></trkpt><trkpt lat="44.6996706" lon="12.2103982"><ele>-3.0</ele><time>2026-04-12T15:48:27.004Z</time></trkpt><trkpt lat="44.6996182" lon="12.2105018"><ele>-3.0</ele><time>2026-04-12T15:48:28.004Z</time></trkpt><trkpt lat="44.6995674" lon="12.2106028"><ele>-3.0</ele><time>2026-04-12T15:48:29.004Z</time></trkpt><trkpt lat="44.6995188" lon="12.2106914"><ele>-3.0</ele><time>2026-04-12T15:48:30.004Z</time></trkpt><trkpt lat="44.6994686" lon="12.2107754"><ele>-3.0</ele><time>2026-04-12T15:48:31.004Z</time></trkpt><trkpt lat="44.6994167" lon="12.2108717"><ele>-3.0</ele><time>2026-04-12T15:48:32.004Z</time></trkpt><trkpt lat="44.6993649" lon="12.2109749"><ele>-3.0</ele><time>2026-04-12T15:48:33.003Z</time></trkpt><trkpt lat="44.6993082" lon="12.2110826"><ele>-3.0</ele><time>2026-04-12T15:48:34.004Z</time></trkpt><trkpt lat="44.6992505" lon="12.2111969"><ele>-3.0</ele><time>2026-04-12T15:48:35.004Z</time></trkpt><trkpt lat="44.6991924" lon="12.2113087"><ele>-3.0</ele><time>2026-04-12T15:48:36.005Z</time></trkpt><trkpt lat="44.6991335" lon="12.2114189"><ele>-3.0</ele><time>2026-04-12T15:48:37.003Z</time></trkpt><trkpt lat="44.699075" lon="12.2115292"><ele>-3.0</ele><time>2026-04-12T15:48:38.004Z</time></trkpt><trkpt lat="44.6990168" lon="12.2116438"><ele>-3.0</ele><time>2026-04-12T15:48:39.004Z</time></trkpt><trkpt lat="44.6989586" lon="12.2117601"><ele>-3.0</ele><time>2026-04-12T15:48:40.004Z</time></trkpt><trkpt lat="44.6988985" lon="12.2118763"><ele>-3.0</ele><time>2026-04-12T15:48:41.004Z</time></trkpt><trkpt lat="44.6988376" lon="12.2119947"><ele>-3.0</ele><time>2026-04-12T15:48:42.003Z</time></trkpt><trkpt lat="44.6987801" lon="12.2121093"><ele>-3.0</ele><time>2026-04-12T15:48:43.003Z</time></trkpt><trkpt lat="44.698729" lon="12.2122113"><ele>-3.0</ele><time>2026-04-12T15:48:44.005Z</time></trkpt><trkpt lat="44.6986805" lon="12.2123074"><ele>-3.1666666666666665</ele><time>2026-04-12T15:48:45.003Z</time></trkpt><trkpt lat="44.6986338" lon="12.2123996"><ele>-3.333333333333333</ele><time>2026-04-12T15:48:46.003Z</time></trkpt><trkpt lat="44.6985944" lon="12.2124747"><ele>-3.5</ele><time>2026-04-12T15:48:47.003Z</time></trkpt><trkpt lat="44.698525" lon="12.2126053"><ele>-3.6666666666666665</ele><time>2026-04-12T15:48:49.003Z</time></trkpt><trkpt lat="44.6984845" lon="12.2126827"><ele>-3.833333333333333</ele><time>2026-04-12T15:48:50.003Z</time></trkpt><trkpt lat="44.6984394" lon="12.2127664"><ele>-4.0</ele><time>2026-04-12T15:48:51.004Z</time></trkpt><trkpt lat="44.6983939" lon="12.2128527"><ele>-3.833333333333333</ele><time>2026-04-12T15:48:52.004Z</time></trkpt><trkpt lat="44.698351" lon="12.2129332"><ele>-3.6666666666666665</ele><time>2026-04-12T15:48:53.005Z</time></trkpt><trkpt lat="44.698307" lon="12.2130216"><ele>-3.5</ele><time>2026-04-12T15:48:54.004Z</time></trkpt><trkpt lat="44.6982677" lon="12.2130976"><ele>-3.333333333333333</ele><time>2026-04-12T15:48:55.004Z</time></trkpt><trkpt lat="44.6982352" lon="12.2131771"><ele>-3.1666666666666665</ele><time>2026-04-12T15:48:56.004Z</time></trkpt><trkpt lat="44.6982096" lon="12.2133304"><ele>-3.0</ele><time>2026-04-12T15:48:58.004Z</time></trkpt><trkpt lat="44.6982462" lon="12.2135099"><ele>-3.0</ele><time>2026-04-12T15:49:00.003Z</time></trkpt><trkpt lat="44.6982773" lon="12.2136124"><ele>-3.0</ele><time>2026-04-12T15:49:01.003Z</time></trkpt><trkpt lat="44.6983097" lon="12.2137236"><ele>-3.0</ele><time>2026-04-12T15:49:02.003Z</time></trkpt><trkpt lat="44.698343" lon="12.213838"><ele>-3.0</ele><time>2026-04-12T15:49:03.004Z</time></trkpt><trkpt lat="44.6983779" lon="12.2139596"><ele>-3.0</ele><time>2026-04-12T15:49:04.003Z</time></trkpt><trkpt lat="44.6984133" lon="12.2140798"><ele>-3.0</ele><time>2026-04-12T15:49:05.004Z</time></trkpt><trkpt lat="44.6984486" lon="12.2142015"><ele>-3.0</ele><time>2026-04-12T15:49:06.004Z</time></trkpt><trkpt lat="44.6984828" lon="12.2143181"><ele>-3.0</ele><time>2026-04-12T15:49:07.004Z</time></trkpt><trkpt lat="44.6985193" lon="12.2144402"><ele>-3.0</ele><time>2026-04-12T15:49:08.003Z</time></trkpt><trkpt lat="44.6985566" lon="12.2145676"><ele>-3.0</ele><time>2026-04-12T15:49:09.004Z</time></trkpt><trkpt lat="44.6985955" lon="12.2147027"><ele>-3.0</ele><time>2026-04-12T15:49:10.003Z</time></trkpt><trkpt lat="44.6986347" lon="12.2148369"><ele>-3.0</ele><time>2026-04-12T15:49:11.004Z</time></trkpt><trkpt lat="44.6986733" lon="12.2149759"><ele>-3.0</ele><time>2026-04-12T15:49:12.004Z</time></trkpt><trkpt lat="44.6987142" lon="12.2151162"><ele>-3.0</ele><time>2026-04-12T15:49:13.004Z</time></trkpt><trkpt lat="44.6987555" lon="12.2152544"><ele>-3.0</ele><time>2026-04-12T15:49:14.004Z</time></trkpt><trkpt lat="44.698797" lon="12.215389"><ele>-3.0</ele><time>2026-04-12T15:49:15.005Z</time></trkpt><trkpt lat="44.6988374" lon="12.2155255"><ele>-2.8</ele><time>2026-04-12T15:49:16.004Z</time></trkpt><trkpt lat="44.6988758" lon="12.2156623"><ele>-2.5999999999999996</ele><time>2026-04-12T15:49:17.003Z</time></trkpt><trkpt lat="44.6989147" lon="12.2158005"><ele>-2.4000000000000004</ele><time>2026-04-12T15:49:18.004Z</time></trkpt><trkpt lat="44.6989555" lon="12.2159399"><ele>-2.2</ele><time>2026-04-12T15:49:19.003Z</time></trkpt><trkpt lat="44.6989968" lon="12.2160834"><ele>-2.0</ele><time>2026-04-12T15:49:20.004Z</time></trkpt><trkpt lat="44.699038" lon="12.2162264"><ele>-2.0</ele><time>2026-04-12T15:49:21.005Z</time></trkpt><trkpt lat="44.6990801" lon="12.2163713"><ele>-2.0</ele><time>2026-04-12T15:49:22.004Z</time></trkpt><trkpt lat="44.6991204" lon="12.2165082"><ele>-2.0</ele><time>2026-04-12T15:49:23.004Z</time></trkpt><trkpt lat="44.6991574" lon="12.2166359"><ele>-2.0</ele><time>2026-04-12T15:49:24.003Z</time></trkpt><trkpt lat="44.6991898" lon="12.2167475"><ele>-2.0</ele><time>2026-04-12T15:49:25.003Z</time></trkpt><trkpt lat="44.6992199" lon="12.2168465"><ele>-1.6666666666666665</ele><time>2026-04-12T15:49:26.003Z</time></trkpt><trkpt lat="44.6992452" lon="12.2169315"><ele>-1.3333333333333333</ele><time>2026-04-12T15:49:27.005Z</time></trkpt><trkpt lat="44.6992702" lon="12.2170596"><ele>-1.0</ele><time>2026-04-12T15:49:29.003Z</time></trkpt><trkpt lat="44.6992393" lon="12.2171546"><ele>-0.6666666666666666</ele><time>2026-04-12T15:49:31.003Z</time></trkpt><trkpt lat="44.6991491" lon="12.217199"><ele>-0.3333333333333333</ele><time>2026-04-12T15:49:33.004Z</time></trkpt><trkpt lat="44.6990717" lon="12.2172195"><ele>0.0</ele><time>2026-04-12T15:49:34.003Z</time></trkpt><trkpt lat="44.6989822" lon="12.2172376"><ele>0.0</ele><time>2026-04-12T15:49:35.005Z</time></trkpt><trkpt lat="44.6988841" lon="12.2172588"><ele>0.0</ele><time>2026-04-12T15:49:36.004Z</time></trkpt><trkpt lat="44.6987769" lon="12.2172887"><ele>0.0</ele><time>2026-04-12T15:49:37.003Z</time></trkpt><trkpt lat="44.69866" lon="12.2173153"><ele>0.0</ele><time>2026-04-12T15:49:38.003Z</time></trkpt><trkpt lat="44.6985375" lon="12.2173412"><ele>-0.25</ele><time>2026-04-12T15:49:39.003Z</time></trkpt><trkpt lat="44.6984128" lon="12.2173646"><ele>-0.5</ele><time>2026-04-12T15:49:40.004Z</time></trkpt><trkpt lat="44.6982854" lon="12.2173879"><ele>-0.75</ele><time>2026-04-12T15:49:41.004Z</time></trkpt><trkpt lat="44.6981563" lon="12.217409"><ele>-1.0</ele><time>2026-04-12T15:49:42.003Z</time></trkpt><trkpt lat="44.6980256" lon="12.2174224"><ele>-1.0</ele><time>2026-04-12T15:49:43.003Z</time></trkpt><trkpt lat="44.69789" lon="12.217433"><ele>-1.0</ele><time>2026-04-12T15:49:44.003Z</time></trkpt><trkpt lat="44.6977524" lon="12.2174269"><ele>-1.0</ele><time>2026-04-12T15:49:45.004Z</time></trkpt><trkpt lat="44.6976128" lon="12.2174151"><ele>-1.0</ele><time>2026-04-12T15:49:46.003Z</time></trkpt><trkpt lat="44.6974723" lon="12.2173963"><ele>-1.25</ele><time>2026-04-12T15:49:47.003Z</time></trkpt><trkpt lat="44.6973298" lon="12.2173745"><ele>-1.5</ele><time>2026-04-12T15:49:48.005Z</time></trkpt><trkpt lat="44.6971874" lon="12.2173549"><ele>-1.75</ele><time>2026-04-12T15:49:49.004Z</time></trkpt><trkpt lat="44.6970553" lon="12.2173326"><ele>-2.0</ele><time>2026-04-12T15:49:50.004Z</time></trkpt><trkpt lat="44.6969363" lon="12.2173139"><ele>-2.0</ele><time>2026-04-12T15:49:51.004Z</time></trkpt><trkpt lat="44.6968257" lon="12.2172988"><ele>-2.0</ele><time>2026-04-12T15:49:52.003Z</time></trkpt><trkpt lat="44.696729" lon="12.2172854"><ele>-2.0</ele><time>2026-04-12T15:49:53.005Z</time></trkpt><trkpt lat="44.6966414" lon="12.2172774"><ele>-2.0</ele><time>2026-04-12T15:49:54.003Z</time></trkpt><trkpt lat="44.6965541" lon="12.2172633"><ele>-2.0</ele><time>2026-04-12T15:49:55.004Z</time></trkpt><trkpt lat="44.6964837" lon="12.2172503"><ele>-2.0</ele><time>2026-04-12T15:49:56.004Z</time></trkpt><trkpt lat="44.6964208" lon="12.2172401"><ele>-1.9999999999999998</ele><time>2026-04-12T15:49:57.003Z</time></trkpt><trkpt lat="44.6963574" lon="12.2172298"><ele>-2.0</ele><time>2026-04-12T15:49:58.004Z</time></trkpt><trkpt lat="44.6962621" lon="12.2172307"><ele>-2.0</ele><time>2026-04-12T15:50:00.005Z</time></trkpt><trkpt lat="44.6962045" lon="12.2173136"><ele>-1.9999999999999998</ele><time>2026-04-12T15:50:03.003Z</time></trkpt><trkpt lat="44.6961912" lon="12.2174169"><ele>-2.0</ele><time>2026-04-12T15:50:06.004Z</time></trkpt><trkpt lat="44.6961844" lon="12.2175052"><ele>-2.0</ele><time>2026-04-12T15:50:08.003Z</time></trkpt><trkpt lat="44.6962388" lon="12.2175692"><ele>-1.8333333333333333</ele><time>2026-04-12T15:50:10.003Z</time></trkpt><trkpt lat="44.69631" lon="12.2175342"><ele>-1.6666666666666665</ele><time>2026-04-12T15:50:12.003Z</time></trkpt><trkpt lat="44.6964092" lon="12.2175095"><ele>-1.5</ele><time>2026-04-12T15:50:14.003Z</time></trkpt><trkpt lat="44.6964781" lon="12.2175143"><ele>-1.3333333333333333</ele><time>2026-04-12T15:50:16.004Z</time></trkpt><trkpt lat="44.6965484" lon="12.217542"><ele>-1.1666666666666665</ele><time>2026-04-12T15:50:19.004Z</time></trkpt><trkpt lat="44.6965465" lon="12.2176319"><ele>-1.0</ele><time>2026-04-12T15:50:44.004Z</time></trkpt><trkpt lat="44.6964606" lon="12.2176356"><ele>-0.9999999999999999</ele><time>2026-04-12T15:50:46.004Z</time></trkpt><trkpt lat="44.6963677" lon="12.2176135"><ele>-1.0</ele><time>2026-04-12T15:50:48.004Z</time></trkpt><trkpt lat="44.6963018" lon="12.2175994"><ele>-1.0</ele><time>2026-04-12T15:50:51.004Z</time></trkpt><trkpt lat="44.696305" lon="12.2175089"><ele>-1.0</ele><time>2026-04-12T15:54:05.003Z</time></trkpt><trkpt lat="44.6963982" lon="12.2174858"><ele>-0.9999999999999999</ele><time>2026-04-12T15:54:07.004Z</time></trkpt><trkpt lat="44.6964779" lon="12.217502"><ele>-1.0</ele><time>2026-04-12T15:54:08.004Z</time></trkpt><trkpt lat="44.6965583" lon="12.2175176"><ele>-1.0</ele><time>2026-04-12T15:54:09.004Z</time></trkpt><trkpt lat="44.6966483" lon="12.2175333"><ele>-1.0</ele><time>2026-04-12T15:54:10.005Z</time></trkpt><trkpt lat="44.6967375" lon="12.21755"><ele>-1.0</ele><time>2026-04-12T15:54:11.004Z</time></trkpt><trkpt lat="44.6968383" lon="12.2175699"><ele>-1.0</ele><time>2026-04-12T15:54:12.003Z</time></trkpt><trkpt lat="44.6969486" lon="12.2175896"><ele>-1.0</ele><time>2026-04-12T15:54:13.003Z</time></trkpt><trkpt lat="44.6970972" lon="12.217613"><ele>-1.5</ele><time>2026-04-12T15:54:14.004Z</time></trkpt><trkpt lat="44.6972488" lon="12.2176357"><ele>-2.0</ele><time>2026-04-12T15:54:15.004Z</time></trkpt><trkpt lat="44.6973831" lon="12.2176529"><ele>-2.5</ele><time>2026-04-12T15:54:16.003Z</time></trkpt><trkpt lat="44.6975188" lon="12.2176697"><ele>-3.0</ele><time>2026-04-12T15:54:17.003Z</time></trkpt><trkpt lat="44.6976556" lon="12.2176827"><ele>-2.5</ele><time>2026-04-12T15:54:18.004Z</time></trkpt><trkpt lat="44.6977938" lon="12.2176941"><ele>-2.0</ele><time>2026-04-12T15:54:19.003Z</time></trkpt><trkpt lat="44.697933" lon="12.2177063"><ele>-1.5</ele><time>2026-04-12T15:54:20.003Z</time></trkpt><trkpt lat="44.6980665" lon="12.2177252"><ele>-1.0</ele><time>2026-04-12T15:54:21.004Z</time></trkpt><trkpt lat="44.698199" lon="12.217723"><ele>-1.0</ele><time>2026-04-12T15:54:22.003Z</time></trkpt><trkpt lat="44.6983397" lon="12.2176949"><ele>-1.0</ele><time>2026-04-12T15:54:23.003Z</time></trkpt><trkpt lat="44.6984875" lon="12.2176618"><ele>-1.0</ele><time>2026-04-12T15:54:24.004Z</time></trkpt><trkpt lat="44.6986318" lon="12.2176294"><ele>-1.0</ele><time>2026-04-12T15:54:25.004Z</time></trkpt><trkpt lat="44.698777" lon="12.2175953"><ele>-1.25</ele><time>2026-04-12T15:54:26.004Z</time></trkpt><trkpt lat="44.69892" lon="12.21756"><ele>-1.5</ele><time>2026-04-12T15:54:27.003Z</time></trkpt><trkpt lat="44.6990637" lon="12.2175196"><ele>-1.75</ele><time>2026-04-12T15:54:28.003Z</time></trkpt><trkpt lat="44.6992043" lon="12.2174817"><ele>-2.0</ele><time>2026-04-12T15:54:29.004Z</time></trkpt><trkpt lat="44.6993463" lon="12.2174464"><ele>-1.75</ele><time>2026-04-12T15:54:30.003Z</time></trkpt><trkpt lat="44.6994883" lon="12.2174135"><ele>-1.5</ele><time>2026-04-12T15:54:31.004Z</time></trkpt><trkpt lat="44.6996315" lon="12.2173813"><ele>-1.25</ele><time>2026-04-12T15:54:32.003Z</time></trkpt><trkpt lat="44.6997749" lon="12.2173493"><ele>-1.0</ele><time>2026-04-12T15:54:33.004Z</time></trkpt><trkpt lat="44.6999175" lon="12.2173185"><ele>-0.75</ele><time>2026-04-12T15:54:34.004Z</time></trkpt><trkpt lat="44.7000611" lon="12.217291"><ele>-0.5</ele><time>2026-04-12T15:54:35.004Z</time></trkpt><trkpt lat="44.7002026" lon="12.2172619"><ele>-0.25</ele><time>2026-04-12T15:54:36.003Z</time></trkpt><trkpt lat="44.7003495" lon="12.2172381"><ele>0.0</ele><time>2026-04-12T15:54:37.003Z</time></trkpt><trkpt lat="44.7005002" lon="12.2172146"><ele>-1.0</ele><time>2026-04-12T15:54:38.003Z</time></trkpt><trkpt lat="44.7006623" lon="12.2172041"><ele>-2.0</ele><time>2026-04-12T15:54:39.003Z</time></trkpt><trkpt lat="44.7008491" lon="12.2172056"><ele>-3.0</ele><time>2026-04-12T15:54:40.003Z</time></trkpt><trkpt lat="44.7010471" lon="12.2172134"><ele>-3.0</ele><time>2026-04-12T15:54:41.003Z</time></trkpt><trkpt lat="44.7012583" lon="12.217223"><ele>-3.0</ele><time>2026-04-12T15:54:42.004Z</time></trkpt><trkpt lat="44.7014413" lon="12.2172286"><ele>-3.0</ele><time>2026-04-12T15:54:43.004Z</time></trkpt><trkpt lat="44.7016124" lon="12.2172325"><ele>-3.0</ele><time>2026-04-12T15:54:44.003Z</time></trkpt><trkpt lat="44.7017811" lon="12.2172351"><ele>-3.0</ele><time>2026-04-12T15:54:45.004Z</time></trkpt><trkpt lat="44.7019374" lon="12.217241"><ele>-3.0</ele><time>2026-04-12T15:54:46.004Z</time></trkpt><trkpt lat="44.7020808" lon="12.217254"><ele>-3.0</ele><time>2026-04-12T15:54:47.005Z</time></trkpt><trkpt lat="44.7022166" lon="12.2172628"><ele>-3.0</ele><time>2026-04-12T15:54:48.005Z</time></trkpt><trkpt lat="44.7023527" lon="12.2172676"><ele>-3.0</ele><time>2026-04-12T15:54:49.003Z</time></trkpt><trkpt lat="44.702483" lon="12.2172742"><ele>-3.0</ele><time>2026-04-12T15:54:50.004Z</time></trkpt><trkpt lat="44.7026058" lon="12.2172801"><ele>-3.0</ele><time>2026-04-12T15:54:51.003Z</time></trkpt><trkpt lat="44.7027131" lon="12.2172782"><ele>-3.0</ele><time>2026-04-12T15:54:52.004Z</time></trkpt><trkpt lat="44.7028027" lon="12.2172681"><ele>-3.0</ele><time>2026-04-12T15:54:53.004Z</time></trkpt><trkpt lat="44.7028779" lon="12.2172561"><ele>-3.0</ele><time>2026-04-12T15:54:54.003Z</time></trkpt><trkpt lat="44.7029725" lon="12.2172817"><ele>-3.0</ele><time>2026-04-12T15:54:56.003Z</time></trkpt><trkpt lat="44.7030036" lon="12.2173621"><ele>-3.0</ele><time>2026-04-12T15:54:58.004Z</time></trkpt><trkpt lat="44.7030108" lon="12.2175344"><ele>-2.75</ele><time>2026-04-12T15:55:00.004Z</time></trkpt><trkpt lat="44.7030097" lon="12.2176732"><ele>-2.5</ele><time>2026-04-12T15:55:01.004Z</time></trkpt><trkpt lat="44.7030133" lon="12.2178454"><ele>-2.25</ele><time>2026-04-12T15:55:02.004Z</time></trkpt><trkpt lat="44.7030139" lon="12.218025"><ele>-2.0</ele><time>2026-04-12T15:55:03.003Z</time></trkpt><trkpt lat="44.7030177" lon="12.2182289"><ele>-2.0</ele><time>2026-04-12T15:55:04.003Z</time></trkpt><trkpt lat="44.7030222" lon="12.2184767"><ele>-2.0</ele><time>2026-04-12T15:55:05.004Z</time></trkpt><trkpt lat="44.7030275" lon="12.2187625"><ele>-2.0</ele><time>2026-04-12T15:55:06.004Z</time></trkpt><trkpt lat="44.7030318" lon="12.2190583"><ele>-1.6666666666666665</ele><time>2026-04-12T15:55:07.004Z</time></trkpt><trkpt lat="44.7030374" lon="12.2193111"><ele>-1.3333333333333333</ele><time>2026-04-12T15:55:08.004Z</time></trkpt><trkpt lat="44.7030408" lon="12.2195445"><ele>-1.0</ele><time>2026-04-12T15:55:09.003Z</time></trkpt><trkpt lat="44.7030454" lon="12.219758"><ele>-1.0</ele><time>2026-04-12T15:55:10.003Z</time></trkpt><trkpt lat="44.7030481" lon="12.2199611"><ele>-1.0</ele><time>2026-04-12T15:55:11.004Z</time></trkpt><trkpt lat="44.7030546" lon="12.2201377"><ele>-1.0</ele><time>2026-04-12T15:55:12.004Z</time></trkpt><trkpt lat="44.7030582" lon="12.2203033"><ele>-1.0</ele><time>2026-04-12T15:55:13.004Z</time></trkpt><trkpt lat="44.7030618" lon="12.2204641"><ele>-1.0</ele><time>2026-04-12T15:55:14.003Z</time></trkpt><trkpt lat="44.7030674" lon="12.2206251"><ele>-1.0</ele><time>2026-04-12T15:55:15.003Z</time></trkpt><trkpt lat="44.7030716" lon="12.2207899"><ele>-1.0</ele><time>2026-04-12T15:55:16.003Z</time></trkpt><trkpt lat="44.7030764" lon="12.2209607"><ele>-1.0</ele><time>2026-04-12T15:55:17.004Z</time></trkpt><trkpt lat="44.7030799" lon="12.2211333"><ele>-1.2000000000000002</ele><time>2026-04-12T15:55:18.004Z</time></trkpt><trkpt lat="44.7030809" lon="12.2213092"><ele>-1.4000000000000001</ele><time>2026-04-12T15:55:19.003Z</time></trkpt><trkpt lat="44.7030831" lon="12.2214605"><ele>-1.6</ele><time>2026-04-12T15:55:20.004Z</time></trkpt><trkpt lat="44.7030855" lon="12.2215972"><ele>-1.8</ele><time>2026-04-12T15:55:21.004Z</time></trkpt><trkpt lat="44.7030863" lon="12.2217166"><ele>-2.0</ele><time>2026-04-12T15:55:22.004Z</time></trkpt><trkpt lat="44.7030854" lon="12.2218071"><ele>-1.6666666666666665</ele><time>2026-04-12T15:55:23.003Z</time></trkpt><trkpt lat="44.7030597" lon="12.2219308"><ele>-1.3333333333333333</ele><time>2026-04-12T15:55:25.003Z</time></trkpt><trkpt lat="44.7029962" lon="12.2220097"><ele>-1.0</ele><time>2026-04-12T15:55:27.003Z</time></trkpt><trkpt lat="44.7029356" lon="12.2220659"><ele>-0.6666666666666666</ele><time>2026-04-12T15:55:35.003Z</time></trkpt><trkpt lat="44.7028654" lon="12.2221834"><ele>-0.3333333333333333</ele><time>2026-04-12T15:55:37.003Z</time></trkpt><trkpt lat="44.7028589" lon="12.2222945"><ele>0.0</ele><time>2026-04-12T15:55:40.003Z</time></trkpt><trkpt lat="44.7029224" lon="12.2223337"><ele>0.16666666666666666</ele><time>2026-04-12T15:55:43.004Z</time></trkpt><trkpt lat="44.7029873" lon="12.2223693"><ele>0.3333333333333333</ele><time>2026-04-12T15:55:45.004Z</time></trkpt><trkpt lat="44.7030222" lon="12.2224481"><ele>0.5</ele><time>2026-04-12T15:55:47.003Z</time></trkpt><trkpt lat="44.7030166" lon="12.2225401"><ele>0.6666666666666666</ele><time>2026-04-12T15:55:49.003Z</time></trkpt><trkpt lat="44.7030403" lon="12.22266"><ele>0.8333333333333333</ele><time>2026-04-12T15:57:00.003Z</time></trkpt><trkpt lat="44.7030678" lon="12.2227973"><ele>1.0</ele><time>2026-04-12T15:57:02.004Z</time></trkpt><trkpt lat="44.7031091" lon="12.2229469"><ele>1.0</ele><time>2026-04-12T15:57:04.003Z</time></trkpt><trkpt lat="44.7031803" lon="12.2230927"><ele>1.0</ele><time>2026-04-12T15:57:06.005Z</time></trkpt><trkpt lat="44.7032324" lon="12.2231585"><ele>1.0</ele><time>2026-04-12T15:57:07.004Z</time></trkpt><trkpt lat="44.7033016" lon="12.2232158"><ele>1.0</ele><time>2026-04-12T15:57:08.003Z</time></trkpt><trkpt lat="44.7034052" lon="12.223242"><ele>1.0</ele><time>2026-04-12T15:57:09.004Z</time></trkpt><trkpt lat="44.7035175" lon="12.2232694"><ele>1.0</ele><time>2026-04-12T15:57:10.003Z</time></trkpt><trkpt lat="44.703634" lon="12.2232761"><ele>1.0</ele><time>2026-04-12T15:57:11.004Z</time></trkpt><trkpt lat="44.7037518" lon="12.22327"><ele>1.0</ele><time>2026-04-12T15:57:12.004Z</time></trkpt><trkpt lat="44.7038521" lon="12.2232683"><ele>1.0</ele><time>2026-04-12T15:57:13.004Z</time></trkpt><trkpt lat="44.7039251" lon="12.223271"><ele>1.0</ele><time>2026-04-12T15:57:14.003Z</time></trkpt><trkpt lat="44.703991" lon="12.2232884"><ele>0.9999999999999999</ele><time>2026-04-12T15:57:15.005Z</time></trkpt><trkpt lat="44.7040831" lon="12.2233728"><ele>1.0</ele><time>2026-04-12T15:57:17.003Z</time></trkpt><trkpt lat="44.7041146" lon="12.2234499"><ele>1.0</ele><time>2026-04-12T15:57:18.004Z</time></trkpt><trkpt lat="44.7041311" lon="12.2235605"><ele>1.0</ele><time>2026-04-12T15:57:19.004Z</time></trkpt><trkpt lat="44.7041427" lon="12.223694"><ele>0.9999999999999999</ele><time>2026-04-12T15:57:20.004Z</time></trkpt><trkpt lat="44.704143" lon="12.2238039"><ele>1.0</ele><time>2026-04-12T15:57:21.003Z</time></trkpt><trkpt lat="44.7041279" lon="12.2239203"><ele>1.2000000000000002</ele><time>2026-04-12T15:57:22.003Z</time></trkpt><trkpt lat="44.7041081" lon="12.2240219"><ele>1.4000000000000001</ele><time>2026-04-12T15:57:23.003Z</time></trkpt><trkpt lat="44.7040887" lon="12.2241609"><ele>1.6</ele><time>2026-04-12T15:57:25.004Z</time></trkpt><trkpt lat="44.704132" lon="12.2242373"><ele>1.8</ele><time>2026-04-12T15:57:27.003Z</time></trkpt><trkpt lat="44.7042828" lon="12.2242516"><ele>2.0</ele><time>2026-04-12T15:57:29.003Z</time></trkpt><trkpt lat="44.7043937" lon="12.2242568"><ele>2.0</ele><time>2026-04-12T15:57:30.004Z</time></trkpt><trkpt lat="44.7045081" lon="12.2242615"><ele>2.0</ele><time>2026-04-12T15:57:31.003Z</time></trkpt><trkpt lat="44.7046272" lon="12.2242661"><ele>2.0</ele><time>2026-04-12T15:57:32.003Z</time></trkpt><trkpt lat="44.7047346" lon="12.2242703"><ele>2.0</ele><time>2026-04-12T15:57:33.004Z</time></trkpt><trkpt lat="44.7048436" lon="12.2242764"><ele>2.0</ele><time>2026-04-12T15:57:34.003Z</time></trkpt><trkpt lat="44.7049534" lon="12.2242835"><ele>2.0</ele><time>2026-04-12T15:57:35.004Z</time></trkpt><trkpt lat="44.7050613" lon="12.2242891"><ele>2.0</ele><time>2026-04-12T15:57:36.004Z</time></trkpt><trkpt lat="44.7051602" lon="12.2242963"><ele>2.0</ele><time>2026-04-12T15:57:37.003Z</time></trkpt><trkpt lat="44.7052517" lon="12.2242973"><ele>2.0</ele><time>2026-04-12T15:57:38.004Z</time></trkpt><trkpt lat="44.7053482" lon="12.224309"><ele>2.0</ele><time>2026-04-12T15:57:39.003Z</time></trkpt><trkpt lat="44.7054484" lon="12.2243155"><ele>2.0</ele><time>2026-04-12T15:57:40.004Z</time></trkpt><trkpt lat="44.7055517" lon="12.2243245"><ele>2.0</ele><time>2026-04-12T15:57:41.004Z</time></trkpt><trkpt lat="44.7056507" lon="12.2243296"><ele>2.0</ele><time>2026-04-12T15:57:42.003Z</time></trkpt><trkpt lat="44.7057468" lon="12.2243262"><ele>2.0</ele><time>2026-04-12T15:57:43.004Z</time></trkpt><trkpt lat="44.7058496" lon="12.2243225"><ele>2.0</ele><time>2026-04-12T15:57:44.004Z</time></trkpt><trkpt lat="44.7059603" lon="12.2243269"><ele>2.0</ele><time>2026-04-12T15:57:45.004Z</time></trkpt><trkpt lat="44.7060715" lon="12.2243391"><ele>2.0</ele><time>2026-04-12T15:57:46.004Z</time></trkpt><trkpt lat="44.7061815" lon="12.2243547"><ele>2.0</ele><time>2026-04-12T15:57:47.003Z</time></trkpt><trkpt lat="44.7062903" lon="12.2243607"><ele>2.0</ele><time>2026-04-12T15:57:48.005Z</time></trkpt><trkpt lat="44.7064003" lon="12.2243777"><ele>1.8</ele><time>2026-04-12T15:57:49.004Z</time></trkpt><trkpt lat="44.7065133" lon="12.2243934"><ele>1.6</ele><time>2026-04-12T15:57:50.003Z</time></trkpt><trkpt lat="44.7066103" lon="12.2243925"><ele>1.4000000000000001</ele><time>2026-04-12T15:57:51.004Z</time></trkpt><trkpt lat="44.7067165" lon="12.2243986"><ele>1.2000000000000002</ele><time>2026-04-12T15:57:52.003Z</time></trkpt><trkpt lat="44.7068242" lon="12.2244083"><ele>1.0</ele><time>2026-04-12T15:57:53.004Z</time></trkpt><trkpt lat="44.7069241" lon="12.2244064"><ele>0.9999999999999999</ele><time>2026-04-12T15:57:54.005Z</time></trkpt><trkpt lat="44.7070175" lon="12.2244183"><ele>1.0</ele><time>2026-04-12T15:57:55.003Z</time></trkpt><trkpt lat="44.7070944" lon="12.2244288"><ele>1.0</ele><time>2026-04-12T15:57:56.003Z</time></trkpt><trkpt lat="44.7071757" lon="12.2244421"><ele>1.0</ele><time>2026-04-12T15:57:57.003Z</time></trkpt><trkpt lat="44.7072465" lon="12.2244336"><ele>0.9999999999999999</ele><time>2026-04-12T15:57:58.003Z</time></trkpt><trkpt lat="44.7073166" lon="12.2244361"><ele>1.0</ele><time>2026-04-12T15:57:59.004Z</time></trkpt><trkpt lat="44.7073905" lon="12.224444"><ele>0.9999999999999999</ele><time>2026-04-12T15:58:00.004Z</time></trkpt><trkpt lat="44.7074593" lon="12.2244465"><ele>1.0</ele><time>2026-04-12T15:58:01.003Z</time></trkpt><trkpt lat="44.7075388" lon="12.2244785"><ele>1.0</ele><time>2026-04-12T15:58:03.004Z</time></trkpt><trkpt lat="44.7075667" lon="12.2245731"><ele>1.0</ele><time>2026-04-12T15:58:05.003Z</time></trkpt><trkpt lat="44.7075567" lon="12.224716"><ele>0.9999999999999999</ele><time>2026-04-12T15:58:07.003Z</time></trkpt><trkpt lat="44.7075583" lon="12.2248677"><ele>1.0</ele><time>2026-04-12T15:58:09.003Z</time></trkpt><trkpt lat="44.7075552" lon="12.2249568"><ele>0.9999999999999999</ele><time>2026-04-12T15:58:10.003Z</time></trkpt><trkpt lat="44.7075492" lon="12.2250521"><ele>1.0</ele><time>2026-04-12T15:58:11.003Z</time></trkpt><trkpt lat="44.7075423" lon="12.2251507"><ele>1.0</ele><time>2026-04-12T15:58:12.004Z</time></trkpt><trkpt lat="44.7075329" lon="12.2252456"><ele>1.0</ele><time>2026-04-12T15:58:13.004Z</time></trkpt><trkpt lat="44.7075132" lon="12.2253802"><ele>0.9999999999999999</ele><time>2026-04-12T15:58:15.003Z</time></trkpt><trkpt lat="44.7074417" lon="12.2254132"><ele>1.0</ele><time>2026-04-12T15:58:45.004Z</time></trkpt><trkpt lat="44.7073659" lon="12.2254327"><ele>1.0</ele><time>2026-04-12T15:58:48.003Z</time></trkpt></trkseg></trk></gpx>